<?xml version="1.0" encoding="UTF-8" standalone="no" ?>
<gpx xmlns="http://www.topografix.com/GPX/1/1" xmlns:xsi="http://www.w3.org/2001/XMLSchema-instance" xsi:schemaLocation="http://www.topografix.com/GPX/1/1 http://www.topografix.com/GPX/1/1/gpx.xsd" version="1.1" creator="VisuGPX - https://www.visugpx.com">
  <metadata>
    <name>Rando\'lune Brain sur l\'Authion</name>
    <desc><![CDATA[Organisée par OT Loire-Authion et la commune de Brain sur l\'Authion.]]></desc>
  </metadata>
  <trk>
    <name><![CDATA[04/08/2012 20:41]]></name>
    <desc><![CDATA[]]></desc>
    <trkseg>
      <trkpt lat="47.44316" lon="-0.40872">
        <ele>19</ele>
        <time>2012-08-05T18:41:29.127Z</time>
      </trkpt>
      <trkpt lat="47.44316" lon="-0.40872">
        <ele>19</ele>
        <time>2012-08-05T18:41:29.127Z</time>
      </trkpt>
      <trkpt lat="47.44316" lon="-0.40872">
        <ele>19</ele>
        <time>2012-08-05T18:41:45.127Z</time>
      </trkpt>
      <trkpt lat="47.44322" lon="-0.40874">
        <ele>19</ele>
        <time>2012-08-05T18:41:46.127Z</time>
      </trkpt>
      <trkpt lat="47.44318" lon="-0.40869">
        <ele>19</ele>
        <time>2012-08-05T18:41:56.127Z</time>
      </trkpt>
      <trkpt lat="47.44319" lon="-0.40862">
        <ele>19</ele>
        <time>2012-08-05T18:42:09.127Z</time>
      </trkpt>
      <trkpt lat="47.44319" lon="-0.40971">
        <ele>19</ele>
        <time>2012-08-05T18:42:51.127Z</time>
      </trkpt>
      <trkpt lat="47.44319" lon="-0.40971">
        <ele>19</ele>
        <time>2012-08-05T18:42:51.127Z</time>
      </trkpt>
      <trkpt lat="47.44319" lon="-0.40971">
        <ele>19</ele>
        <time>2012-08-05T18:42:55.127Z</time>
      </trkpt>
      <trkpt lat="47.44402" lon="-0.41016">
        <ele>20</ele>
        <time>2012-08-05T18:45:20.127Z</time>
      </trkpt>
      <trkpt lat="47.44402" lon="-0.41016">
        <ele>20</ele>
        <time>2012-08-05T18:45:20.127Z</time>
      </trkpt>
      <trkpt lat="47.44402" lon="-0.41016">
        <ele>20</ele>
        <time>2012-08-05T18:45:24.127Z</time>
      </trkpt>
      <trkpt lat="47.44397" lon="-0.41027">
        <ele>20</ele>
        <time>2012-08-05T18:45:25.127Z</time>
      </trkpt>
      <trkpt lat="47.44396" lon="-0.41035">
        <ele>20</ele>
        <time>2012-08-05T18:45:27.127Z</time>
      </trkpt>
      <trkpt lat="47.44401" lon="-0.41036">
        <ele>20</ele>
        <time>2012-08-05T18:45:31.127Z</time>
      </trkpt>
      <trkpt lat="47.44401" lon="-0.4102">
        <ele>20</ele>
        <time>2012-08-05T18:45:33.127Z</time>
      </trkpt>
      <trkpt lat="47.44405" lon="-0.41015">
        <ele>20</ele>
        <time>2012-08-05T18:45:36.127Z</time>
      </trkpt>
      <trkpt lat="47.4441" lon="-0.41015">
        <ele>20</ele>
        <time>2012-08-05T18:45:39.127Z</time>
      </trkpt>
      <trkpt lat="47.44414" lon="-0.41018">
        <ele>20</ele>
        <time>2012-08-05T18:45:44.127Z</time>
      </trkpt>
      <trkpt lat="47.44419" lon="-0.41022">
        <ele>20</ele>
        <time>2012-08-05T18:45:49.127Z</time>
      </trkpt>
      <trkpt lat="47.44424" lon="-0.41026">
        <ele>21</ele>
        <time>2012-08-05T18:45:54.127Z</time>
      </trkpt>
      <trkpt lat="47.44428" lon="-0.41028">
        <ele>21</ele>
        <time>2012-08-05T18:45:58.127Z</time>
      </trkpt>
      <trkpt lat="47.44433" lon="-0.41029">
        <ele>21</ele>
        <time>2012-08-05T18:46:02.127Z</time>
      </trkpt>
      <trkpt lat="47.44437" lon="-0.41031">
        <ele>21</ele>
        <time>2012-08-05T18:46:06.127Z</time>
      </trkpt>
      <trkpt lat="47.44441" lon="-0.41034">
        <ele>21</ele>
        <time>2012-08-05T18:46:10.127Z</time>
      </trkpt>
      <trkpt lat="47.44446" lon="-0.41036">
        <ele>21</ele>
        <time>2012-08-05T18:46:14.127Z</time>
      </trkpt>
      <trkpt lat="47.4445" lon="-0.41038">
        <ele>21</ele>
        <time>2012-08-05T18:46:18.127Z</time>
      </trkpt>
      <trkpt lat="47.44454" lon="-0.4104">
        <ele>21</ele>
        <time>2012-08-05T18:46:22.127Z</time>
      </trkpt>
      <trkpt lat="47.44458" lon="-0.41044">
        <ele>22</ele>
        <time>2012-08-05T18:46:27.127Z</time>
      </trkpt>
      <trkpt lat="47.4446" lon="-0.41052">
        <ele>22</ele>
        <time>2012-08-05T18:46:33.127Z</time>
      </trkpt>
      <trkpt lat="47.4446" lon="-0.41059">
        <ele>22</ele>
        <time>2012-08-05T18:46:37.127Z</time>
      </trkpt>
      <trkpt lat="47.44458" lon="-0.41067">
        <ele>22</ele>
        <time>2012-08-05T18:46:41.127Z</time>
      </trkpt>
      <trkpt lat="47.44455" lon="-0.41075">
        <ele>22</ele>
        <time>2012-08-05T18:46:44.127Z</time>
      </trkpt>
      <trkpt lat="47.44452" lon="-0.41083">
        <ele>22</ele>
        <time>2012-08-05T18:46:47.127Z</time>
      </trkpt>
      <trkpt lat="47.44449" lon="-0.4109">
        <ele>23</ele>
        <time>2012-08-05T18:46:50.127Z</time>
      </trkpt>
      <trkpt lat="47.44445" lon="-0.41096">
        <ele>23</ele>
        <time>2012-08-05T18:46:53.127Z</time>
      </trkpt>
      <trkpt lat="47.44442" lon="-0.41103">
        <ele>23</ele>
        <time>2012-08-05T18:46:56.127Z</time>
      </trkpt>
      <trkpt lat="47.44438" lon="-0.41109">
        <ele>23</ele>
        <time>2012-08-05T18:46:59.127Z</time>
      </trkpt>
      <trkpt lat="47.44434" lon="-0.41114">
        <ele>23</ele>
        <time>2012-08-05T18:47:02.127Z</time>
      </trkpt>
      <trkpt lat="47.44429" lon="-0.41119">
        <ele>23</ele>
        <time>2012-08-05T18:47:05.127Z</time>
      </trkpt>
      <trkpt lat="47.44424" lon="-0.41123">
        <ele>23</ele>
        <time>2012-08-05T18:47:08.127Z</time>
      </trkpt>
      <trkpt lat="47.44419" lon="-0.41126">
        <ele>23</ele>
        <time>2012-08-05T18:47:11.127Z</time>
      </trkpt>
      <trkpt lat="47.44414" lon="-0.41128">
        <ele>22</ele>
        <time>2012-08-05T18:47:14.127Z</time>
      </trkpt>
      <trkpt lat="47.44409" lon="-0.4113">
        <ele>22</ele>
        <time>2012-08-05T18:47:17.127Z</time>
      </trkpt>
      <trkpt lat="47.44404" lon="-0.41132">
        <ele>22</ele>
        <time>2012-08-05T18:47:20.127Z</time>
      </trkpt>
      <trkpt lat="47.44398" lon="-0.41133">
        <ele>22</ele>
        <time>2012-08-05T18:47:23.127Z</time>
      </trkpt>
      <trkpt lat="47.44393" lon="-0.41136">
        <ele>22</ele>
        <time>2012-08-05T18:47:27.127Z</time>
      </trkpt>
      <trkpt lat="47.44388" lon="-0.41138">
        <ele>22</ele>
        <time>2012-08-05T18:47:31.127Z</time>
      </trkpt>
      <trkpt lat="47.44383" lon="-0.41139">
        <ele>22</ele>
        <time>2012-08-05T18:47:35.127Z</time>
      </trkpt>
      <trkpt lat="47.44378" lon="-0.41141">
        <ele>22</ele>
        <time>2012-08-05T18:47:39.127Z</time>
      </trkpt>
      <trkpt lat="47.44374" lon="-0.41142">
        <ele>22</ele>
        <time>2012-08-05T18:47:43.127Z</time>
      </trkpt>
      <trkpt lat="47.44369" lon="-0.41144">
        <ele>21</ele>
        <time>2012-08-05T18:47:47.127Z</time>
      </trkpt>
      <trkpt lat="47.44365" lon="-0.41146">
        <ele>21</ele>
        <time>2012-08-05T18:47:51.127Z</time>
      </trkpt>
      <trkpt lat="47.4436" lon="-0.41149">
        <ele>21</ele>
        <time>2012-08-05T18:47:56.127Z</time>
      </trkpt>
      <trkpt lat="47.44355" lon="-0.41153">
        <ele>21</ele>
        <time>2012-08-05T18:48:01.127Z</time>
      </trkpt>
      <trkpt lat="47.4435" lon="-0.41156">
        <ele>21</ele>
        <time>2012-08-05T18:48:05.127Z</time>
      </trkpt>
      <trkpt lat="47.44346" lon="-0.4116">
        <ele>21</ele>
        <time>2012-08-05T18:48:10.127Z</time>
      </trkpt>
      <trkpt lat="47.44342" lon="-0.41163">
        <ele>21</ele>
        <time>2012-08-05T18:48:14.127Z</time>
      </trkpt>
      <trkpt lat="47.44337" lon="-0.41168">
        <ele>20</ele>
        <time>2012-08-05T18:48:19.127Z</time>
      </trkpt>
      <trkpt lat="47.44333" lon="-0.41172">
        <ele>20</ele>
        <time>2012-08-05T18:48:23.127Z</time>
      </trkpt>
      <trkpt lat="47.4433" lon="-0.41176">
        <ele>20</ele>
        <time>2012-08-05T18:48:27.127Z</time>
      </trkpt>
      <trkpt lat="47.44326" lon="-0.4118">
        <ele>21</ele>
        <time>2012-08-05T18:48:31.127Z</time>
      </trkpt>
      <trkpt lat="47.44322" lon="-0.41184">
        <ele>21</ele>
        <time>2012-08-05T18:48:35.127Z</time>
      </trkpt>
      <trkpt lat="47.44319" lon="-0.41189">
        <ele>21</ele>
        <time>2012-08-05T18:48:39.127Z</time>
      </trkpt>
      <trkpt lat="47.44315" lon="-0.41194">
        <ele>21</ele>
        <time>2012-08-05T18:48:43.127Z</time>
      </trkpt>
      <trkpt lat="47.4431" lon="-0.412">
        <ele>21</ele>
        <time>2012-08-05T18:48:47.127Z</time>
      </trkpt>
      <trkpt lat="47.44308" lon="-0.41206">
        <ele>21</ele>
        <time>2012-08-05T18:48:50.127Z</time>
      </trkpt>
      <trkpt lat="47.44305" lon="-0.41213">
        <ele>21</ele>
        <time>2012-08-05T18:48:54.127Z</time>
      </trkpt>
      <trkpt lat="47.44301" lon="-0.41219">
        <ele>21</ele>
        <time>2012-08-05T18:48:58.127Z</time>
      </trkpt>
      <trkpt lat="47.44298" lon="-0.41226">
        <ele>21</ele>
        <time>2012-08-05T18:49:02.127Z</time>
      </trkpt>
      <trkpt lat="47.44295" lon="-0.41232">
        <ele>21</ele>
        <time>2012-08-05T18:49:06.127Z</time>
      </trkpt>
      <trkpt lat="47.44292" lon="-0.41238">
        <ele>21</ele>
        <time>2012-08-05T18:49:10.127Z</time>
      </trkpt>
      <trkpt lat="47.44289" lon="-0.41244">
        <ele>21</ele>
        <time>2012-08-05T18:49:14.127Z</time>
      </trkpt>
      <trkpt lat="47.44286" lon="-0.4125">
        <ele>20</ele>
        <time>2012-08-05T18:49:18.127Z</time>
      </trkpt>
      <trkpt lat="47.44282" lon="-0.41257">
        <ele>21</ele>
        <time>2012-08-05T18:49:22.127Z</time>
      </trkpt>
      <trkpt lat="47.4428" lon="-0.41265">
        <ele>21</ele>
        <time>2012-08-05T18:49:26.127Z</time>
      </trkpt>
      <trkpt lat="47.44278" lon="-0.41271">
        <ele>21</ele>
        <time>2012-08-05T18:49:29.127Z</time>
      </trkpt>
      <trkpt lat="47.44275" lon="-0.41278">
        <ele>21</ele>
        <time>2012-08-05T18:49:33.127Z</time>
      </trkpt>
      <trkpt lat="47.44272" lon="-0.41285">
        <ele>21</ele>
        <time>2012-08-05T18:49:37.127Z</time>
      </trkpt>
      <trkpt lat="47.44269" lon="-0.41293">
        <ele>21</ele>
        <time>2012-08-05T18:49:41.127Z</time>
      </trkpt>
      <trkpt lat="47.44266" lon="-0.413">
        <ele>21</ele>
        <time>2012-08-05T18:49:45.127Z</time>
      </trkpt>
      <trkpt lat="47.44264" lon="-0.41308">
        <ele>21</ele>
        <time>2012-08-05T18:49:49.127Z</time>
      </trkpt>
      <trkpt lat="47.44262" lon="-0.41315">
        <ele>20</ele>
        <time>2012-08-05T18:49:53.127Z</time>
      </trkpt>
      <trkpt lat="47.44259" lon="-0.41322">
        <ele>20</ele>
        <time>2012-08-05T18:49:57.127Z</time>
      </trkpt>
      <trkpt lat="47.44256" lon="-0.41329">
        <ele>20</ele>
        <time>2012-08-05T18:50:01.127Z</time>
      </trkpt>
      <trkpt lat="47.44254" lon="-0.41336">
        <ele>20</ele>
        <time>2012-08-05T18:50:05.127Z</time>
      </trkpt>
      <trkpt lat="47.44252" lon="-0.41344">
        <ele>20</ele>
        <time>2012-08-05T18:50:09.127Z</time>
      </trkpt>
      <trkpt lat="47.44249" lon="-0.41352">
        <ele>19</ele>
        <time>2012-08-05T18:50:13.127Z</time>
      </trkpt>
      <trkpt lat="47.44247" lon="-0.41358">
        <ele>19</ele>
        <time>2012-08-05T18:50:16.127Z</time>
      </trkpt>
      <trkpt lat="47.44245" lon="-0.41364">
        <ele>19</ele>
        <time>2012-08-05T18:50:19.127Z</time>
      </trkpt>
      <trkpt lat="47.44243" lon="-0.41371">
        <ele>19</ele>
        <time>2012-08-05T18:50:22.127Z</time>
      </trkpt>
      <trkpt lat="47.44241" lon="-0.41377">
        <ele>20</ele>
        <time>2012-08-05T18:50:25.127Z</time>
      </trkpt>
      <trkpt lat="47.4424" lon="-0.41384">
        <ele>20</ele>
        <time>2012-08-05T18:50:28.127Z</time>
      </trkpt>
      <trkpt lat="47.44237" lon="-0.41391">
        <ele>20</ele>
        <time>2012-08-05T18:50:32.127Z</time>
      </trkpt>
      <trkpt lat="47.44234" lon="-0.41399">
        <ele>20</ele>
        <time>2012-08-05T18:50:36.127Z</time>
      </trkpt>
      <trkpt lat="47.44232" lon="-0.41406">
        <ele>20</ele>
        <time>2012-08-05T18:50:40.127Z</time>
      </trkpt>
      <trkpt lat="47.4423" lon="-0.41414">
        <ele>20</ele>
        <time>2012-08-05T18:50:44.127Z</time>
      </trkpt>
      <trkpt lat="47.44228" lon="-0.41421">
        <ele>20</ele>
        <time>2012-08-05T18:50:48.127Z</time>
      </trkpt>
      <trkpt lat="47.44227" lon="-0.4143">
        <ele>20</ele>
        <time>2012-08-05T18:50:52.127Z</time>
      </trkpt>
      <trkpt lat="47.44228" lon="-0.41436">
        <ele>20</ele>
        <time>2012-08-05T18:50:55.127Z</time>
      </trkpt>
      <trkpt lat="47.44228" lon="-0.41445">
        <ele>20</ele>
        <time>2012-08-05T18:50:59.127Z</time>
      </trkpt>
      <trkpt lat="47.44228" lon="-0.41451">
        <ele>20</ele>
        <time>2012-08-05T18:51:02.127Z</time>
      </trkpt>
      <trkpt lat="47.44229" lon="-0.41458">
        <ele>20</ele>
        <time>2012-08-05T18:51:05.127Z</time>
      </trkpt>
      <trkpt lat="47.44229" lon="-0.41466">
        <ele>20</ele>
        <time>2012-08-05T18:51:09.127Z</time>
      </trkpt>
      <trkpt lat="47.44229" lon="-0.41474">
        <ele>20</ele>
        <time>2012-08-05T18:51:13.127Z</time>
      </trkpt>
      <trkpt lat="47.44229" lon="-0.41482">
        <ele>20</ele>
        <time>2012-08-05T18:51:17.127Z</time>
      </trkpt>
      <trkpt lat="47.4423" lon="-0.4149">
        <ele>20</ele>
        <time>2012-08-05T18:51:21.127Z</time>
      </trkpt>
      <trkpt lat="47.44231" lon="-0.41497">
        <ele>20</ele>
        <time>2012-08-05T18:51:24.127Z</time>
      </trkpt>
      <trkpt lat="47.44232" lon="-0.41505">
        <ele>20</ele>
        <time>2012-08-05T18:51:28.127Z</time>
      </trkpt>
      <trkpt lat="47.44232" lon="-0.41514">
        <ele>20</ele>
        <time>2012-08-05T18:51:32.127Z</time>
      </trkpt>
      <trkpt lat="47.44232" lon="-0.41521">
        <ele>20</ele>
        <time>2012-08-05T18:51:36.127Z</time>
      </trkpt>
      <trkpt lat="47.44231" lon="-0.41528">
        <ele>19</ele>
        <time>2012-08-05T18:51:40.127Z</time>
      </trkpt>
      <trkpt lat="47.44231" lon="-0.41536">
        <ele>19</ele>
        <time>2012-08-05T18:51:44.127Z</time>
      </trkpt>
      <trkpt lat="47.44231" lon="-0.41543">
        <ele>19</ele>
        <time>2012-08-05T18:51:48.127Z</time>
      </trkpt>
      <trkpt lat="47.44231" lon="-0.41551">
        <ele>19</ele>
        <time>2012-08-05T18:51:52.127Z</time>
      </trkpt>
      <trkpt lat="47.44229" lon="-0.41557">
        <ele>19</ele>
        <time>2012-08-05T18:51:56.127Z</time>
      </trkpt>
      <trkpt lat="47.44228" lon="-0.41564">
        <ele>19</ele>
        <time>2012-08-05T18:52:00.127Z</time>
      </trkpt>
      <trkpt lat="47.44227" lon="-0.41571">
        <ele>19</ele>
        <time>2012-08-05T18:52:04.127Z</time>
      </trkpt>
      <trkpt lat="47.44226" lon="-0.41578">
        <ele>19</ele>
        <time>2012-08-05T18:52:08.127Z</time>
      </trkpt>
      <trkpt lat="47.44225" lon="-0.41585">
        <ele>19</ele>
        <time>2012-08-05T18:52:12.127Z</time>
      </trkpt>
      <trkpt lat="47.44225" lon="-0.41592">
        <ele>19</ele>
        <time>2012-08-05T18:52:16.127Z</time>
      </trkpt>
      <trkpt lat="47.44224" lon="-0.41599">
        <ele>19</ele>
        <time>2012-08-05T18:52:20.127Z</time>
      </trkpt>
      <trkpt lat="47.44223" lon="-0.41606">
        <ele>19</ele>
        <time>2012-08-05T18:52:24.127Z</time>
      </trkpt>
      <trkpt lat="47.44222" lon="-0.41612">
        <ele>19</ele>
        <time>2012-08-05T18:52:28.127Z</time>
      </trkpt>
      <trkpt lat="47.4422" lon="-0.41619">
        <ele>19</ele>
        <time>2012-08-05T18:52:32.127Z</time>
      </trkpt>
      <trkpt lat="47.44219" lon="-0.41626">
        <ele>19</ele>
        <time>2012-08-05T18:52:36.127Z</time>
      </trkpt>
      <trkpt lat="47.44217" lon="-0.41633">
        <ele>19</ele>
        <time>2012-08-05T18:52:40.127Z</time>
      </trkpt>
      <trkpt lat="47.44216" lon="-0.4164">
        <ele>19</ele>
        <time>2012-08-05T18:52:44.127Z</time>
      </trkpt>
      <trkpt lat="47.44214" lon="-0.41646">
        <ele>19</ele>
        <time>2012-08-05T18:52:48.127Z</time>
      </trkpt>
      <trkpt lat="47.44213" lon="-0.41652">
        <ele>19</ele>
        <time>2012-08-05T18:52:52.127Z</time>
      </trkpt>
      <trkpt lat="47.44211" lon="-0.41658">
        <ele>19</ele>
        <time>2012-08-05T18:52:56.127Z</time>
      </trkpt>
      <trkpt lat="47.44209" lon="-0.41666">
        <ele>19</ele>
        <time>2012-08-05T18:53:01.127Z</time>
      </trkpt>
      <trkpt lat="47.44207" lon="-0.41674">
        <ele>19</ele>
        <time>2012-08-05T18:53:06.127Z</time>
      </trkpt>
      <trkpt lat="47.44205" lon="-0.4168">
        <ele>19</ele>
        <time>2012-08-05T18:53:11.127Z</time>
      </trkpt>
      <trkpt lat="47.44202" lon="-0.41687">
        <ele>19</ele>
        <time>2012-08-05T18:53:16.127Z</time>
      </trkpt>
      <trkpt lat="47.442" lon="-0.41692">
        <ele>19</ele>
        <time>2012-08-05T18:53:22.127Z</time>
      </trkpt>
      <trkpt lat="47.44196" lon="-0.41697">
        <ele>19</ele>
        <time>2012-08-05T18:53:29.127Z</time>
      </trkpt>
      <trkpt lat="47.44192" lon="-0.41694">
        <ele>19</ele>
        <time>2012-08-05T18:53:35.127Z</time>
      </trkpt>
      <trkpt lat="47.44188" lon="-0.41689">
        <ele>19</ele>
        <time>2012-08-05T18:53:39.127Z</time>
      </trkpt>
      <trkpt lat="47.44184" lon="-0.41682">
        <ele>19</ele>
        <time>2012-08-05T18:53:43.127Z</time>
      </trkpt>
      <trkpt lat="47.44181" lon="-0.41676">
        <ele>19</ele>
        <time>2012-08-05T18:53:46.127Z</time>
      </trkpt>
      <trkpt lat="47.44177" lon="-0.41669">
        <ele>18</ele>
        <time>2012-08-05T18:53:49.127Z</time>
      </trkpt>
      <trkpt lat="47.44174" lon="-0.41663">
        <ele>18</ele>
        <time>2012-08-05T18:53:52.127Z</time>
      </trkpt>
      <trkpt lat="47.44171" lon="-0.41657">
        <ele>18</ele>
        <time>2012-08-05T18:53:55.127Z</time>
      </trkpt>
      <trkpt lat="47.44167" lon="-0.41651">
        <ele>18</ele>
        <time>2012-08-05T18:53:58.127Z</time>
      </trkpt>
      <trkpt lat="47.44163" lon="-0.41646">
        <ele>18</ele>
        <time>2012-08-05T18:54:01.127Z</time>
      </trkpt>
      <trkpt lat="47.4416" lon="-0.41641">
        <ele>18</ele>
        <time>2012-08-05T18:54:04.127Z</time>
      </trkpt>
      <trkpt lat="47.44158" lon="-0.41635">
        <ele>18</ele>
        <time>2012-08-05T18:54:07.127Z</time>
      </trkpt>
      <trkpt lat="47.44154" lon="-0.41629">
        <ele>18</ele>
        <time>2012-08-05T18:54:10.127Z</time>
      </trkpt>
      <trkpt lat="47.4415" lon="-0.41622">
        <ele>18</ele>
        <time>2012-08-05T18:54:13.127Z</time>
      </trkpt>
      <trkpt lat="47.44146" lon="-0.41617">
        <ele>18</ele>
        <time>2012-08-05T18:54:16.127Z</time>
      </trkpt>
      <trkpt lat="47.44142" lon="-0.41612">
        <ele>18</ele>
        <time>2012-08-05T18:54:19.127Z</time>
      </trkpt>
      <trkpt lat="47.44137" lon="-0.41608">
        <ele>18</ele>
        <time>2012-08-05T18:54:22.127Z</time>
      </trkpt>
      <trkpt lat="47.44134" lon="-0.41604">
        <ele>18</ele>
        <time>2012-08-05T18:54:25.127Z</time>
      </trkpt>
      <trkpt lat="47.44129" lon="-0.41601">
        <ele>18</ele>
        <time>2012-08-05T18:54:29.127Z</time>
      </trkpt>
      <trkpt lat="47.44124" lon="-0.416">
        <ele>18</ele>
        <time>2012-08-05T18:54:33.127Z</time>
      </trkpt>
      <trkpt lat="47.44118" lon="-0.41601">
        <ele>18</ele>
        <time>2012-08-05T18:54:36.127Z</time>
      </trkpt>
      <trkpt lat="47.44114" lon="-0.41602">
        <ele>18</ele>
        <time>2012-08-05T18:54:39.127Z</time>
      </trkpt>
      <trkpt lat="47.44109" lon="-0.41605">
        <ele>18</ele>
        <time>2012-08-05T18:54:42.127Z</time>
      </trkpt>
      <trkpt lat="47.44104" lon="-0.41608">
        <ele>18</ele>
        <time>2012-08-05T18:54:45.127Z</time>
      </trkpt>
      <trkpt lat="47.44099" lon="-0.41613">
        <ele>18</ele>
        <time>2012-08-05T18:54:49.127Z</time>
      </trkpt>
      <trkpt lat="47.44095" lon="-0.41619">
        <ele>17</ele>
        <time>2012-08-05T18:54:53.127Z</time>
      </trkpt>
      <trkpt lat="47.44091" lon="-0.41625">
        <ele>17</ele>
        <time>2012-08-05T18:54:57.127Z</time>
      </trkpt>
      <trkpt lat="47.44087" lon="-0.41632">
        <ele>17</ele>
        <time>2012-08-05T18:55:01.127Z</time>
      </trkpt>
      <trkpt lat="47.44083" lon="-0.41638">
        <ele>17</ele>
        <time>2012-08-05T18:55:05.127Z</time>
      </trkpt>
      <trkpt lat="47.4408" lon="-0.41645">
        <ele>17</ele>
        <time>2012-08-05T18:55:09.127Z</time>
      </trkpt>
      <trkpt lat="47.44077" lon="-0.41652">
        <ele>17</ele>
        <time>2012-08-05T18:55:13.127Z</time>
      </trkpt>
      <trkpt lat="47.44074" lon="-0.41658">
        <ele>17</ele>
        <time>2012-08-05T18:55:17.127Z</time>
      </trkpt>
      <trkpt lat="47.44072" lon="-0.41664">
        <ele>17</ele>
        <time>2012-08-05T18:55:21.127Z</time>
      </trkpt>
      <trkpt lat="47.4407" lon="-0.41671">
        <ele>17</ele>
        <time>2012-08-05T18:55:25.127Z</time>
      </trkpt>
      <trkpt lat="47.44068" lon="-0.41677">
        <ele>17</ele>
        <time>2012-08-05T18:55:29.127Z</time>
      </trkpt>
      <trkpt lat="47.44065" lon="-0.41684">
        <ele>17</ele>
        <time>2012-08-05T18:55:33.127Z</time>
      </trkpt>
      <trkpt lat="47.44063" lon="-0.4169">
        <ele>17</ele>
        <time>2012-08-05T18:55:37.127Z</time>
      </trkpt>
      <trkpt lat="47.4406" lon="-0.41696">
        <ele>17</ele>
        <time>2012-08-05T18:55:41.127Z</time>
      </trkpt>
      <trkpt lat="47.44059" lon="-0.41704">
        <ele>17</ele>
        <time>2012-08-05T18:55:45.127Z</time>
      </trkpt>
      <trkpt lat="47.44059" lon="-0.41712">
        <ele>17</ele>
        <time>2012-08-05T18:55:48.127Z</time>
      </trkpt>
      <trkpt lat="47.44059" lon="-0.41721">
        <ele>17</ele>
        <time>2012-08-05T18:55:51.127Z</time>
      </trkpt>
      <trkpt lat="47.4406" lon="-0.4173">
        <ele>17</ele>
        <time>2012-08-05T18:55:54.127Z</time>
      </trkpt>
      <trkpt lat="47.4406" lon="-0.41738">
        <ele>17</ele>
        <time>2012-08-05T18:55:57.127Z</time>
      </trkpt>
      <trkpt lat="47.4406" lon="-0.41744">
        <ele>17</ele>
        <time>2012-08-05T18:56:00.127Z</time>
      </trkpt>
      <trkpt lat="47.4406" lon="-0.41751">
        <ele>17</ele>
        <time>2012-08-05T18:56:03.127Z</time>
      </trkpt>
      <trkpt lat="47.44059" lon="-0.41758">
        <ele>18</ele>
        <time>2012-08-05T18:56:06.127Z</time>
      </trkpt>
      <trkpt lat="47.44059" lon="-0.41765">
        <ele>18</ele>
        <time>2012-08-05T18:56:09.127Z</time>
      </trkpt>
      <trkpt lat="47.44058" lon="-0.41772">
        <ele>18</ele>
        <time>2012-08-05T18:56:12.127Z</time>
      </trkpt>
      <trkpt lat="47.44057" lon="-0.41779">
        <ele>18</ele>
        <time>2012-08-05T18:56:15.127Z</time>
      </trkpt>
      <trkpt lat="47.44057" lon="-0.41786">
        <ele>18</ele>
        <time>2012-08-05T18:56:18.127Z</time>
      </trkpt>
      <trkpt lat="47.44056" lon="-0.41794">
        <ele>18</ele>
        <time>2012-08-05T18:56:22.127Z</time>
      </trkpt>
      <trkpt lat="47.44055" lon="-0.41802">
        <ele>18</ele>
        <time>2012-08-05T18:56:26.127Z</time>
      </trkpt>
      <trkpt lat="47.44053" lon="-0.4181">
        <ele>18</ele>
        <time>2012-08-05T18:56:30.127Z</time>
      </trkpt>
      <trkpt lat="47.44052" lon="-0.41818">
        <ele>18</ele>
        <time>2012-08-05T18:56:34.127Z</time>
      </trkpt>
      <trkpt lat="47.44052" lon="-0.41826">
        <ele>18</ele>
        <time>2012-08-05T18:56:38.127Z</time>
      </trkpt>
      <trkpt lat="47.44052" lon="-0.41833">
        <ele>18</ele>
        <time>2012-08-05T18:56:42.127Z</time>
      </trkpt>
      <trkpt lat="47.44051" lon="-0.4184">
        <ele>18</ele>
        <time>2012-08-05T18:56:46.127Z</time>
      </trkpt>
      <trkpt lat="47.44051" lon="-0.41847">
        <ele>18</ele>
        <time>2012-08-05T18:56:50.127Z</time>
      </trkpt>
      <trkpt lat="47.4405" lon="-0.41855">
        <ele>18</ele>
        <time>2012-08-05T18:56:54.127Z</time>
      </trkpt>
      <trkpt lat="47.4405" lon="-0.41862">
        <ele>18</ele>
        <time>2012-08-05T18:56:58.127Z</time>
      </trkpt>
      <trkpt lat="47.4405" lon="-0.41869">
        <ele>18</ele>
        <time>2012-08-05T18:57:02.127Z</time>
      </trkpt>
      <trkpt lat="47.4405" lon="-0.41876">
        <ele>18</ele>
        <time>2012-08-05T18:57:06.127Z</time>
      </trkpt>
      <trkpt lat="47.4405" lon="-0.41883">
        <ele>18</ele>
        <time>2012-08-05T18:57:10.127Z</time>
      </trkpt>
      <trkpt lat="47.44051" lon="-0.4189">
        <ele>18</ele>
        <time>2012-08-05T18:57:14.127Z</time>
      </trkpt>
      <trkpt lat="47.44051" lon="-0.41898">
        <ele>18</ele>
        <time>2012-08-05T18:57:18.127Z</time>
      </trkpt>
      <trkpt lat="47.44051" lon="-0.41904">
        <ele>18</ele>
        <time>2012-08-05T18:57:22.127Z</time>
      </trkpt>
      <trkpt lat="47.44052" lon="-0.41912">
        <ele>18</ele>
        <time>2012-08-05T18:57:27.127Z</time>
      </trkpt>
      <trkpt lat="47.44054" lon="-0.41919">
        <ele>18</ele>
        <time>2012-08-05T18:57:31.127Z</time>
      </trkpt>
      <trkpt lat="47.44055" lon="-0.41926">
        <ele>18</ele>
        <time>2012-08-05T18:57:36.127Z</time>
      </trkpt>
      <trkpt lat="47.44058" lon="-0.41931">
        <ele>18</ele>
        <time>2012-08-05T18:57:42.127Z</time>
      </trkpt>
      <trkpt lat="47.44063" lon="-0.41929">
        <ele>18</ele>
        <time>2012-08-05T18:57:47.127Z</time>
      </trkpt>
      <trkpt lat="47.44069" lon="-0.41926">
        <ele>18</ele>
        <time>2012-08-05T18:57:51.127Z</time>
      </trkpt>
      <trkpt lat="47.44073" lon="-0.41925">
        <ele>18</ele>
        <time>2012-08-05T18:57:54.127Z</time>
      </trkpt>
      <trkpt lat="47.44078" lon="-0.41923">
        <ele>18</ele>
        <time>2012-08-05T18:57:57.127Z</time>
      </trkpt>
      <trkpt lat="47.44082" lon="-0.41922">
        <ele>18</ele>
        <time>2012-08-05T18:58:00.127Z</time>
      </trkpt>
      <trkpt lat="47.44087" lon="-0.41921">
        <ele>18</ele>
        <time>2012-08-05T18:58:03.127Z</time>
      </trkpt>
      <trkpt lat="47.44092" lon="-0.41919">
        <ele>18</ele>
        <time>2012-08-05T18:58:06.127Z</time>
      </trkpt>
      <trkpt lat="47.44096" lon="-0.41917">
        <ele>18</ele>
        <time>2012-08-05T18:58:09.127Z</time>
      </trkpt>
      <trkpt lat="47.44101" lon="-0.41915">
        <ele>18</ele>
        <time>2012-08-05T18:58:12.127Z</time>
      </trkpt>
      <trkpt lat="47.44106" lon="-0.41914">
        <ele>18</ele>
        <time>2012-08-05T18:58:15.127Z</time>
      </trkpt>
      <trkpt lat="47.44111" lon="-0.41913">
        <ele>18</ele>
        <time>2012-08-05T18:58:18.127Z</time>
      </trkpt>
      <trkpt lat="47.44116" lon="-0.41911">
        <ele>18</ele>
        <time>2012-08-05T18:58:21.127Z</time>
      </trkpt>
      <trkpt lat="47.44121" lon="-0.41909">
        <ele>18</ele>
        <time>2012-08-05T18:58:24.127Z</time>
      </trkpt>
      <trkpt lat="47.44126" lon="-0.41908">
        <ele>18</ele>
        <time>2012-08-05T18:58:27.127Z</time>
      </trkpt>
      <trkpt lat="47.44131" lon="-0.41908">
        <ele>18</ele>
        <time>2012-08-05T18:58:30.127Z</time>
      </trkpt>
      <trkpt lat="47.44136" lon="-0.41907">
        <ele>18</ele>
        <time>2012-08-05T18:58:33.127Z</time>
      </trkpt>
      <trkpt lat="47.44141" lon="-0.41906">
        <ele>18</ele>
        <time>2012-08-05T18:58:36.127Z</time>
      </trkpt>
      <trkpt lat="47.44146" lon="-0.41905">
        <ele>18</ele>
        <time>2012-08-05T18:58:39.127Z</time>
      </trkpt>
      <trkpt lat="47.4415" lon="-0.41905">
        <ele>18</ele>
        <time>2012-08-05T18:58:42.127Z</time>
      </trkpt>
      <trkpt lat="47.44155" lon="-0.41905">
        <ele>18</ele>
        <time>2012-08-05T18:58:45.127Z</time>
      </trkpt>
      <trkpt lat="47.4416" lon="-0.41904">
        <ele>18</ele>
        <time>2012-08-05T18:58:48.127Z</time>
      </trkpt>
      <trkpt lat="47.44164" lon="-0.41904">
        <ele>18</ele>
        <time>2012-08-05T18:58:51.127Z</time>
      </trkpt>
      <trkpt lat="47.44169" lon="-0.41902">
        <ele>19</ele>
        <time>2012-08-05T18:58:54.127Z</time>
      </trkpt>
      <trkpt lat="47.44174" lon="-0.41901">
        <ele>19</ele>
        <time>2012-08-05T18:58:57.127Z</time>
      </trkpt>
      <trkpt lat="47.4418" lon="-0.41897">
        <ele>19</ele>
        <time>2012-08-05T18:59:00.127Z</time>
      </trkpt>
      <trkpt lat="47.44185" lon="-0.41894">
        <ele>19</ele>
        <time>2012-08-05T18:59:03.127Z</time>
      </trkpt>
      <trkpt lat="47.44191" lon="-0.41893">
        <ele>19</ele>
        <time>2012-08-05T18:59:06.127Z</time>
      </trkpt>
      <trkpt lat="47.44196" lon="-0.41892">
        <ele>19</ele>
        <time>2012-08-05T18:59:09.127Z</time>
      </trkpt>
      <trkpt lat="47.44202" lon="-0.41892">
        <ele>19</ele>
        <time>2012-08-05T18:59:12.127Z</time>
      </trkpt>
      <trkpt lat="47.44207" lon="-0.41892">
        <ele>19</ele>
        <time>2012-08-05T18:59:15.127Z</time>
      </trkpt>
      <trkpt lat="47.44212" lon="-0.41893">
        <ele>19</ele>
        <time>2012-08-05T18:59:18.127Z</time>
      </trkpt>
      <trkpt lat="47.44218" lon="-0.41894">
        <ele>19</ele>
        <time>2012-08-05T18:59:21.127Z</time>
      </trkpt>
      <trkpt lat="47.44223" lon="-0.41896">
        <ele>19</ele>
        <time>2012-08-05T18:59:24.127Z</time>
      </trkpt>
      <trkpt lat="47.44227" lon="-0.41898">
        <ele>19</ele>
        <time>2012-08-05T18:59:27.127Z</time>
      </trkpt>
      <trkpt lat="47.44232" lon="-0.419">
        <ele>20</ele>
        <time>2012-08-05T18:59:31.127Z</time>
      </trkpt>
      <trkpt lat="47.44235" lon="-0.41906">
        <ele>20</ele>
        <time>2012-08-05T18:59:35.127Z</time>
      </trkpt>
      <trkpt lat="47.44239" lon="-0.41912">
        <ele>20</ele>
        <time>2012-08-05T18:59:40.127Z</time>
      </trkpt>
      <trkpt lat="47.44242" lon="-0.41919">
        <ele>20</ele>
        <time>2012-08-05T18:59:45.127Z</time>
      </trkpt>
      <trkpt lat="47.44245" lon="-0.41925">
        <ele>20</ele>
        <time>2012-08-05T18:59:50.127Z</time>
      </trkpt>
      <trkpt lat="47.44247" lon="-0.41931">
        <ele>19</ele>
        <time>2012-08-05T18:59:54.127Z</time>
      </trkpt>
      <trkpt lat="47.44248" lon="-0.41939">
        <ele>19</ele>
        <time>2012-08-05T18:59:58.127Z</time>
      </trkpt>
      <trkpt lat="47.44249" lon="-0.41947">
        <ele>19</ele>
        <time>2012-08-05T19:00:01.127Z</time>
      </trkpt>
      <trkpt lat="47.44249" lon="-0.41955">
        <ele>19</ele>
        <time>2012-08-05T19:00:04.127Z</time>
      </trkpt>
      <trkpt lat="47.44248" lon="-0.41962">
        <ele>19</ele>
        <time>2012-08-05T19:00:07.127Z</time>
      </trkpt>
      <trkpt lat="47.44248" lon="-0.41969">
        <ele>19</ele>
        <time>2012-08-05T19:00:10.127Z</time>
      </trkpt>
      <trkpt lat="47.44248" lon="-0.41977">
        <ele>19</ele>
        <time>2012-08-05T19:00:14.127Z</time>
      </trkpt>
      <trkpt lat="47.44248" lon="-0.41984">
        <ele>19</ele>
        <time>2012-08-05T19:00:18.127Z</time>
      </trkpt>
      <trkpt lat="47.44249" lon="-0.41992">
        <ele>20</ele>
        <time>2012-08-05T19:00:22.127Z</time>
      </trkpt>
      <trkpt lat="47.44248" lon="-0.42001">
        <ele>20</ele>
        <time>2012-08-05T19:00:26.127Z</time>
      </trkpt>
      <trkpt lat="47.44248" lon="-0.42008">
        <ele>20</ele>
        <time>2012-08-05T19:00:29.127Z</time>
      </trkpt>
      <trkpt lat="47.44247" lon="-0.42015">
        <ele>19</ele>
        <time>2012-08-05T19:00:32.127Z</time>
      </trkpt>
      <trkpt lat="47.44246" lon="-0.42023">
        <ele>19</ele>
        <time>2012-08-05T19:00:35.127Z</time>
      </trkpt>
      <trkpt lat="47.44245" lon="-0.42031">
        <ele>19</ele>
        <time>2012-08-05T19:00:38.127Z</time>
      </trkpt>
      <trkpt lat="47.44244" lon="-0.42038">
        <ele>19</ele>
        <time>2012-08-05T19:00:41.127Z</time>
      </trkpt>
      <trkpt lat="47.44242" lon="-0.42046">
        <ele>19</ele>
        <time>2012-08-05T19:00:44.127Z</time>
      </trkpt>
      <trkpt lat="47.4424" lon="-0.42053">
        <ele>19</ele>
        <time>2012-08-05T19:00:47.127Z</time>
      </trkpt>
      <trkpt lat="47.44239" lon="-0.4206">
        <ele>19</ele>
        <time>2012-08-05T19:00:50.127Z</time>
      </trkpt>
      <trkpt lat="47.44238" lon="-0.42067">
        <ele>19</ele>
        <time>2012-08-05T19:00:53.127Z</time>
      </trkpt>
      <trkpt lat="47.44237" lon="-0.42074">
        <ele>19</ele>
        <time>2012-08-05T19:00:56.127Z</time>
      </trkpt>
      <trkpt lat="47.44235" lon="-0.4208">
        <ele>19</ele>
        <time>2012-08-05T19:00:59.127Z</time>
      </trkpt>
      <trkpt lat="47.44234" lon="-0.42088">
        <ele>19</ele>
        <time>2012-08-05T19:01:03.127Z</time>
      </trkpt>
      <trkpt lat="47.44232" lon="-0.42096">
        <ele>19</ele>
        <time>2012-08-05T19:01:07.127Z</time>
      </trkpt>
      <trkpt lat="47.4423" lon="-0.42103">
        <ele>19</ele>
        <time>2012-08-05T19:01:10.127Z</time>
      </trkpt>
      <trkpt lat="47.44228" lon="-0.4211">
        <ele>19</ele>
        <time>2012-08-05T19:01:13.127Z</time>
      </trkpt>
      <trkpt lat="47.44227" lon="-0.42117">
        <ele>19</ele>
        <time>2012-08-05T19:01:16.127Z</time>
      </trkpt>
      <trkpt lat="47.44225" lon="-0.42123">
        <ele>19</ele>
        <time>2012-08-05T19:01:19.127Z</time>
      </trkpt>
      <trkpt lat="47.44224" lon="-0.4213">
        <ele>19</ele>
        <time>2012-08-05T19:01:22.127Z</time>
      </trkpt>
      <trkpt lat="47.44224" lon="-0.42137">
        <ele>19</ele>
        <time>2012-08-05T19:01:25.127Z</time>
      </trkpt>
      <trkpt lat="47.44222" lon="-0.42145">
        <ele>19</ele>
        <time>2012-08-05T19:01:29.127Z</time>
      </trkpt>
      <trkpt lat="47.44222" lon="-0.42154">
        <ele>19</ele>
        <time>2012-08-05T19:01:33.127Z</time>
      </trkpt>
      <trkpt lat="47.44221" lon="-0.42162">
        <ele>19</ele>
        <time>2012-08-05T19:01:37.127Z</time>
      </trkpt>
      <trkpt lat="47.4422" lon="-0.42171">
        <ele>19</ele>
        <time>2012-08-05T19:01:41.127Z</time>
      </trkpt>
      <trkpt lat="47.44218" lon="-0.42179">
        <ele>19</ele>
        <time>2012-08-05T19:01:45.127Z</time>
      </trkpt>
      <trkpt lat="47.44218" lon="-0.42187">
        <ele>19</ele>
        <time>2012-08-05T19:01:49.127Z</time>
      </trkpt>
      <trkpt lat="47.44217" lon="-0.42195">
        <ele>19</ele>
        <time>2012-08-05T19:01:53.127Z</time>
      </trkpt>
      <trkpt lat="47.44217" lon="-0.42203">
        <ele>19</ele>
        <time>2012-08-05T19:01:57.127Z</time>
      </trkpt>
      <trkpt lat="47.44216" lon="-0.42211">
        <ele>19</ele>
        <time>2012-08-05T19:02:01.127Z</time>
      </trkpt>
      <trkpt lat="47.44216" lon="-0.4222">
        <ele>19</ele>
        <time>2012-08-05T19:02:05.127Z</time>
      </trkpt>
      <trkpt lat="47.44215" lon="-0.42228">
        <ele>19</ele>
        <time>2012-08-05T19:02:09.127Z</time>
      </trkpt>
      <trkpt lat="47.44214" lon="-0.42236">
        <ele>19</ele>
        <time>2012-08-05T19:02:13.127Z</time>
      </trkpt>
      <trkpt lat="47.44214" lon="-0.42244">
        <ele>19</ele>
        <time>2012-08-05T19:02:17.127Z</time>
      </trkpt>
      <trkpt lat="47.44213" lon="-0.42252">
        <ele>19</ele>
        <time>2012-08-05T19:02:21.127Z</time>
      </trkpt>
      <trkpt lat="47.44213" lon="-0.42259">
        <ele>19</ele>
        <time>2012-08-05T19:02:24.127Z</time>
      </trkpt>
      <trkpt lat="47.44213" lon="-0.42266">
        <ele>19</ele>
        <time>2012-08-05T19:02:27.127Z</time>
      </trkpt>
      <trkpt lat="47.44212" lon="-0.42272">
        <ele>19</ele>
        <time>2012-08-05T19:02:30.127Z</time>
      </trkpt>
      <trkpt lat="47.44212" lon="-0.42279">
        <ele>19</ele>
        <time>2012-08-05T19:02:33.127Z</time>
      </trkpt>
      <trkpt lat="47.44212" lon="-0.42286">
        <ele>19</ele>
        <time>2012-08-05T19:02:36.127Z</time>
      </trkpt>
      <trkpt lat="47.44212" lon="-0.42292">
        <ele>19</ele>
        <time>2012-08-05T19:02:39.127Z</time>
      </trkpt>
      <trkpt lat="47.44211" lon="-0.42301">
        <ele>19</ele>
        <time>2012-08-05T19:02:43.127Z</time>
      </trkpt>
      <trkpt lat="47.44211" lon="-0.42309">
        <ele>19</ele>
        <time>2012-08-05T19:02:47.127Z</time>
      </trkpt>
      <trkpt lat="47.44212" lon="-0.42317">
        <ele>20</ele>
        <time>2012-08-05T19:02:51.127Z</time>
      </trkpt>
      <trkpt lat="47.44211" lon="-0.42326">
        <ele>20</ele>
        <time>2012-08-05T19:02:55.127Z</time>
      </trkpt>
      <trkpt lat="47.44211" lon="-0.42334">
        <ele>20</ele>
        <time>2012-08-05T19:02:59.127Z</time>
      </trkpt>
      <trkpt lat="47.44211" lon="-0.42342">
        <ele>20</ele>
        <time>2012-08-05T19:03:03.127Z</time>
      </trkpt>
      <trkpt lat="47.44211" lon="-0.42351">
        <ele>20</ele>
        <time>2012-08-05T19:03:07.127Z</time>
      </trkpt>
      <trkpt lat="47.44211" lon="-0.42359">
        <ele>20</ele>
        <time>2012-08-05T19:03:11.127Z</time>
      </trkpt>
      <trkpt lat="47.44211" lon="-0.42367">
        <ele>20</ele>
        <time>2012-08-05T19:03:15.127Z</time>
      </trkpt>
      <trkpt lat="47.44211" lon="-0.42375">
        <ele>21</ele>
        <time>2012-08-05T19:03:19.127Z</time>
      </trkpt>
      <trkpt lat="47.4421" lon="-0.42384">
        <ele>21</ele>
        <time>2012-08-05T19:03:23.127Z</time>
      </trkpt>
      <trkpt lat="47.4421" lon="-0.42392">
        <ele>21</ele>
        <time>2012-08-05T19:03:27.127Z</time>
      </trkpt>
      <trkpt lat="47.44211" lon="-0.424">
        <ele>21</ele>
        <time>2012-08-05T19:03:31.127Z</time>
      </trkpt>
      <trkpt lat="47.44211" lon="-0.42409">
        <ele>21</ele>
        <time>2012-08-05T19:03:35.127Z</time>
      </trkpt>
      <trkpt lat="47.44212" lon="-0.42417">
        <ele>21</ele>
        <time>2012-08-05T19:03:39.127Z</time>
      </trkpt>
      <trkpt lat="47.44213" lon="-0.42425">
        <ele>21</ele>
        <time>2012-08-05T19:03:43.127Z</time>
      </trkpt>
      <trkpt lat="47.44214" lon="-0.42432">
        <ele>21</ele>
        <time>2012-08-05T19:03:47.127Z</time>
      </trkpt>
      <trkpt lat="47.44215" lon="-0.4244">
        <ele>22</ele>
        <time>2012-08-05T19:03:51.127Z</time>
      </trkpt>
      <trkpt lat="47.44215" lon="-0.42448">
        <ele>22</ele>
        <time>2012-08-05T19:03:55.127Z</time>
      </trkpt>
      <trkpt lat="47.44215" lon="-0.42456">
        <ele>22</ele>
        <time>2012-08-05T19:03:59.127Z</time>
      </trkpt>
      <trkpt lat="47.44215" lon="-0.42464">
        <ele>22</ele>
        <time>2012-08-05T19:04:03.127Z</time>
      </trkpt>
      <trkpt lat="47.44215" lon="-0.42472">
        <ele>22</ele>
        <time>2012-08-05T19:04:07.127Z</time>
      </trkpt>
      <trkpt lat="47.44216" lon="-0.42479">
        <ele>22</ele>
        <time>2012-08-05T19:04:11.127Z</time>
      </trkpt>
      <trkpt lat="47.44216" lon="-0.42487">
        <ele>22</ele>
        <time>2012-08-05T19:04:15.127Z</time>
      </trkpt>
      <trkpt lat="47.44216" lon="-0.42495">
        <ele>22</ele>
        <time>2012-08-05T19:04:19.127Z</time>
      </trkpt>
      <trkpt lat="47.44216" lon="-0.42503">
        <ele>22</ele>
        <time>2012-08-05T19:04:23.127Z</time>
      </trkpt>
      <trkpt lat="47.44217" lon="-0.42511">
        <ele>22</ele>
        <time>2012-08-05T19:04:27.127Z</time>
      </trkpt>
      <trkpt lat="47.44217" lon="-0.42518">
        <ele>22</ele>
        <time>2012-08-05T19:04:31.127Z</time>
      </trkpt>
      <trkpt lat="47.44217" lon="-0.42527">
        <ele>22</ele>
        <time>2012-08-05T19:04:35.127Z</time>
      </trkpt>
      <trkpt lat="47.44217" lon="-0.42535">
        <ele>22</ele>
        <time>2012-08-05T19:04:39.127Z</time>
      </trkpt>
      <trkpt lat="47.44217" lon="-0.42543">
        <ele>22</ele>
        <time>2012-08-05T19:04:43.127Z</time>
      </trkpt>
      <trkpt lat="47.44216" lon="-0.42552">
        <ele>22</ele>
        <time>2012-08-05T19:04:47.127Z</time>
      </trkpt>
      <trkpt lat="47.44215" lon="-0.4256">
        <ele>22</ele>
        <time>2012-08-05T19:04:51.127Z</time>
      </trkpt>
      <trkpt lat="47.44215" lon="-0.42568">
        <ele>22</ele>
        <time>2012-08-05T19:04:55.127Z</time>
      </trkpt>
      <trkpt lat="47.44216" lon="-0.42577">
        <ele>22</ele>
        <time>2012-08-05T19:04:59.127Z</time>
      </trkpt>
      <trkpt lat="47.44216" lon="-0.42585">
        <ele>22</ele>
        <time>2012-08-05T19:05:03.127Z</time>
      </trkpt>
      <trkpt lat="47.44216" lon="-0.42593">
        <ele>22</ele>
        <time>2012-08-05T19:05:07.127Z</time>
      </trkpt>
      <trkpt lat="47.44215" lon="-0.42601">
        <ele>22</ele>
        <time>2012-08-05T19:05:11.127Z</time>
      </trkpt>
      <trkpt lat="47.44215" lon="-0.42609">
        <ele>22</ele>
        <time>2012-08-05T19:05:15.127Z</time>
      </trkpt>
      <trkpt lat="47.44214" lon="-0.42617">
        <ele>22</ele>
        <time>2012-08-05T19:05:19.127Z</time>
      </trkpt>
      <trkpt lat="47.44214" lon="-0.42626">
        <ele>22</ele>
        <time>2012-08-05T19:05:23.127Z</time>
      </trkpt>
      <trkpt lat="47.44213" lon="-0.42634">
        <ele>22</ele>
        <time>2012-08-05T19:05:27.127Z</time>
      </trkpt>
      <trkpt lat="47.44212" lon="-0.42642">
        <ele>21</ele>
        <time>2012-08-05T19:05:31.127Z</time>
      </trkpt>
      <trkpt lat="47.44212" lon="-0.4265">
        <ele>21</ele>
        <time>2012-08-05T19:05:35.127Z</time>
      </trkpt>
      <trkpt lat="47.44211" lon="-0.42657">
        <ele>21</ele>
        <time>2012-08-05T19:05:39.127Z</time>
      </trkpt>
      <trkpt lat="47.44211" lon="-0.42664">
        <ele>21</ele>
        <time>2012-08-05T19:05:43.127Z</time>
      </trkpt>
      <trkpt lat="47.4421" lon="-0.42672">
        <ele>22</ele>
        <time>2012-08-05T19:05:47.127Z</time>
      </trkpt>
      <trkpt lat="47.4421" lon="-0.42679">
        <ele>22</ele>
        <time>2012-08-05T19:05:51.127Z</time>
      </trkpt>
      <trkpt lat="47.44209" lon="-0.42686">
        <ele>22</ele>
        <time>2012-08-05T19:05:55.127Z</time>
      </trkpt>
      <trkpt lat="47.44208" lon="-0.42692">
        <ele>22</ele>
        <time>2012-08-05T19:05:59.127Z</time>
      </trkpt>
      <trkpt lat="47.44207" lon="-0.42699">
        <ele>22</ele>
        <time>2012-08-05T19:06:03.127Z</time>
      </trkpt>
      <trkpt lat="47.44206" lon="-0.42706">
        <ele>22</ele>
        <time>2012-08-05T19:06:13.127Z</time>
      </trkpt>
      <trkpt lat="47.44204" lon="-0.42713">
        <ele>22</ele>
        <time>2012-08-05T19:06:18.127Z</time>
      </trkpt>
      <trkpt lat="47.44204" lon="-0.42719">
        <ele>22</ele>
        <time>2012-08-05T19:06:22.127Z</time>
      </trkpt>
      <trkpt lat="47.44203" lon="-0.42726">
        <ele>22</ele>
        <time>2012-08-05T19:06:26.127Z</time>
      </trkpt>
      <trkpt lat="47.44202" lon="-0.42733">
        <ele>22</ele>
        <time>2012-08-05T19:06:30.127Z</time>
      </trkpt>
      <trkpt lat="47.44201" lon="-0.4274">
        <ele>22</ele>
        <time>2012-08-05T19:06:34.127Z</time>
      </trkpt>
      <trkpt lat="47.44199" lon="-0.42748">
        <ele>22</ele>
        <time>2012-08-05T19:06:39.127Z</time>
      </trkpt>
      <trkpt lat="47.44198" lon="-0.42754">
        <ele>22</ele>
        <time>2012-08-05T19:06:43.127Z</time>
      </trkpt>
      <trkpt lat="47.44196" lon="-0.42761">
        <ele>22</ele>
        <time>2012-08-05T19:06:47.127Z</time>
      </trkpt>
      <trkpt lat="47.44194" lon="-0.42766">
        <ele>22</ele>
        <time>2012-08-05T19:06:51.127Z</time>
      </trkpt>
      <trkpt lat="47.4419" lon="-0.42772">
        <ele>22</ele>
        <time>2012-08-05T19:06:56.127Z</time>
      </trkpt>
      <trkpt lat="47.44186" lon="-0.42778">
        <ele>21</ele>
        <time>2012-08-05T19:07:01.127Z</time>
      </trkpt>
      <trkpt lat="47.44183" lon="-0.42782">
        <ele>21</ele>
        <time>2012-08-05T19:07:06.127Z</time>
      </trkpt>
      <trkpt lat="47.44179" lon="-0.42787">
        <ele>21</ele>
        <time>2012-08-05T19:07:12.127Z</time>
      </trkpt>
      <trkpt lat="47.44175" lon="-0.42791">
        <ele>21</ele>
        <time>2012-08-05T19:07:19.127Z</time>
      </trkpt>
      <trkpt lat="47.44171" lon="-0.42796">
        <ele>21</ele>
        <time>2012-08-05T19:07:26.127Z</time>
      </trkpt>
      <trkpt lat="47.44168" lon="-0.42801">
        <ele>21</ele>
        <time>2012-08-05T19:07:33.127Z</time>
      </trkpt>
      <trkpt lat="47.44165" lon="-0.42807">
        <ele>20</ele>
        <time>2012-08-05T19:07:39.127Z</time>
      </trkpt>
      <trkpt lat="47.44163" lon="-0.42814">
        <ele>20</ele>
        <time>2012-08-05T19:07:45.127Z</time>
      </trkpt>
      <trkpt lat="47.44161" lon="-0.42822">
        <ele>20</ele>
        <time>2012-08-05T19:07:51.127Z</time>
      </trkpt>
      <trkpt lat="47.4416" lon="-0.42829">
        <ele>20</ele>
        <time>2012-08-05T19:07:57.127Z</time>
      </trkpt>
      <trkpt lat="47.44158" lon="-0.42835">
        <ele>20</ele>
        <time>2012-08-05T19:08:02.127Z</time>
      </trkpt>
      <trkpt lat="47.44157" lon="-0.42842">
        <ele>20</ele>
        <time>2012-08-05T19:08:07.127Z</time>
      </trkpt>
      <trkpt lat="47.44159" lon="-0.42849">
        <ele>20</ele>
        <time>2012-08-05T19:08:13.127Z</time>
      </trkpt>
      <trkpt lat="47.44162" lon="-0.42856">
        <ele>19</ele>
        <time>2012-08-05T19:08:19.127Z</time>
      </trkpt>
      <trkpt lat="47.44161" lon="-0.42862">
        <ele>19</ele>
        <time>2012-08-05T19:08:24.127Z</time>
      </trkpt>
      <trkpt lat="47.4416" lon="-0.42869">
        <ele>19</ele>
        <time>2012-08-05T19:08:29.127Z</time>
      </trkpt>
      <trkpt lat="47.44156" lon="-0.42874">
        <ele>19</ele>
        <time>2012-08-05T19:08:53.127Z</time>
      </trkpt>
      <trkpt lat="47.44156" lon="-0.42874">
        <ele>19</ele>
        <time>2012-08-05T19:08:53.127Z</time>
      </trkpt>
      <trkpt lat="47.44156" lon="-0.42874">
        <ele>19</ele>
        <time>2012-08-05T19:08:56.127Z</time>
      </trkpt>
      <trkpt lat="47.44179" lon="-0.42869">
        <ele>21</ele>
        <time>2012-08-05T19:08:59.127Z</time>
      </trkpt>
      <trkpt lat="47.44182" lon="-0.42874">
        <ele>21</ele>
        <time>2012-08-05T19:09:00.127Z</time>
      </trkpt>
      <trkpt lat="47.44177" lon="-0.42883">
        <ele>21</ele>
        <time>2012-08-05T19:09:02.127Z</time>
      </trkpt>
      <trkpt lat="47.44174" lon="-0.4289">
        <ele>21</ele>
        <time>2012-08-05T19:09:05.127Z</time>
      </trkpt>
      <trkpt lat="47.44169" lon="-0.42891">
        <ele>20</ele>
        <time>2012-08-05T19:09:08.127Z</time>
      </trkpt>
      <trkpt lat="47.44164" lon="-0.42886">
        <ele>19</ele>
        <time>2012-08-05T19:09:09.127Z</time>
      </trkpt>
      <trkpt lat="47.44158" lon="-0.42882">
        <ele>19</ele>
        <time>2012-08-05T19:09:11.127Z</time>
      </trkpt>
      <trkpt lat="47.44155" lon="-0.42888">
        <ele>19</ele>
        <time>2012-08-05T19:09:16.127Z</time>
      </trkpt>
      <trkpt lat="47.44156" lon="-0.42896">
        <ele>19</ele>
        <time>2012-08-05T19:09:20.127Z</time>
      </trkpt>
      <trkpt lat="47.44156" lon="-0.42904">
        <ele>19</ele>
        <time>2012-08-05T19:09:24.127Z</time>
      </trkpt>
      <trkpt lat="47.44157" lon="-0.4291">
        <ele>19</ele>
        <time>2012-08-05T19:09:27.127Z</time>
      </trkpt>
      <trkpt lat="47.44157" lon="-0.42917">
        <ele>19</ele>
        <time>2012-08-05T19:09:30.127Z</time>
      </trkpt>
      <trkpt lat="47.44158" lon="-0.42925">
        <ele>19</ele>
        <time>2012-08-05T19:09:34.127Z</time>
      </trkpt>
      <trkpt lat="47.44158" lon="-0.42934">
        <ele>18</ele>
        <time>2012-08-05T19:09:38.127Z</time>
      </trkpt>
      <trkpt lat="47.44159" lon="-0.42942">
        <ele>18</ele>
        <time>2012-08-05T19:09:42.127Z</time>
      </trkpt>
      <trkpt lat="47.4416" lon="-0.4295">
        <ele>18</ele>
        <time>2012-08-05T19:09:46.127Z</time>
      </trkpt>
      <trkpt lat="47.4416" lon="-0.42958">
        <ele>18</ele>
        <time>2012-08-05T19:09:50.127Z</time>
      </trkpt>
      <trkpt lat="47.44162" lon="-0.42965">
        <ele>18</ele>
        <time>2012-08-05T19:09:54.127Z</time>
      </trkpt>
      <trkpt lat="47.44163" lon="-0.42972">
        <ele>18</ele>
        <time>2012-08-05T19:09:58.127Z</time>
      </trkpt>
      <trkpt lat="47.44164" lon="-0.42979">
        <ele>18</ele>
        <time>2012-08-05T19:10:02.127Z</time>
      </trkpt>
      <trkpt lat="47.44165" lon="-0.42986">
        <ele>17</ele>
        <time>2012-08-05T19:10:06.127Z</time>
      </trkpt>
      <trkpt lat="47.44166" lon="-0.42994">
        <ele>17</ele>
        <time>2012-08-05T19:10:10.127Z</time>
      </trkpt>
      <trkpt lat="47.44167" lon="-0.43001">
        <ele>17</ele>
        <time>2012-08-05T19:10:14.127Z</time>
      </trkpt>
      <trkpt lat="47.44168" lon="-0.43009">
        <ele>18</ele>
        <time>2012-08-05T19:10:18.127Z</time>
      </trkpt>
      <trkpt lat="47.44168" lon="-0.43017">
        <ele>18</ele>
        <time>2012-08-05T19:10:22.127Z</time>
      </trkpt>
      <trkpt lat="47.44168" lon="-0.43025">
        <ele>18</ele>
        <time>2012-08-05T19:10:26.127Z</time>
      </trkpt>
      <trkpt lat="47.44168" lon="-0.43033">
        <ele>18</ele>
        <time>2012-08-05T19:10:30.127Z</time>
      </trkpt>
      <trkpt lat="47.44169" lon="-0.43041">
        <ele>19</ele>
        <time>2012-08-05T19:10:34.127Z</time>
      </trkpt>
      <trkpt lat="47.44169" lon="-0.43049">
        <ele>19</ele>
        <time>2012-08-05T19:10:38.127Z</time>
      </trkpt>
      <trkpt lat="47.4417" lon="-0.43057">
        <ele>19</ele>
        <time>2012-08-05T19:10:42.127Z</time>
      </trkpt>
      <trkpt lat="47.44171" lon="-0.43065">
        <ele>19</ele>
        <time>2012-08-05T19:10:46.127Z</time>
      </trkpt>
      <trkpt lat="47.44171" lon="-0.43073">
        <ele>18</ele>
        <time>2012-08-05T19:10:50.127Z</time>
      </trkpt>
      <trkpt lat="47.44172" lon="-0.43081">
        <ele>18</ele>
        <time>2012-08-05T19:10:54.127Z</time>
      </trkpt>
      <trkpt lat="47.44172" lon="-0.43089">
        <ele>18</ele>
        <time>2012-08-05T19:10:58.127Z</time>
      </trkpt>
      <trkpt lat="47.44173" lon="-0.43096">
        <ele>18</ele>
        <time>2012-08-05T19:11:02.127Z</time>
      </trkpt>
      <trkpt lat="47.44173" lon="-0.43104">
        <ele>19</ele>
        <time>2012-08-05T19:11:06.127Z</time>
      </trkpt>
      <trkpt lat="47.44175" lon="-0.43112">
        <ele>19</ele>
        <time>2012-08-05T19:11:10.127Z</time>
      </trkpt>
      <trkpt lat="47.44177" lon="-0.4312">
        <ele>19</ele>
        <time>2012-08-05T19:11:14.127Z</time>
      </trkpt>
      <trkpt lat="47.4418" lon="-0.43127">
        <ele>19</ele>
        <time>2012-08-05T19:11:18.127Z</time>
      </trkpt>
      <trkpt lat="47.44183" lon="-0.43134">
        <ele>19</ele>
        <time>2012-08-05T19:11:22.127Z</time>
      </trkpt>
      <trkpt lat="47.44186" lon="-0.4314">
        <ele>19</ele>
        <time>2012-08-05T19:11:26.127Z</time>
      </trkpt>
      <trkpt lat="47.44188" lon="-0.43146">
        <ele>19</ele>
        <time>2012-08-05T19:11:30.127Z</time>
      </trkpt>
      <trkpt lat="47.44191" lon="-0.43152">
        <ele>19</ele>
        <time>2012-08-05T19:11:34.127Z</time>
      </trkpt>
      <trkpt lat="47.44194" lon="-0.43158">
        <ele>19</ele>
        <time>2012-08-05T19:11:38.127Z</time>
      </trkpt>
      <trkpt lat="47.44198" lon="-0.43164">
        <ele>19</ele>
        <time>2012-08-05T19:11:42.127Z</time>
      </trkpt>
      <trkpt lat="47.44201" lon="-0.43169">
        <ele>19</ele>
        <time>2012-08-05T19:11:46.127Z</time>
      </trkpt>
      <trkpt lat="47.44204" lon="-0.43174">
        <ele>19</ele>
        <time>2012-08-05T19:11:50.127Z</time>
      </trkpt>
      <trkpt lat="47.44208" lon="-0.43179">
        <ele>19</ele>
        <time>2012-08-05T19:11:54.127Z</time>
      </trkpt>
      <trkpt lat="47.44212" lon="-0.43183">
        <ele>19</ele>
        <time>2012-08-05T19:11:58.127Z</time>
      </trkpt>
      <trkpt lat="47.44215" lon="-0.43188">
        <ele>19</ele>
        <time>2012-08-05T19:12:03.127Z</time>
      </trkpt>
      <trkpt lat="47.4422" lon="-0.43192">
        <ele>19</ele>
        <time>2012-08-05T19:12:08.127Z</time>
      </trkpt>
      <trkpt lat="47.44224" lon="-0.43194">
        <ele>19</ele>
        <time>2012-08-05T19:12:13.127Z</time>
      </trkpt>
      <trkpt lat="47.44225" lon="-0.43201">
        <ele>19</ele>
        <time>2012-08-05T19:12:21.127Z</time>
      </trkpt>
      <trkpt lat="47.44224" lon="-0.43207">
        <ele>19</ele>
        <time>2012-08-05T19:12:29.127Z</time>
      </trkpt>
      <trkpt lat="47.44219" lon="-0.43207">
        <ele>19</ele>
        <time>2012-08-05T19:12:39.127Z</time>
      </trkpt>
      <trkpt lat="47.44214" lon="-0.43204">
        <ele>19</ele>
        <time>2012-08-05T19:12:44.127Z</time>
      </trkpt>
      <trkpt lat="47.4421" lon="-0.43201">
        <ele>19</ele>
        <time>2012-08-05T19:12:48.127Z</time>
      </trkpt>
      <trkpt lat="47.44205" lon="-0.43197">
        <ele>19</ele>
        <time>2012-08-05T19:12:51.127Z</time>
      </trkpt>
      <trkpt lat="47.44201" lon="-0.43191">
        <ele>19</ele>
        <time>2012-08-05T19:12:54.127Z</time>
      </trkpt>
      <trkpt lat="47.44196" lon="-0.43187">
        <ele>18</ele>
        <time>2012-08-05T19:12:57.127Z</time>
      </trkpt>
      <trkpt lat="47.44192" lon="-0.43184">
        <ele>18</ele>
        <time>2012-08-05T19:13:00.127Z</time>
      </trkpt>
      <trkpt lat="47.44187" lon="-0.43182">
        <ele>18</ele>
        <time>2012-08-05T19:13:03.127Z</time>
      </trkpt>
      <trkpt lat="47.44182" lon="-0.43181">
        <ele>18</ele>
        <time>2012-08-05T19:13:06.127Z</time>
      </trkpt>
      <trkpt lat="47.44178" lon="-0.4318">
        <ele>18</ele>
        <time>2012-08-05T19:13:09.127Z</time>
      </trkpt>
      <trkpt lat="47.44173" lon="-0.43179">
        <ele>18</ele>
        <time>2012-08-05T19:13:12.127Z</time>
      </trkpt>
      <trkpt lat="47.44167" lon="-0.43178">
        <ele>18</ele>
        <time>2012-08-05T19:13:16.127Z</time>
      </trkpt>
      <trkpt lat="47.44162" lon="-0.43177">
        <ele>17</ele>
        <time>2012-08-05T19:13:19.127Z</time>
      </trkpt>
      <trkpt lat="47.44158" lon="-0.43174">
        <ele>17</ele>
        <time>2012-08-05T19:13:21.127Z</time>
      </trkpt>
      <trkpt lat="47.44154" lon="-0.4317">
        <ele>17</ele>
        <time>2012-08-05T19:13:24.127Z</time>
      </trkpt>
      <trkpt lat="47.44149" lon="-0.43165">
        <ele>17</ele>
        <time>2012-08-05T19:13:27.127Z</time>
      </trkpt>
      <trkpt lat="47.44146" lon="-0.4316">
        <ele>17</ele>
        <time>2012-08-05T19:13:29.127Z</time>
      </trkpt>
      <trkpt lat="47.44142" lon="-0.43154">
        <ele>17</ele>
        <time>2012-08-05T19:13:31.127Z</time>
      </trkpt>
      <trkpt lat="47.44139" lon="-0.43149">
        <ele>17</ele>
        <time>2012-08-05T19:13:33.127Z</time>
      </trkpt>
      <trkpt lat="47.44135" lon="-0.43143">
        <ele>17</ele>
        <time>2012-08-05T19:13:35.127Z</time>
      </trkpt>
      <trkpt lat="47.44132" lon="-0.43138">
        <ele>17</ele>
        <time>2012-08-05T19:13:37.127Z</time>
      </trkpt>
      <trkpt lat="47.44128" lon="-0.43134">
        <ele>17</ele>
        <time>2012-08-05T19:13:39.127Z</time>
      </trkpt>
      <trkpt lat="47.44123" lon="-0.43128">
        <ele>17</ele>
        <time>2012-08-05T19:13:42.127Z</time>
      </trkpt>
      <trkpt lat="47.44118" lon="-0.43124">
        <ele>17</ele>
        <time>2012-08-05T19:13:45.127Z</time>
      </trkpt>
      <trkpt lat="47.44115" lon="-0.43119">
        <ele>17</ele>
        <time>2012-08-05T19:13:48.127Z</time>
      </trkpt>
      <trkpt lat="47.4411" lon="-0.43113">
        <ele>17</ele>
        <time>2012-08-05T19:13:52.127Z</time>
      </trkpt>
      <trkpt lat="47.44106" lon="-0.43106">
        <ele>17</ele>
        <time>2012-08-05T19:13:56.127Z</time>
      </trkpt>
      <trkpt lat="47.44103" lon="-0.431">
        <ele>17</ele>
        <time>2012-08-05T19:14:00.127Z</time>
      </trkpt>
      <trkpt lat="47.441" lon="-0.43094">
        <ele>17</ele>
        <time>2012-08-05T19:14:04.127Z</time>
      </trkpt>
      <trkpt lat="47.44098" lon="-0.43087">
        <ele>17</ele>
        <time>2012-08-05T19:14:08.127Z</time>
      </trkpt>
      <trkpt lat="47.44095" lon="-0.43081">
        <ele>17</ele>
        <time>2012-08-05T19:14:12.127Z</time>
      </trkpt>
      <trkpt lat="47.44091" lon="-0.43075">
        <ele>17</ele>
        <time>2012-08-05T19:14:16.127Z</time>
      </trkpt>
      <trkpt lat="47.44088" lon="-0.4307">
        <ele>17</ele>
        <time>2012-08-05T19:14:20.127Z</time>
      </trkpt>
      <trkpt lat="47.44083" lon="-0.43072">
        <ele>17</ele>
        <time>2012-08-05T19:14:27.127Z</time>
      </trkpt>
      <trkpt lat="47.44081" lon="-0.43081">
        <ele>17</ele>
        <time>2012-08-05T19:14:32.127Z</time>
      </trkpt>
      <trkpt lat="47.4408" lon="-0.43087">
        <ele>17</ele>
        <time>2012-08-05T19:14:35.127Z</time>
      </trkpt>
      <trkpt lat="47.44081" lon="-0.43094">
        <ele>17</ele>
        <time>2012-08-05T19:14:38.127Z</time>
      </trkpt>
      <trkpt lat="47.44082" lon="-0.43102">
        <ele>16</ele>
        <time>2012-08-05T19:14:42.127Z</time>
      </trkpt>
      <trkpt lat="47.44083" lon="-0.4311">
        <ele>16</ele>
        <time>2012-08-05T19:14:46.127Z</time>
      </trkpt>
      <trkpt lat="47.44082" lon="-0.43117">
        <ele>16</ele>
        <time>2012-08-05T19:14:49.127Z</time>
      </trkpt>
      <trkpt lat="47.44082" lon="-0.43124">
        <ele>16</ele>
        <time>2012-08-05T19:14:52.127Z</time>
      </trkpt>
      <trkpt lat="47.44082" lon="-0.43132">
        <ele>16</ele>
        <time>2012-08-05T19:14:56.127Z</time>
      </trkpt>
      <trkpt lat="47.44082" lon="-0.4314">
        <ele>16</ele>
        <time>2012-08-05T19:15:00.127Z</time>
      </trkpt>
      <trkpt lat="47.44084" lon="-0.43146">
        <ele>16</ele>
        <time>2012-08-05T19:15:10.127Z</time>
      </trkpt>
      <trkpt lat="47.44086" lon="-0.43152">
        <ele>16</ele>
        <time>2012-08-05T19:15:24.127Z</time>
      </trkpt>
      <trkpt lat="47.4409" lon="-0.43148">
        <ele>16</ele>
        <time>2012-08-05T19:15:38.127Z</time>
      </trkpt>
      <trkpt lat="47.4409" lon="-0.43141">
        <ele>16</ele>
        <time>2012-08-05T19:15:57.127Z</time>
      </trkpt>
      <trkpt lat="47.44088" lon="-0.43135">
        <ele>16</ele>
        <time>2012-08-05T19:16:20.127Z</time>
      </trkpt>
      <trkpt lat="47.44092" lon="-0.43134">
        <ele>16</ele>
        <time>2012-08-05T19:16:39.127Z</time>
      </trkpt>
      <trkpt lat="47.44092" lon="-0.43127">
        <ele>16</ele>
        <time>2012-08-05T19:17:50.127Z</time>
      </trkpt>
      <trkpt lat="47.44093" lon="-0.43134">
        <ele>16</ele>
        <time>2012-08-05T19:18:13.127Z</time>
      </trkpt>
      <trkpt lat="47.44092" lon="-0.43141">
        <ele>16</ele>
        <time>2012-08-05T19:18:23.127Z</time>
      </trkpt>
      <trkpt lat="47.44096" lon="-0.43144">
        <ele>16</ele>
        <time>2012-08-05T19:18:48.127Z</time>
      </trkpt>
      <trkpt lat="47.441" lon="-0.43147">
        <ele>16</ele>
        <time>2012-08-05T19:18:57.127Z</time>
      </trkpt>
      <trkpt lat="47.44104" lon="-0.43149">
        <ele>16</ele>
        <time>2012-08-05T19:19:01.127Z</time>
      </trkpt>
      <trkpt lat="47.4411" lon="-0.43152">
        <ele>16</ele>
        <time>2012-08-05T19:19:04.127Z</time>
      </trkpt>
      <trkpt lat="47.44114" lon="-0.43155">
        <ele>16</ele>
        <time>2012-08-05T19:19:06.127Z</time>
      </trkpt>
      <trkpt lat="47.44119" lon="-0.43158">
        <ele>16</ele>
        <time>2012-08-05T19:19:08.127Z</time>
      </trkpt>
      <trkpt lat="47.44123" lon="-0.43161">
        <ele>16</ele>
        <time>2012-08-05T19:19:10.127Z</time>
      </trkpt>
      <trkpt lat="47.44127" lon="-0.43166">
        <ele>16</ele>
        <time>2012-08-05T19:19:12.127Z</time>
      </trkpt>
      <trkpt lat="47.44131" lon="-0.4317">
        <ele>16</ele>
        <time>2012-08-05T19:19:14.127Z</time>
      </trkpt>
      <trkpt lat="47.44135" lon="-0.43174">
        <ele>16</ele>
        <time>2012-08-05T19:19:16.127Z</time>
      </trkpt>
      <trkpt lat="47.44138" lon="-0.43178">
        <ele>16</ele>
        <time>2012-08-05T19:19:18.127Z</time>
      </trkpt>
      <trkpt lat="47.44142" lon="-0.43183">
        <ele>16</ele>
        <time>2012-08-05T19:19:21.127Z</time>
      </trkpt>
      <trkpt lat="47.44144" lon="-0.4319">
        <ele>16</ele>
        <time>2012-08-05T19:19:24.127Z</time>
      </trkpt>
      <trkpt lat="47.44145" lon="-0.43197">
        <ele>16</ele>
        <time>2012-08-05T19:19:28.127Z</time>
      </trkpt>
      <trkpt lat="47.44144" lon="-0.43205">
        <ele>16</ele>
        <time>2012-08-05T19:19:32.127Z</time>
      </trkpt>
      <trkpt lat="47.44143" lon="-0.43212">
        <ele>16</ele>
        <time>2012-08-05T19:19:36.127Z</time>
      </trkpt>
      <trkpt lat="47.44142" lon="-0.43219">
        <ele>16</ele>
        <time>2012-08-05T19:19:40.127Z</time>
      </trkpt>
      <trkpt lat="47.4414" lon="-0.43226">
        <ele>16</ele>
        <time>2012-08-05T19:19:44.127Z</time>
      </trkpt>
      <trkpt lat="47.44139" lon="-0.43232">
        <ele>16</ele>
        <time>2012-08-05T19:19:48.127Z</time>
      </trkpt>
      <trkpt lat="47.44138" lon="-0.43239">
        <ele>16</ele>
        <time>2012-08-05T19:19:52.127Z</time>
      </trkpt>
      <trkpt lat="47.44138" lon="-0.43246">
        <ele>16</ele>
        <time>2012-08-05T19:19:56.127Z</time>
      </trkpt>
      <trkpt lat="47.44137" lon="-0.43253">
        <ele>16</ele>
        <time>2012-08-05T19:20:00.127Z</time>
      </trkpt>
      <trkpt lat="47.44136" lon="-0.4326">
        <ele>16</ele>
        <time>2012-08-05T19:20:04.127Z</time>
      </trkpt>
      <trkpt lat="47.44136" lon="-0.43267">
        <ele>16</ele>
        <time>2012-08-05T19:20:08.127Z</time>
      </trkpt>
      <trkpt lat="47.44135" lon="-0.43274">
        <ele>16</ele>
        <time>2012-08-05T19:20:12.127Z</time>
      </trkpt>
      <trkpt lat="47.44135" lon="-0.43281">
        <ele>16</ele>
        <time>2012-08-05T19:20:16.127Z</time>
      </trkpt>
      <trkpt lat="47.44134" lon="-0.43288">
        <ele>16</ele>
        <time>2012-08-05T19:20:20.127Z</time>
      </trkpt>
      <trkpt lat="47.44133" lon="-0.43295">
        <ele>16</ele>
        <time>2012-08-05T19:20:24.127Z</time>
      </trkpt>
      <trkpt lat="47.44132" lon="-0.43303">
        <ele>16</ele>
        <time>2012-08-05T19:20:28.127Z</time>
      </trkpt>
      <trkpt lat="47.44132" lon="-0.43311">
        <ele>16</ele>
        <time>2012-08-05T19:20:32.127Z</time>
      </trkpt>
      <trkpt lat="47.44131" lon="-0.43319">
        <ele>16</ele>
        <time>2012-08-05T19:20:36.127Z</time>
      </trkpt>
      <trkpt lat="47.44129" lon="-0.43327">
        <ele>16</ele>
        <time>2012-08-05T19:20:40.127Z</time>
      </trkpt>
      <trkpt lat="47.44128" lon="-0.43334">
        <ele>17</ele>
        <time>2012-08-05T19:20:44.127Z</time>
      </trkpt>
      <trkpt lat="47.44126" lon="-0.43342">
        <ele>17</ele>
        <time>2012-08-05T19:20:48.127Z</time>
      </trkpt>
      <trkpt lat="47.44125" lon="-0.4335">
        <ele>17</ele>
        <time>2012-08-05T19:20:52.127Z</time>
      </trkpt>
      <trkpt lat="47.44124" lon="-0.43358">
        <ele>17</ele>
        <time>2012-08-05T19:20:56.127Z</time>
      </trkpt>
      <trkpt lat="47.44122" lon="-0.43365">
        <ele>17</ele>
        <time>2012-08-05T19:21:00.127Z</time>
      </trkpt>
      <trkpt lat="47.44121" lon="-0.43372">
        <ele>17</ele>
        <time>2012-08-05T19:21:04.127Z</time>
      </trkpt>
      <trkpt lat="47.4412" lon="-0.43379">
        <ele>17</ele>
        <time>2012-08-05T19:21:08.127Z</time>
      </trkpt>
      <trkpt lat="47.44119" lon="-0.43387">
        <ele>17</ele>
        <time>2012-08-05T19:21:12.127Z</time>
      </trkpt>
      <trkpt lat="47.44119" lon="-0.43394">
        <ele>17</ele>
        <time>2012-08-05T19:21:16.127Z</time>
      </trkpt>
      <trkpt lat="47.44119" lon="-0.43401">
        <ele>17</ele>
        <time>2012-08-05T19:21:20.127Z</time>
      </trkpt>
      <trkpt lat="47.44118" lon="-0.43408">
        <ele>17</ele>
        <time>2012-08-05T19:21:24.127Z</time>
      </trkpt>
      <trkpt lat="47.44117" lon="-0.43415">
        <ele>17</ele>
        <time>2012-08-05T19:21:28.127Z</time>
      </trkpt>
      <trkpt lat="47.44116" lon="-0.43422">
        <ele>18</ele>
        <time>2012-08-05T19:21:32.127Z</time>
      </trkpt>
      <trkpt lat="47.44114" lon="-0.43429">
        <ele>18</ele>
        <time>2012-08-05T19:21:36.127Z</time>
      </trkpt>
      <trkpt lat="47.44114" lon="-0.43436">
        <ele>18</ele>
        <time>2012-08-05T19:21:40.127Z</time>
      </trkpt>
      <trkpt lat="47.44114" lon="-0.43444">
        <ele>18</ele>
        <time>2012-08-05T19:21:44.127Z</time>
      </trkpt>
      <trkpt lat="47.44114" lon="-0.43451">
        <ele>18</ele>
        <time>2012-08-05T19:21:48.127Z</time>
      </trkpt>
      <trkpt lat="47.44113" lon="-0.4346">
        <ele>18</ele>
        <time>2012-08-05T19:21:52.127Z</time>
      </trkpt>
      <trkpt lat="47.44112" lon="-0.43468">
        <ele>18</ele>
        <time>2012-08-05T19:21:56.127Z</time>
      </trkpt>
      <trkpt lat="47.44111" lon="-0.43477">
        <ele>18</ele>
        <time>2012-08-05T19:22:00.127Z</time>
      </trkpt>
      <trkpt lat="47.4411" lon="-0.43485">
        <ele>18</ele>
        <time>2012-08-05T19:22:04.127Z</time>
      </trkpt>
      <trkpt lat="47.44109" lon="-0.43493">
        <ele>18</ele>
        <time>2012-08-05T19:22:08.127Z</time>
      </trkpt>
      <trkpt lat="47.44108" lon="-0.43501">
        <ele>18</ele>
        <time>2012-08-05T19:22:12.127Z</time>
      </trkpt>
      <trkpt lat="47.44106" lon="-0.43509">
        <ele>18</ele>
        <time>2012-08-05T19:22:16.127Z</time>
      </trkpt>
      <trkpt lat="47.44105" lon="-0.43517">
        <ele>18</ele>
        <time>2012-08-05T19:22:20.127Z</time>
      </trkpt>
      <trkpt lat="47.44105" lon="-0.43525">
        <ele>18</ele>
        <time>2012-08-05T19:22:24.127Z</time>
      </trkpt>
      <trkpt lat="47.44105" lon="-0.43534">
        <ele>18</ele>
        <time>2012-08-05T19:22:28.127Z</time>
      </trkpt>
      <trkpt lat="47.44105" lon="-0.43542">
        <ele>18</ele>
        <time>2012-08-05T19:22:32.127Z</time>
      </trkpt>
      <trkpt lat="47.44106" lon="-0.43549">
        <ele>18</ele>
        <time>2012-08-05T19:22:36.127Z</time>
      </trkpt>
      <trkpt lat="47.44106" lon="-0.43556">
        <ele>18</ele>
        <time>2012-08-05T19:22:40.127Z</time>
      </trkpt>
      <trkpt lat="47.44107" lon="-0.43563">
        <ele>18</ele>
        <time>2012-08-05T19:22:44.127Z</time>
      </trkpt>
      <trkpt lat="47.44108" lon="-0.4357">
        <ele>18</ele>
        <time>2012-08-05T19:22:48.127Z</time>
      </trkpt>
      <trkpt lat="47.4411" lon="-0.43578">
        <ele>18</ele>
        <time>2012-08-05T19:22:53.127Z</time>
      </trkpt>
      <trkpt lat="47.44111" lon="-0.43585">
        <ele>18</ele>
        <time>2012-08-05T19:22:57.127Z</time>
      </trkpt>
      <trkpt lat="47.44112" lon="-0.43592">
        <ele>18</ele>
        <time>2012-08-05T19:23:01.127Z</time>
      </trkpt>
      <trkpt lat="47.44113" lon="-0.436">
        <ele>18</ele>
        <time>2012-08-05T19:23:05.127Z</time>
      </trkpt>
      <trkpt lat="47.44114" lon="-0.43608">
        <ele>18</ele>
        <time>2012-08-05T19:23:09.127Z</time>
      </trkpt>
      <trkpt lat="47.44115" lon="-0.43615">
        <ele>18</ele>
        <time>2012-08-05T19:23:13.127Z</time>
      </trkpt>
      <trkpt lat="47.44116" lon="-0.43623">
        <ele>18</ele>
        <time>2012-08-05T19:23:17.127Z</time>
      </trkpt>
      <trkpt lat="47.44118" lon="-0.43631">
        <ele>18</ele>
        <time>2012-08-05T19:23:21.127Z</time>
      </trkpt>
      <trkpt lat="47.44119" lon="-0.43638">
        <ele>18</ele>
        <time>2012-08-05T19:23:25.127Z</time>
      </trkpt>
      <trkpt lat="47.44119" lon="-0.43645">
        <ele>18</ele>
        <time>2012-08-05T19:23:29.127Z</time>
      </trkpt>
      <trkpt lat="47.4412" lon="-0.43652">
        <ele>18</ele>
        <time>2012-08-05T19:23:33.127Z</time>
      </trkpt>
      <trkpt lat="47.4412" lon="-0.43659">
        <ele>18</ele>
        <time>2012-08-05T19:23:37.127Z</time>
      </trkpt>
      <trkpt lat="47.4412" lon="-0.43666">
        <ele>18</ele>
        <time>2012-08-05T19:23:41.127Z</time>
      </trkpt>
      <trkpt lat="47.4412" lon="-0.43673">
        <ele>18</ele>
        <time>2012-08-05T19:23:45.127Z</time>
      </trkpt>
      <trkpt lat="47.44121" lon="-0.4368">
        <ele>18</ele>
        <time>2012-08-05T19:23:49.127Z</time>
      </trkpt>
      <trkpt lat="47.44121" lon="-0.43687">
        <ele>18</ele>
        <time>2012-08-05T19:23:53.127Z</time>
      </trkpt>
      <trkpt lat="47.44121" lon="-0.43694">
        <ele>18</ele>
        <time>2012-08-05T19:23:57.127Z</time>
      </trkpt>
      <trkpt lat="47.44121" lon="-0.43702">
        <ele>18</ele>
        <time>2012-08-05T19:24:01.127Z</time>
      </trkpt>
      <trkpt lat="47.44122" lon="-0.43709">
        <ele>19</ele>
        <time>2012-08-05T19:24:05.127Z</time>
      </trkpt>
      <trkpt lat="47.44123" lon="-0.43717">
        <ele>19</ele>
        <time>2012-08-05T19:24:09.127Z</time>
      </trkpt>
      <trkpt lat="47.44124" lon="-0.43724">
        <ele>19</ele>
        <time>2012-08-05T19:24:13.127Z</time>
      </trkpt>
      <trkpt lat="47.44125" lon="-0.43732">
        <ele>19</ele>
        <time>2012-08-05T19:24:17.127Z</time>
      </trkpt>
      <trkpt lat="47.44126" lon="-0.4374">
        <ele>19</ele>
        <time>2012-08-05T19:24:21.127Z</time>
      </trkpt>
      <trkpt lat="47.44127" lon="-0.43748">
        <ele>19</ele>
        <time>2012-08-05T19:24:25.127Z</time>
      </trkpt>
      <trkpt lat="47.44128" lon="-0.43756">
        <ele>19</ele>
        <time>2012-08-05T19:24:29.127Z</time>
      </trkpt>
      <trkpt lat="47.4413" lon="-0.43764">
        <ele>19</ele>
        <time>2012-08-05T19:24:33.127Z</time>
      </trkpt>
      <trkpt lat="47.44132" lon="-0.43771">
        <ele>19</ele>
        <time>2012-08-05T19:24:37.127Z</time>
      </trkpt>
      <trkpt lat="47.44135" lon="-0.43778">
        <ele>19</ele>
        <time>2012-08-05T19:24:41.127Z</time>
      </trkpt>
      <trkpt lat="47.44137" lon="-0.43784">
        <ele>19</ele>
        <time>2012-08-05T19:24:45.127Z</time>
      </trkpt>
      <trkpt lat="47.44139" lon="-0.43792">
        <ele>19</ele>
        <time>2012-08-05T19:24:49.127Z</time>
      </trkpt>
      <trkpt lat="47.44141" lon="-0.43798">
        <ele>19</ele>
        <time>2012-08-05T19:24:53.127Z</time>
      </trkpt>
      <trkpt lat="47.44143" lon="-0.43806">
        <ele>19</ele>
        <time>2012-08-05T19:24:57.127Z</time>
      </trkpt>
      <trkpt lat="47.44145" lon="-0.43813">
        <ele>19</ele>
        <time>2012-08-05T19:25:01.127Z</time>
      </trkpt>
      <trkpt lat="47.44147" lon="-0.4382">
        <ele>19</ele>
        <time>2012-08-05T19:25:05.127Z</time>
      </trkpt>
      <trkpt lat="47.44148" lon="-0.43827">
        <ele>19</ele>
        <time>2012-08-05T19:25:09.127Z</time>
      </trkpt>
      <trkpt lat="47.4415" lon="-0.43834">
        <ele>18</ele>
        <time>2012-08-05T19:25:13.127Z</time>
      </trkpt>
      <trkpt lat="47.44152" lon="-0.43841">
        <ele>18</ele>
        <time>2012-08-05T19:25:17.127Z</time>
      </trkpt>
      <trkpt lat="47.44153" lon="-0.43848">
        <ele>18</ele>
        <time>2012-08-05T19:25:21.127Z</time>
      </trkpt>
      <trkpt lat="47.44155" lon="-0.43856">
        <ele>18</ele>
        <time>2012-08-05T19:25:25.127Z</time>
      </trkpt>
      <trkpt lat="47.44157" lon="-0.43863">
        <ele>18</ele>
        <time>2012-08-05T19:25:29.127Z</time>
      </trkpt>
      <trkpt lat="47.44159" lon="-0.4387">
        <ele>18</ele>
        <time>2012-08-05T19:25:33.127Z</time>
      </trkpt>
      <trkpt lat="47.4416" lon="-0.43877">
        <ele>18</ele>
        <time>2012-08-05T19:25:37.127Z</time>
      </trkpt>
      <trkpt lat="47.44162" lon="-0.43885">
        <ele>18</ele>
        <time>2012-08-05T19:25:41.127Z</time>
      </trkpt>
      <trkpt lat="47.44164" lon="-0.43892">
        <ele>17</ele>
        <time>2012-08-05T19:25:45.127Z</time>
      </trkpt>
      <trkpt lat="47.44165" lon="-0.439">
        <ele>17</ele>
        <time>2012-08-05T19:25:49.127Z</time>
      </trkpt>
      <trkpt lat="47.44167" lon="-0.43907">
        <ele>17</ele>
        <time>2012-08-05T19:25:53.127Z</time>
      </trkpt>
      <trkpt lat="47.44169" lon="-0.43914">
        <ele>17</ele>
        <time>2012-08-05T19:25:57.127Z</time>
      </trkpt>
      <trkpt lat="47.44171" lon="-0.43922">
        <ele>17</ele>
        <time>2012-08-05T19:26:01.127Z</time>
      </trkpt>
      <trkpt lat="47.44172" lon="-0.43929">
        <ele>17</ele>
        <time>2012-08-05T19:26:05.127Z</time>
      </trkpt>
      <trkpt lat="47.44174" lon="-0.43936">
        <ele>17</ele>
        <time>2012-08-05T19:26:09.127Z</time>
      </trkpt>
      <trkpt lat="47.44175" lon="-0.43944">
        <ele>17</ele>
        <time>2012-08-05T19:26:13.127Z</time>
      </trkpt>
      <trkpt lat="47.44176" lon="-0.43951">
        <ele>16</ele>
        <time>2012-08-05T19:26:17.127Z</time>
      </trkpt>
      <trkpt lat="47.44178" lon="-0.43958">
        <ele>16</ele>
        <time>2012-08-05T19:26:22.127Z</time>
      </trkpt>
      <trkpt lat="47.44181" lon="-0.43964">
        <ele>16</ele>
        <time>2012-08-05T19:26:27.127Z</time>
      </trkpt>
      <trkpt lat="47.44184" lon="-0.43971">
        <ele>16</ele>
        <time>2012-08-05T19:26:32.127Z</time>
      </trkpt>
      <trkpt lat="47.44186" lon="-0.43977">
        <ele>16</ele>
        <time>2012-08-05T19:26:37.127Z</time>
      </trkpt>
      <trkpt lat="47.44188" lon="-0.43984">
        <ele>16</ele>
        <time>2012-08-05T19:26:42.127Z</time>
      </trkpt>
      <trkpt lat="47.4419" lon="-0.43991">
        <ele>16</ele>
        <time>2012-08-05T19:26:47.127Z</time>
      </trkpt>
      <trkpt lat="47.44192" lon="-0.43997">
        <ele>16</ele>
        <time>2012-08-05T19:26:51.127Z</time>
      </trkpt>
      <trkpt lat="47.44194" lon="-0.44005">
        <ele>16</ele>
        <time>2012-08-05T19:26:56.127Z</time>
      </trkpt>
      <trkpt lat="47.44195" lon="-0.44013">
        <ele>16</ele>
        <time>2012-08-05T19:27:01.127Z</time>
      </trkpt>
      <trkpt lat="47.44196" lon="-0.44019">
        <ele>16</ele>
        <time>2012-08-05T19:27:05.127Z</time>
      </trkpt>
      <trkpt lat="47.44197" lon="-0.44026">
        <ele>16</ele>
        <time>2012-08-05T19:27:09.127Z</time>
      </trkpt>
      <trkpt lat="47.44198" lon="-0.44033">
        <ele>16</ele>
        <time>2012-08-05T19:27:13.127Z</time>
      </trkpt>
      <trkpt lat="47.44197" lon="-0.44041">
        <ele>16</ele>
        <time>2012-08-05T19:27:17.127Z</time>
      </trkpt>
      <trkpt lat="47.44198" lon="-0.44048">
        <ele>16</ele>
        <time>2012-08-05T19:27:21.127Z</time>
      </trkpt>
      <trkpt lat="47.44199" lon="-0.44056">
        <ele>16</ele>
        <time>2012-08-05T19:27:25.127Z</time>
      </trkpt>
      <trkpt lat="47.44201" lon="-0.44063">
        <ele>16</ele>
        <time>2012-08-05T19:27:29.126Z</time>
      </trkpt>
      <trkpt lat="47.44203" lon="-0.44071">
        <ele>16</ele>
        <time>2012-08-05T19:27:33.126Z</time>
      </trkpt>
      <trkpt lat="47.44204" lon="-0.44078">
        <ele>16</ele>
        <time>2012-08-05T19:27:37.126Z</time>
      </trkpt>
      <trkpt lat="47.44206" lon="-0.44086">
        <ele>16</ele>
        <time>2012-08-05T19:27:41.126Z</time>
      </trkpt>
      <trkpt lat="47.44208" lon="-0.44093">
        <ele>16</ele>
        <time>2012-08-05T19:27:45.126Z</time>
      </trkpt>
      <trkpt lat="47.44208" lon="-0.441">
        <ele>16</ele>
        <time>2012-08-05T19:27:49.126Z</time>
      </trkpt>
      <trkpt lat="47.44209" lon="-0.44107">
        <ele>16</ele>
        <time>2012-08-05T19:27:53.126Z</time>
      </trkpt>
      <trkpt lat="47.44209" lon="-0.44114">
        <ele>16</ele>
        <time>2012-08-05T19:27:57.126Z</time>
      </trkpt>
      <trkpt lat="47.4421" lon="-0.44121">
        <ele>16</ele>
        <time>2012-08-05T19:28:01.126Z</time>
      </trkpt>
      <trkpt lat="47.4421" lon="-0.44129">
        <ele>16</ele>
        <time>2012-08-05T19:28:05.126Z</time>
      </trkpt>
      <trkpt lat="47.4421" lon="-0.44136">
        <ele>16</ele>
        <time>2012-08-05T19:28:09.126Z</time>
      </trkpt>
      <trkpt lat="47.44211" lon="-0.44143">
        <ele>16</ele>
        <time>2012-08-05T19:28:13.126Z</time>
      </trkpt>
      <trkpt lat="47.44212" lon="-0.4415">
        <ele>16</ele>
        <time>2012-08-05T19:28:17.126Z</time>
      </trkpt>
      <trkpt lat="47.44212" lon="-0.44157">
        <ele>16</ele>
        <time>2012-08-05T19:28:21.126Z</time>
      </trkpt>
      <trkpt lat="47.44213" lon="-0.44165">
        <ele>16</ele>
        <time>2012-08-05T19:28:25.126Z</time>
      </trkpt>
      <trkpt lat="47.44215" lon="-0.44172">
        <ele>16</ele>
        <time>2012-08-05T19:28:29.126Z</time>
      </trkpt>
      <trkpt lat="47.44218" lon="-0.44178">
        <ele>16</ele>
        <time>2012-08-05T19:28:33.126Z</time>
      </trkpt>
      <trkpt lat="47.44221" lon="-0.44184">
        <ele>16</ele>
        <time>2012-08-05T19:28:37.126Z</time>
      </trkpt>
      <trkpt lat="47.44224" lon="-0.4419">
        <ele>16</ele>
        <time>2012-08-05T19:28:41.126Z</time>
      </trkpt>
      <trkpt lat="47.44226" lon="-0.44196">
        <ele>16</ele>
        <time>2012-08-05T19:28:45.126Z</time>
      </trkpt>
      <trkpt lat="47.44228" lon="-0.44203">
        <ele>16</ele>
        <time>2012-08-05T19:28:49.126Z</time>
      </trkpt>
      <trkpt lat="47.44231" lon="-0.44209">
        <ele>15</ele>
        <time>2012-08-05T19:28:53.126Z</time>
      </trkpt>
      <trkpt lat="47.44234" lon="-0.44215">
        <ele>15</ele>
        <time>2012-08-05T19:28:57.126Z</time>
      </trkpt>
      <trkpt lat="47.44237" lon="-0.4422">
        <ele>15</ele>
        <time>2012-08-05T19:29:01.126Z</time>
      </trkpt>
      <trkpt lat="47.4424" lon="-0.44226">
        <ele>15</ele>
        <time>2012-08-05T19:29:05.126Z</time>
      </trkpt>
      <trkpt lat="47.44242" lon="-0.44233">
        <ele>15</ele>
        <time>2012-08-05T19:29:09.126Z</time>
      </trkpt>
      <trkpt lat="47.44243" lon="-0.4424">
        <ele>15</ele>
        <time>2012-08-05T19:29:13.126Z</time>
      </trkpt>
      <trkpt lat="47.44244" lon="-0.44247">
        <ele>15</ele>
        <time>2012-08-05T19:29:17.126Z</time>
      </trkpt>
      <trkpt lat="47.44246" lon="-0.44254">
        <ele>15</ele>
        <time>2012-08-05T19:29:21.126Z</time>
      </trkpt>
      <trkpt lat="47.44246" lon="-0.44262">
        <ele>15</ele>
        <time>2012-08-05T19:29:25.126Z</time>
      </trkpt>
      <trkpt lat="47.44247" lon="-0.44269">
        <ele>15</ele>
        <time>2012-08-05T19:29:29.126Z</time>
      </trkpt>
      <trkpt lat="47.44249" lon="-0.44276">
        <ele>16</ele>
        <time>2012-08-05T19:29:33.126Z</time>
      </trkpt>
      <trkpt lat="47.4425" lon="-0.44283">
        <ele>16</ele>
        <time>2012-08-05T19:29:37.126Z</time>
      </trkpt>
      <trkpt lat="47.44252" lon="-0.4429">
        <ele>16</ele>
        <time>2012-08-05T19:29:41.126Z</time>
      </trkpt>
      <trkpt lat="47.44253" lon="-0.44297">
        <ele>17</ele>
        <time>2012-08-05T19:29:45.126Z</time>
      </trkpt>
      <trkpt lat="47.44254" lon="-0.44304">
        <ele>17</ele>
        <time>2012-08-05T19:29:49.126Z</time>
      </trkpt>
      <trkpt lat="47.44255" lon="-0.4431">
        <ele>17</ele>
        <time>2012-08-05T19:29:53.126Z</time>
      </trkpt>
      <trkpt lat="47.44256" lon="-0.44318">
        <ele>17</ele>
        <time>2012-08-05T19:29:57.126Z</time>
      </trkpt>
      <trkpt lat="47.44257" lon="-0.44325">
        <ele>17</ele>
        <time>2012-08-05T19:30:01.126Z</time>
      </trkpt>
      <trkpt lat="47.44259" lon="-0.44332">
        <ele>17</ele>
        <time>2012-08-05T19:30:05.126Z</time>
      </trkpt>
      <trkpt lat="47.4426" lon="-0.44339">
        <ele>17</ele>
        <time>2012-08-05T19:30:09.126Z</time>
      </trkpt>
      <trkpt lat="47.44261" lon="-0.44346">
        <ele>17</ele>
        <time>2012-08-05T19:30:13.126Z</time>
      </trkpt>
      <trkpt lat="47.44262" lon="-0.44353">
        <ele>17</ele>
        <time>2012-08-05T19:30:17.126Z</time>
      </trkpt>
      <trkpt lat="47.44264" lon="-0.4436">
        <ele>17</ele>
        <time>2012-08-05T19:30:21.126Z</time>
      </trkpt>
      <trkpt lat="47.44265" lon="-0.44367">
        <ele>17</ele>
        <time>2012-08-05T19:30:25.126Z</time>
      </trkpt>
      <trkpt lat="47.44267" lon="-0.44374">
        <ele>17</ele>
        <time>2012-08-05T19:30:29.126Z</time>
      </trkpt>
      <trkpt lat="47.44268" lon="-0.4438">
        <ele>17</ele>
        <time>2012-08-05T19:30:33.126Z</time>
      </trkpt>
      <trkpt lat="47.4427" lon="-0.44387">
        <ele>17</ele>
        <time>2012-08-05T19:30:37.126Z</time>
      </trkpt>
      <trkpt lat="47.44271" lon="-0.44394">
        <ele>17</ele>
        <time>2012-08-05T19:30:41.126Z</time>
      </trkpt>
      <trkpt lat="47.44272" lon="-0.44401">
        <ele>17</ele>
        <time>2012-08-05T19:30:45.126Z</time>
      </trkpt>
      <trkpt lat="47.44274" lon="-0.44407">
        <ele>17</ele>
        <time>2012-08-05T19:30:49.126Z</time>
      </trkpt>
      <trkpt lat="47.44275" lon="-0.44414">
        <ele>17</ele>
        <time>2012-08-05T19:30:53.126Z</time>
      </trkpt>
      <trkpt lat="47.44298" lon="-0.44669">
        <ele>17</ele>
        <time>2012-08-05T19:32:59.126Z</time>
      </trkpt>
      <trkpt lat="47.44298" lon="-0.44669">
        <ele>17</ele>
        <time>2012-08-05T19:32:59.126Z</time>
      </trkpt>
      <trkpt lat="47.44298" lon="-0.44669">
        <ele>17</ele>
        <time>2012-08-05T19:33:00.126Z</time>
      </trkpt>
      <trkpt lat="47.44307" lon="-0.44674">
        <ele>17</ele>
        <time>2012-08-05T19:33:01.126Z</time>
      </trkpt>
      <trkpt lat="47.44307" lon="-0.44674">
        <ele>17</ele>
        <time>2012-08-05T19:33:01.126Z</time>
      </trkpt>
      <trkpt lat="47.44307" lon="-0.44674">
        <ele>17</ele>
        <time>2012-08-05T19:33:07.126Z</time>
      </trkpt>
      <trkpt lat="47.4431" lon="-0.44688">
        <ele>17</ele>
        <time>2012-08-05T19:33:08.126Z</time>
      </trkpt>
      <trkpt lat="47.4431" lon="-0.44688">
        <ele>17</ele>
        <time>2012-08-05T19:33:08.126Z</time>
      </trkpt>
      <trkpt lat="47.4431" lon="-0.44688">
        <ele>17</ele>
        <time>2012-08-05T19:33:14.126Z</time>
      </trkpt>
      <trkpt lat="47.44309" lon="-0.44702">
        <ele>17</ele>
        <time>2012-08-05T19:33:15.126Z</time>
      </trkpt>
      <trkpt lat="47.44309" lon="-0.44702">
        <ele>17</ele>
        <time>2012-08-05T19:33:15.126Z</time>
      </trkpt>
      <trkpt lat="47.44309" lon="-0.44702">
        <ele>17</ele>
        <time>2012-08-05T19:33:21.126Z</time>
      </trkpt>
      <trkpt lat="47.44308" lon="-0.44717">
        <ele>17</ele>
        <time>2012-08-05T19:33:22.126Z</time>
      </trkpt>
      <trkpt lat="47.44308" lon="-0.44717">
        <ele>17</ele>
        <time>2012-08-05T19:33:22.126Z</time>
      </trkpt>
      <trkpt lat="47.44308" lon="-0.44717">
        <ele>17</ele>
        <time>2012-08-05T19:33:26.126Z</time>
      </trkpt>
      <trkpt lat="47.44299" lon="-0.44711">
        <ele>17</ele>
        <time>2012-08-05T19:33:28.126Z</time>
      </trkpt>
      <trkpt lat="47.44299" lon="-0.44711">
        <ele>17</ele>
        <time>2012-08-05T19:33:28.126Z</time>
      </trkpt>
      <trkpt lat="47.44299" lon="-0.44711">
        <ele>17</ele>
        <time>2012-08-05T19:33:29.126Z</time>
      </trkpt>
      <trkpt lat="47.44289" lon="-0.44698">
        <ele>17</ele>
        <time>2012-08-05T19:33:30.126Z</time>
      </trkpt>
      <trkpt lat="47.44289" lon="-0.44698">
        <ele>17</ele>
        <time>2012-08-05T19:33:30.126Z</time>
      </trkpt>
      <trkpt lat="47.44289" lon="-0.44698">
        <ele>17</ele>
        <time>2012-08-05T19:33:34.126Z</time>
      </trkpt>
      <trkpt lat="47.44294" lon="-0.44686">
        <ele>17</ele>
        <time>2012-08-05T19:33:35.126Z</time>
      </trkpt>
      <trkpt lat="47.44294" lon="-0.44686">
        <ele>17</ele>
        <time>2012-08-05T19:33:35.126Z</time>
      </trkpt>
      <trkpt lat="47.44294" lon="-0.44686">
        <ele>17</ele>
        <time>2012-08-05T19:33:50.126Z</time>
      </trkpt>
      <trkpt lat="47.44287" lon="-0.44698">
        <ele>17</ele>
        <time>2012-08-05T19:33:51.126Z</time>
      </trkpt>
      <trkpt lat="47.44287" lon="-0.44698">
        <ele>17</ele>
        <time>2012-08-05T19:33:51.126Z</time>
      </trkpt>
      <trkpt lat="47.44287" lon="-0.44698">
        <ele>17</ele>
        <time>2012-08-05T19:33:55.126Z</time>
      </trkpt>
      <trkpt lat="47.44283" lon="-0.44707">
        <ele>17</ele>
        <time>2012-08-05T19:33:56.126Z</time>
      </trkpt>
      <trkpt lat="47.44283" lon="-0.44707">
        <ele>17</ele>
        <time>2012-08-05T19:33:56.126Z</time>
      </trkpt>
      <trkpt lat="47.44283" lon="-0.44707">
        <ele>17</ele>
        <time>2012-08-05T19:33:58.126Z</time>
      </trkpt>
      <trkpt lat="47.4428" lon="-0.44712">
        <ele>17</ele>
        <time>2012-08-05T19:33:59.126Z</time>
      </trkpt>
      <trkpt lat="47.4428" lon="-0.44712">
        <ele>17</ele>
        <time>2012-08-05T19:33:59.126Z</time>
      </trkpt>
      <trkpt lat="47.4428" lon="-0.44712">
        <ele>17</ele>
        <time>2012-08-05T19:34:01.126Z</time>
      </trkpt>
      <trkpt lat="47.44277" lon="-0.44717">
        <ele>17</ele>
        <time>2012-08-05T19:34:02.126Z</time>
      </trkpt>
      <trkpt lat="47.44277" lon="-0.44717">
        <ele>17</ele>
        <time>2012-08-05T19:34:02.126Z</time>
      </trkpt>
      <trkpt lat="47.44277" lon="-0.44717">
        <ele>17</ele>
        <time>2012-08-05T19:34:05.126Z</time>
      </trkpt>
      <trkpt lat="47.44274" lon="-0.44724">
        <ele>17</ele>
        <time>2012-08-05T19:34:06.126Z</time>
      </trkpt>
      <trkpt lat="47.44274" lon="-0.44724">
        <ele>17</ele>
        <time>2012-08-05T19:34:06.126Z</time>
      </trkpt>
      <trkpt lat="47.44274" lon="-0.44724">
        <ele>17</ele>
        <time>2012-08-05T19:34:09.126Z</time>
      </trkpt>
      <trkpt lat="47.4427" lon="-0.4473">
        <ele>17</ele>
        <time>2012-08-05T19:34:10.126Z</time>
      </trkpt>
      <trkpt lat="47.4427" lon="-0.4473">
        <ele>17</ele>
        <time>2012-08-05T19:34:10.126Z</time>
      </trkpt>
      <trkpt lat="47.4427" lon="-0.4473">
        <ele>17</ele>
        <time>2012-08-05T19:34:12.126Z</time>
      </trkpt>
      <trkpt lat="47.44267" lon="-0.44735">
        <ele>17</ele>
        <time>2012-08-05T19:34:13.126Z</time>
      </trkpt>
      <trkpt lat="47.44267" lon="-0.44735">
        <ele>17</ele>
        <time>2012-08-05T19:34:13.126Z</time>
      </trkpt>
      <trkpt lat="47.44267" lon="-0.44735">
        <ele>17</ele>
        <time>2012-08-05T19:34:16.126Z</time>
      </trkpt>
      <trkpt lat="47.44264" lon="-0.44741">
        <ele>18</ele>
        <time>2012-08-05T19:34:17.126Z</time>
      </trkpt>
      <trkpt lat="47.44264" lon="-0.44741">
        <ele>18</ele>
        <time>2012-08-05T19:34:17.126Z</time>
      </trkpt>
      <trkpt lat="47.44264" lon="-0.44741">
        <ele>18</ele>
        <time>2012-08-05T19:34:21.126Z</time>
      </trkpt>
      <trkpt lat="47.4426" lon="-0.4475">
        <ele>18</ele>
        <time>2012-08-05T19:34:22.126Z</time>
      </trkpt>
      <trkpt lat="47.4426" lon="-0.4475">
        <ele>18</ele>
        <time>2012-08-05T19:34:22.126Z</time>
      </trkpt>
      <trkpt lat="47.4426" lon="-0.4475">
        <ele>18</ele>
        <time>2012-08-05T19:34:28.126Z</time>
      </trkpt>
      <trkpt lat="47.44254" lon="-0.44762">
        <ele>17</ele>
        <time>2012-08-05T19:34:29.126Z</time>
      </trkpt>
      <trkpt lat="47.44254" lon="-0.44762">
        <ele>17</ele>
        <time>2012-08-05T19:34:29.126Z</time>
      </trkpt>
      <trkpt lat="47.44254" lon="-0.44762">
        <ele>17</ele>
        <time>2012-08-05T19:34:36.126Z</time>
      </trkpt>
      <trkpt lat="47.44249" lon="-0.44774">
        <ele>18</ele>
        <time>2012-08-05T19:34:37.126Z</time>
      </trkpt>
      <trkpt lat="47.44249" lon="-0.44774">
        <ele>18</ele>
        <time>2012-08-05T19:34:37.126Z</time>
      </trkpt>
      <trkpt lat="47.44249" lon="-0.44774">
        <ele>18</ele>
        <time>2012-08-05T19:34:44.126Z</time>
      </trkpt>
      <trkpt lat="47.44244" lon="-0.44786">
        <ele>18</ele>
        <time>2012-08-05T19:34:45.126Z</time>
      </trkpt>
      <trkpt lat="47.44244" lon="-0.44786">
        <ele>18</ele>
        <time>2012-08-05T19:34:45.126Z</time>
      </trkpt>
      <trkpt lat="47.44244" lon="-0.44786">
        <ele>18</ele>
        <time>2012-08-05T19:34:52.126Z</time>
      </trkpt>
      <trkpt lat="47.44238" lon="-0.44797">
        <ele>17</ele>
        <time>2012-08-05T19:34:53.126Z</time>
      </trkpt>
      <trkpt lat="47.44238" lon="-0.44797">
        <ele>17</ele>
        <time>2012-08-05T19:34:53.126Z</time>
      </trkpt>
      <trkpt lat="47.44238" lon="-0.44797">
        <ele>17</ele>
        <time>2012-08-05T19:35:22.126Z</time>
      </trkpt>
      <trkpt lat="47.44235" lon="-0.44804">
        <ele>17</ele>
        <time>2012-08-05T19:35:28.126Z</time>
      </trkpt>
      <trkpt lat="47.44232" lon="-0.44811">
        <ele>17</ele>
        <time>2012-08-05T19:35:31.126Z</time>
      </trkpt>
      <trkpt lat="47.44229" lon="-0.44818">
        <ele>17</ele>
        <time>2012-08-05T19:35:33.126Z</time>
      </trkpt>
      <trkpt lat="47.44226" lon="-0.44824">
        <ele>17</ele>
        <time>2012-08-05T19:35:35.126Z</time>
      </trkpt>
      <trkpt lat="47.44223" lon="-0.4483">
        <ele>17</ele>
        <time>2012-08-05T19:35:37.126Z</time>
      </trkpt>
      <trkpt lat="47.4422" lon="-0.44836">
        <ele>17</ele>
        <time>2012-08-05T19:35:39.126Z</time>
      </trkpt>
      <trkpt lat="47.44217" lon="-0.44841">
        <ele>17</ele>
        <time>2012-08-05T19:35:41.126Z</time>
      </trkpt>
      <trkpt lat="47.44213" lon="-0.44848">
        <ele>17</ele>
        <time>2012-08-05T19:35:44.126Z</time>
      </trkpt>
      <trkpt lat="47.44209" lon="-0.44855">
        <ele>17</ele>
        <time>2012-08-05T19:35:47.126Z</time>
      </trkpt>
      <trkpt lat="47.44205" lon="-0.44861">
        <ele>17</ele>
        <time>2012-08-05T19:35:50.126Z</time>
      </trkpt>
      <trkpt lat="47.44202" lon="-0.44868">
        <ele>17</ele>
        <time>2012-08-05T19:35:53.126Z</time>
      </trkpt>
      <trkpt lat="47.44199" lon="-0.44874">
        <ele>17</ele>
        <time>2012-08-05T19:35:56.126Z</time>
      </trkpt>
      <trkpt lat="47.44195" lon="-0.4488">
        <ele>17</ele>
        <time>2012-08-05T19:35:59.126Z</time>
      </trkpt>
      <trkpt lat="47.44192" lon="-0.44886">
        <ele>17</ele>
        <time>2012-08-05T19:36:02.126Z</time>
      </trkpt>
      <trkpt lat="47.44189" lon="-0.44894">
        <ele>17</ele>
        <time>2012-08-05T19:36:05.126Z</time>
      </trkpt>
      <trkpt lat="47.44187" lon="-0.44901">
        <ele>17</ele>
        <time>2012-08-05T19:36:08.126Z</time>
      </trkpt>
      <trkpt lat="47.44184" lon="-0.44907">
        <ele>17</ele>
        <time>2012-08-05T19:36:11.126Z</time>
      </trkpt>
      <trkpt lat="47.44181" lon="-0.44913">
        <ele>17</ele>
        <time>2012-08-05T19:36:14.126Z</time>
      </trkpt>
      <trkpt lat="47.44178" lon="-0.44918">
        <ele>17</ele>
        <time>2012-08-05T19:36:17.126Z</time>
      </trkpt>
      <trkpt lat="47.44175" lon="-0.44924">
        <ele>17</ele>
        <time>2012-08-05T19:36:20.126Z</time>
      </trkpt>
      <trkpt lat="47.44172" lon="-0.44929">
        <ele>17</ele>
        <time>2012-08-05T19:36:23.126Z</time>
      </trkpt>
      <trkpt lat="47.44169" lon="-0.44936">
        <ele>17</ele>
        <time>2012-08-05T19:36:27.126Z</time>
      </trkpt>
      <trkpt lat="47.44167" lon="-0.44944">
        <ele>17</ele>
        <time>2012-08-05T19:36:31.126Z</time>
      </trkpt>
      <trkpt lat="47.44164" lon="-0.44951">
        <ele>17</ele>
        <time>2012-08-05T19:36:35.126Z</time>
      </trkpt>
      <trkpt lat="47.44161" lon="-0.44958">
        <ele>17</ele>
        <time>2012-08-05T19:36:39.126Z</time>
      </trkpt>
      <trkpt lat="47.44158" lon="-0.44965">
        <ele>17</ele>
        <time>2012-08-05T19:36:43.126Z</time>
      </trkpt>
      <trkpt lat="47.44156" lon="-0.44972">
        <ele>17</ele>
        <time>2012-08-05T19:36:47.126Z</time>
      </trkpt>
      <trkpt lat="47.44153" lon="-0.44979">
        <ele>17</ele>
        <time>2012-08-05T19:36:51.126Z</time>
      </trkpt>
      <trkpt lat="47.4415" lon="-0.44985">
        <ele>17</ele>
        <time>2012-08-05T19:36:55.126Z</time>
      </trkpt>
      <trkpt lat="47.44147" lon="-0.44992">
        <ele>17</ele>
        <time>2012-08-05T19:36:59.126Z</time>
      </trkpt>
      <trkpt lat="47.44143" lon="-0.44998">
        <ele>17</ele>
        <time>2012-08-05T19:37:03.126Z</time>
      </trkpt>
      <trkpt lat="47.4414" lon="-0.45004">
        <ele>17</ele>
        <time>2012-08-05T19:37:07.126Z</time>
      </trkpt>
      <trkpt lat="47.44137" lon="-0.4501">
        <ele>17</ele>
        <time>2012-08-05T19:37:11.126Z</time>
      </trkpt>
      <trkpt lat="47.44135" lon="-0.45017">
        <ele>17</ele>
        <time>2012-08-05T19:37:15.126Z</time>
      </trkpt>
      <trkpt lat="47.44134" lon="-0.45024">
        <ele>17</ele>
        <time>2012-08-05T19:37:19.126Z</time>
      </trkpt>
      <trkpt lat="47.44131" lon="-0.45032">
        <ele>17</ele>
        <time>2012-08-05T19:37:23.126Z</time>
      </trkpt>
      <trkpt lat="47.44128" lon="-0.45038">
        <ele>17</ele>
        <time>2012-08-05T19:37:27.126Z</time>
      </trkpt>
      <trkpt lat="47.44125" lon="-0.45044">
        <ele>17</ele>
        <time>2012-08-05T19:37:31.126Z</time>
      </trkpt>
      <trkpt lat="47.44123" lon="-0.45051">
        <ele>17</ele>
        <time>2012-08-05T19:37:35.126Z</time>
      </trkpt>
      <trkpt lat="47.44121" lon="-0.45058">
        <ele>17</ele>
        <time>2012-08-05T19:37:39.126Z</time>
      </trkpt>
      <trkpt lat="47.44118" lon="-0.45066">
        <ele>17</ele>
        <time>2012-08-05T19:37:43.126Z</time>
      </trkpt>
      <trkpt lat="47.44116" lon="-0.45073">
        <ele>17</ele>
        <time>2012-08-05T19:37:47.126Z</time>
      </trkpt>
      <trkpt lat="47.44114" lon="-0.45079">
        <ele>17</ele>
        <time>2012-08-05T19:37:50.126Z</time>
      </trkpt>
      <trkpt lat="47.44113" lon="-0.45086">
        <ele>17</ele>
        <time>2012-08-05T19:37:53.126Z</time>
      </trkpt>
      <trkpt lat="47.44112" lon="-0.45092">
        <ele>17</ele>
        <time>2012-08-05T19:37:56.126Z</time>
      </trkpt>
      <trkpt lat="47.4411" lon="-0.451">
        <ele>17</ele>
        <time>2012-08-05T19:38:00.126Z</time>
      </trkpt>
      <trkpt lat="47.44109" lon="-0.45108">
        <ele>17</ele>
        <time>2012-08-05T19:38:04.126Z</time>
      </trkpt>
      <trkpt lat="47.4411" lon="-0.45117">
        <ele>17</ele>
        <time>2012-08-05T19:38:08.126Z</time>
      </trkpt>
      <trkpt lat="47.4411" lon="-0.45124">
        <ele>17</ele>
        <time>2012-08-05T19:38:11.126Z</time>
      </trkpt>
      <trkpt lat="47.44111" lon="-0.45132">
        <ele>17</ele>
        <time>2012-08-05T19:38:15.126Z</time>
      </trkpt>
      <trkpt lat="47.44111" lon="-0.4514">
        <ele>17</ele>
        <time>2012-08-05T19:38:19.126Z</time>
      </trkpt>
      <trkpt lat="47.4411" lon="-0.45147">
        <ele>17</ele>
        <time>2012-08-05T19:38:23.126Z</time>
      </trkpt>
      <trkpt lat="47.4411" lon="-0.45154">
        <ele>17</ele>
        <time>2012-08-05T19:38:27.126Z</time>
      </trkpt>
      <trkpt lat="47.44109" lon="-0.45162">
        <ele>17</ele>
        <time>2012-08-05T19:38:31.126Z</time>
      </trkpt>
      <trkpt lat="47.4411" lon="-0.45169">
        <ele>18</ele>
        <time>2012-08-05T19:38:35.126Z</time>
      </trkpt>
      <trkpt lat="47.4411" lon="-0.45176">
        <ele>18</ele>
        <time>2012-08-05T19:38:39.126Z</time>
      </trkpt>
      <trkpt lat="47.44109" lon="-0.45184">
        <ele>18</ele>
        <time>2012-08-05T19:38:43.126Z</time>
      </trkpt>
      <trkpt lat="47.44108" lon="-0.45191">
        <ele>18</ele>
        <time>2012-08-05T19:38:47.126Z</time>
      </trkpt>
      <trkpt lat="47.44108" lon="-0.45199">
        <ele>18</ele>
        <time>2012-08-05T19:38:51.126Z</time>
      </trkpt>
      <trkpt lat="47.44106" lon="-0.45206">
        <ele>18</ele>
        <time>2012-08-05T19:38:55.126Z</time>
      </trkpt>
      <trkpt lat="47.44105" lon="-0.45214">
        <ele>18</ele>
        <time>2012-08-05T19:38:59.126Z</time>
      </trkpt>
      <trkpt lat="47.44104" lon="-0.45221">
        <ele>18</ele>
        <time>2012-08-05T19:39:03.126Z</time>
      </trkpt>
      <trkpt lat="47.44103" lon="-0.45228">
        <ele>18</ele>
        <time>2012-08-05T19:39:07.126Z</time>
      </trkpt>
      <trkpt lat="47.44102" lon="-0.45236">
        <ele>18</ele>
        <time>2012-08-05T19:39:11.126Z</time>
      </trkpt>
      <trkpt lat="47.44101" lon="-0.45243">
        <ele>18</ele>
        <time>2012-08-05T19:39:15.126Z</time>
      </trkpt>
      <trkpt lat="47.44101" lon="-0.45251">
        <ele>19</ele>
        <time>2012-08-05T19:39:19.126Z</time>
      </trkpt>
      <trkpt lat="47.44101" lon="-0.45259">
        <ele>19</ele>
        <time>2012-08-05T19:39:23.126Z</time>
      </trkpt>
      <trkpt lat="47.441" lon="-0.45266">
        <ele>19</ele>
        <time>2012-08-05T19:39:27.126Z</time>
      </trkpt>
      <trkpt lat="47.441" lon="-0.45274">
        <ele>19</ele>
        <time>2012-08-05T19:39:31.126Z</time>
      </trkpt>
      <trkpt lat="47.441" lon="-0.45281">
        <ele>19</ele>
        <time>2012-08-05T19:39:35.126Z</time>
      </trkpt>
      <trkpt lat="47.44099" lon="-0.45288">
        <ele>19</ele>
        <time>2012-08-05T19:39:39.126Z</time>
      </trkpt>
      <trkpt lat="47.44099" lon="-0.45296">
        <ele>19</ele>
        <time>2012-08-05T19:39:43.126Z</time>
      </trkpt>
      <trkpt lat="47.44098" lon="-0.45303">
        <ele>19</ele>
        <time>2012-08-05T19:39:47.126Z</time>
      </trkpt>
      <trkpt lat="47.44098" lon="-0.4531">
        <ele>19</ele>
        <time>2012-08-05T19:39:50.126Z</time>
      </trkpt>
      <trkpt lat="47.44098" lon="-0.45318">
        <ele>19</ele>
        <time>2012-08-05T19:39:54.126Z</time>
      </trkpt>
      <trkpt lat="47.44097" lon="-0.45326">
        <ele>19</ele>
        <time>2012-08-05T19:39:58.126Z</time>
      </trkpt>
      <trkpt lat="47.44097" lon="-0.45334">
        <ele>18</ele>
        <time>2012-08-05T19:40:02.126Z</time>
      </trkpt>
      <trkpt lat="47.44096" lon="-0.45341">
        <ele>18</ele>
        <time>2012-08-05T19:40:06.126Z</time>
      </trkpt>
      <trkpt lat="47.44096" lon="-0.45349">
        <ele>18</ele>
        <time>2012-08-05T19:40:10.126Z</time>
      </trkpt>
      <trkpt lat="47.44095" lon="-0.45356">
        <ele>18</ele>
        <time>2012-08-05T19:40:14.126Z</time>
      </trkpt>
      <trkpt lat="47.44095" lon="-0.45364">
        <ele>18</ele>
        <time>2012-08-05T19:40:18.126Z</time>
      </trkpt>
      <trkpt lat="47.44094" lon="-0.45372">
        <ele>17</ele>
        <time>2012-08-05T19:40:22.126Z</time>
      </trkpt>
      <trkpt lat="47.44092" lon="-0.45379">
        <ele>17</ele>
        <time>2012-08-05T19:40:26.126Z</time>
      </trkpt>
      <trkpt lat="47.44091" lon="-0.45386">
        <ele>17</ele>
        <time>2012-08-05T19:40:30.126Z</time>
      </trkpt>
      <trkpt lat="47.44091" lon="-0.45395">
        <ele>17</ele>
        <time>2012-08-05T19:40:34.126Z</time>
      </trkpt>
      <trkpt lat="47.4409" lon="-0.45403">
        <ele>17</ele>
        <time>2012-08-05T19:40:38.126Z</time>
      </trkpt>
      <trkpt lat="47.4409" lon="-0.45411">
        <ele>16</ele>
        <time>2012-08-05T19:40:42.126Z</time>
      </trkpt>
      <trkpt lat="47.44089" lon="-0.45418">
        <ele>16</ele>
        <time>2012-08-05T19:40:46.126Z</time>
      </trkpt>
      <trkpt lat="47.44088" lon="-0.45426">
        <ele>16</ele>
        <time>2012-08-05T19:40:50.126Z</time>
      </trkpt>
      <trkpt lat="47.44087" lon="-0.45433">
        <ele>16</ele>
        <time>2012-08-05T19:40:54.126Z</time>
      </trkpt>
      <trkpt lat="47.44085" lon="-0.4544">
        <ele>16</ele>
        <time>2012-08-05T19:40:58.126Z</time>
      </trkpt>
      <trkpt lat="47.44084" lon="-0.45446">
        <ele>16</ele>
        <time>2012-08-05T19:41:02.126Z</time>
      </trkpt>
      <trkpt lat="47.44084" lon="-0.45453">
        <ele>16</ele>
        <time>2012-08-05T19:41:06.126Z</time>
      </trkpt>
      <trkpt lat="47.44084" lon="-0.4546">
        <ele>16</ele>
        <time>2012-08-05T19:41:11.126Z</time>
      </trkpt>
      <trkpt lat="47.44083" lon="-0.45468">
        <ele>16</ele>
        <time>2012-08-05T19:41:16.126Z</time>
      </trkpt>
      <trkpt lat="47.44081" lon="-0.45474">
        <ele>16</ele>
        <time>2012-08-05T19:41:21.126Z</time>
      </trkpt>
      <trkpt lat="47.44079" lon="-0.45481">
        <ele>16</ele>
        <time>2012-08-05T19:41:26.126Z</time>
      </trkpt>
      <trkpt lat="47.44077" lon="-0.45488">
        <ele>16</ele>
        <time>2012-08-05T19:41:31.126Z</time>
      </trkpt>
      <trkpt lat="47.44076" lon="-0.45495">
        <ele>16</ele>
        <time>2012-08-05T19:41:36.126Z</time>
      </trkpt>
      <trkpt lat="47.44075" lon="-0.45503">
        <ele>17</ele>
        <time>2012-08-05T19:41:41.126Z</time>
      </trkpt>
      <trkpt lat="47.44074" lon="-0.45511">
        <ele>17</ele>
        <time>2012-08-05T19:41:46.126Z</time>
      </trkpt>
      <trkpt lat="47.44073" lon="-0.45517">
        <ele>17</ele>
        <time>2012-08-05T19:41:50.126Z</time>
      </trkpt>
      <trkpt lat="47.44072" lon="-0.45525">
        <ele>17</ele>
        <time>2012-08-05T19:41:55.126Z</time>
      </trkpt>
      <trkpt lat="47.4407" lon="-0.45532">
        <ele>18</ele>
        <time>2012-08-05T19:42:00.126Z</time>
      </trkpt>
      <trkpt lat="47.44067" lon="-0.45539">
        <ele>18</ele>
        <time>2012-08-05T19:42:05.126Z</time>
      </trkpt>
      <trkpt lat="47.44064" lon="-0.45546">
        <ele>18</ele>
        <time>2012-08-05T19:42:10.126Z</time>
      </trkpt>
      <trkpt lat="47.44061" lon="-0.45553">
        <ele>18</ele>
        <time>2012-08-05T19:42:15.126Z</time>
      </trkpt>
      <trkpt lat="47.44059" lon="-0.4556">
        <ele>18</ele>
        <time>2012-08-05T19:42:20.126Z</time>
      </trkpt>
      <trkpt lat="47.44058" lon="-0.45568">
        <ele>18</ele>
        <time>2012-08-05T19:42:25.126Z</time>
      </trkpt>
      <trkpt lat="47.44056" lon="-0.45574">
        <ele>18</ele>
        <time>2012-08-05T19:42:30.126Z</time>
      </trkpt>
      <trkpt lat="47.44053" lon="-0.4558">
        <ele>18</ele>
        <time>2012-08-05T19:42:35.126Z</time>
      </trkpt>
      <trkpt lat="47.44051" lon="-0.45587">
        <ele>19</ele>
        <time>2012-08-05T19:42:40.126Z</time>
      </trkpt>
      <trkpt lat="47.44048" lon="-0.45592">
        <ele>19</ele>
        <time>2012-08-05T19:42:45.126Z</time>
      </trkpt>
      <trkpt lat="47.44045" lon="-0.45598">
        <ele>19</ele>
        <time>2012-08-05T19:42:51.126Z</time>
      </trkpt>
      <trkpt lat="47.44045" lon="-0.45604">
        <ele>19</ele>
        <time>2012-08-05T19:43:06.126Z</time>
      </trkpt>
      <trkpt lat="47.44045" lon="-0.45611">
        <ele>19</ele>
        <time>2012-08-05T19:43:15.126Z</time>
      </trkpt>
      <trkpt lat="47.44041" lon="-0.45606">
        <ele>19</ele>
        <time>2012-08-05T19:43:53.126Z</time>
      </trkpt>
      <trkpt lat="47.44039" lon="-0.456">
        <ele>19</ele>
        <time>2012-08-05T19:44:47.126Z</time>
      </trkpt>
      <trkpt lat="47.44035" lon="-0.45597">
        <ele>19</ele>
        <time>2012-08-05T19:45:09.126Z</time>
      </trkpt>
      <trkpt lat="47.44031" lon="-0.45594">
        <ele>19</ele>
        <time>2012-08-05T19:45:21.126Z</time>
      </trkpt>
      <trkpt lat="47.44029" lon="-0.45601">
        <ele>19</ele>
        <time>2012-08-05T19:45:35.126Z</time>
      </trkpt>
      <trkpt lat="47.4403" lon="-0.45607">
        <ele>19</ele>
        <time>2012-08-05T19:45:42.126Z</time>
      </trkpt>
      <trkpt lat="47.44033" lon="-0.45612">
        <ele>19</ele>
        <time>2012-08-05T19:45:49.126Z</time>
      </trkpt>
      <trkpt lat="47.44037" lon="-0.45614">
        <ele>19</ele>
        <time>2012-08-05T19:46:04.126Z</time>
      </trkpt>
      <trkpt lat="47.44077" lon="-0.45594">
        <ele>18</ele>
        <time>2012-08-05T19:46:47.126Z</time>
      </trkpt>
      <trkpt lat="47.44077" lon="-0.45594">
        <ele>18</ele>
        <time>2012-08-05T19:46:47.126Z</time>
      </trkpt>
      <trkpt lat="47.44077" lon="-0.45594">
        <ele>18</ele>
        <time>2012-08-05T19:46:51.126Z</time>
      </trkpt>
      <trkpt lat="47.44053" lon="-0.45567">
        <ele>18</ele>
        <time>2012-08-05T19:47:00.126Z</time>
      </trkpt>
      <trkpt lat="47.44045" lon="-0.45563">
        <ele>18</ele>
        <time>2012-08-05T19:47:01.126Z</time>
      </trkpt>
      <trkpt lat="47.4404" lon="-0.45558">
        <ele>18</ele>
        <time>2012-08-05T19:47:03.126Z</time>
      </trkpt>
      <trkpt lat="47.44045" lon="-0.45556">
        <ele>18</ele>
        <time>2012-08-05T19:47:09.126Z</time>
      </trkpt>
      <trkpt lat="47.44048" lon="-0.45559">
        <ele>18</ele>
        <time>2012-08-05T19:47:23.126Z</time>
      </trkpt>
      <trkpt lat="47.44051" lon="-0.45567">
        <ele>18</ele>
        <time>2012-08-05T19:47:26.126Z</time>
      </trkpt>
      <trkpt lat="47.44053" lon="-0.45574">
        <ele>18</ele>
        <time>2012-08-05T19:47:30.126Z</time>
      </trkpt>
      <trkpt lat="47.44056" lon="-0.4558">
        <ele>18</ele>
        <time>2012-08-05T19:47:37.126Z</time>
      </trkpt>
      <trkpt lat="47.44054" lon="-0.45586">
        <ele>19</ele>
        <time>2012-08-05T19:48:05.126Z</time>
      </trkpt>
      <trkpt lat="47.44051" lon="-0.45592">
        <ele>19</ele>
        <time>2012-08-05T19:48:36.126Z</time>
      </trkpt>
      <trkpt lat="47.44055" lon="-0.45596">
        <ele>19</ele>
        <time>2012-08-05T19:51:10.126Z</time>
      </trkpt>
      <trkpt lat="47.44058" lon="-0.45592">
        <ele>19</ele>
        <time>2012-08-05T19:52:20.126Z</time>
      </trkpt>
      <trkpt lat="47.44054" lon="-0.4559">
        <ele>19</ele>
        <time>2012-08-05T19:52:44.126Z</time>
      </trkpt>
      <trkpt lat="47.44049" lon="-0.45592">
        <ele>19</ele>
        <time>2012-08-05T19:52:53.126Z</time>
      </trkpt>
      <trkpt lat="47.44046" lon="-0.45597">
        <ele>19</ele>
        <time>2012-08-05T19:53:10.126Z</time>
      </trkpt>
      <trkpt lat="47.44045" lon="-0.4559">
        <ele>19</ele>
        <time>2012-08-05T19:53:41.126Z</time>
      </trkpt>
      <trkpt lat="47.4405" lon="-0.4559">
        <ele>19</ele>
        <time>2012-08-05T19:53:49.126Z</time>
      </trkpt>
      <trkpt lat="47.44045" lon="-0.45591">
        <ele>19</ele>
        <time>2012-08-05T19:57:26.126Z</time>
      </trkpt>
      <trkpt lat="47.4404" lon="-0.45591">
        <ele>19</ele>
        <time>2012-08-05T19:57:34.126Z</time>
      </trkpt>
      <trkpt lat="47.44035" lon="-0.45592">
        <ele>19</ele>
        <time>2012-08-05T19:57:39.126Z</time>
      </trkpt>
      <trkpt lat="47.4403" lon="-0.45593">
        <ele>19</ele>
        <time>2012-08-05T19:57:44.126Z</time>
      </trkpt>
      <trkpt lat="47.44025" lon="-0.45594">
        <ele>19</ele>
        <time>2012-08-05T19:57:50.126Z</time>
      </trkpt>
      <trkpt lat="47.4402" lon="-0.45595">
        <ele>19</ele>
        <time>2012-08-05T19:57:57.126Z</time>
      </trkpt>
      <trkpt lat="47.44015" lon="-0.45596">
        <ele>19</ele>
        <time>2012-08-05T19:58:06.126Z</time>
      </trkpt>
      <trkpt lat="47.4401" lon="-0.45597">
        <ele>19</ele>
        <time>2012-08-05T19:58:14.126Z</time>
      </trkpt>
      <trkpt lat="47.44006" lon="-0.45597">
        <ele>19</ele>
        <time>2012-08-05T19:58:22.126Z</time>
      </trkpt>
      <trkpt lat="47.44001" lon="-0.45598">
        <ele>20</ele>
        <time>2012-08-05T19:58:29.126Z</time>
      </trkpt>
      <trkpt lat="47.43996" lon="-0.45598">
        <ele>20</ele>
        <time>2012-08-05T19:58:38.126Z</time>
      </trkpt>
      <trkpt lat="47.43991" lon="-0.45599">
        <ele>20</ele>
        <time>2012-08-05T19:58:46.126Z</time>
      </trkpt>
      <trkpt lat="47.43986" lon="-0.456">
        <ele>20</ele>
        <time>2012-08-05T19:58:53.126Z</time>
      </trkpt>
      <trkpt lat="47.43981" lon="-0.45599">
        <ele>19</ele>
        <time>2012-08-05T19:58:59.126Z</time>
      </trkpt>
      <trkpt lat="47.43976" lon="-0.45598">
        <ele>19</ele>
        <time>2012-08-05T19:59:04.126Z</time>
      </trkpt>
      <trkpt lat="47.43972" lon="-0.45596">
        <ele>19</ele>
        <time>2012-08-05T19:59:08.126Z</time>
      </trkpt>
      <trkpt lat="47.43967" lon="-0.45594">
        <ele>19</ele>
        <time>2012-08-05T19:59:12.126Z</time>
      </trkpt>
      <trkpt lat="47.43962" lon="-0.45593">
        <ele>19</ele>
        <time>2012-08-05T19:59:17.126Z</time>
      </trkpt>
      <trkpt lat="47.43958" lon="-0.45591">
        <ele>19</ele>
        <time>2012-08-05T19:59:21.126Z</time>
      </trkpt>
      <trkpt lat="47.43953" lon="-0.45591">
        <ele>19</ele>
        <time>2012-08-05T19:59:27.126Z</time>
      </trkpt>
      <trkpt lat="47.43948" lon="-0.4559">
        <ele>19</ele>
        <time>2012-08-05T19:59:33.126Z</time>
      </trkpt>
      <trkpt lat="47.43943" lon="-0.45589">
        <ele>19</ele>
        <time>2012-08-05T19:59:39.126Z</time>
      </trkpt>
      <trkpt lat="47.43937" lon="-0.45587">
        <ele>19</ele>
        <time>2012-08-05T19:59:45.126Z</time>
      </trkpt>
      <trkpt lat="47.43932" lon="-0.45586">
        <ele>19</ele>
        <time>2012-08-05T19:59:50.126Z</time>
      </trkpt>
      <trkpt lat="47.43928" lon="-0.45586">
        <ele>18</ele>
        <time>2012-08-05T19:59:54.126Z</time>
      </trkpt>
      <trkpt lat="47.43922" lon="-0.45584">
        <ele>18</ele>
        <time>2012-08-05T19:59:58.126Z</time>
      </trkpt>
      <trkpt lat="47.43917" lon="-0.45582">
        <ele>18</ele>
        <time>2012-08-05T20:00:02.126Z</time>
      </trkpt>
      <trkpt lat="47.43912" lon="-0.45581">
        <ele>18</ele>
        <time>2012-08-05T20:00:07.126Z</time>
      </trkpt>
      <trkpt lat="47.43907" lon="-0.4558">
        <ele>17</ele>
        <time>2012-08-05T20:00:12.126Z</time>
      </trkpt>
      <trkpt lat="47.43902" lon="-0.45579">
        <ele>17</ele>
        <time>2012-08-05T20:00:16.126Z</time>
      </trkpt>
      <trkpt lat="47.43897" lon="-0.45578">
        <ele>17</ele>
        <time>2012-08-05T20:00:22.126Z</time>
      </trkpt>
      <trkpt lat="47.43891" lon="-0.45578">
        <ele>17</ele>
        <time>2012-08-05T20:00:28.126Z</time>
      </trkpt>
      <trkpt lat="47.43887" lon="-0.45578">
        <ele>17</ele>
        <time>2012-08-05T20:00:32.126Z</time>
      </trkpt>
      <trkpt lat="47.43883" lon="-0.45574">
        <ele>16</ele>
        <time>2012-08-05T20:00:36.126Z</time>
      </trkpt>
      <trkpt lat="47.4388" lon="-0.45568">
        <ele>16</ele>
        <time>2012-08-05T20:00:45.126Z</time>
      </trkpt>
      <trkpt lat="47.43881" lon="-0.45561">
        <ele>16</ele>
        <time>2012-08-05T20:01:04.126Z</time>
      </trkpt>
      <trkpt lat="47.43884" lon="-0.45556">
        <ele>16</ele>
        <time>2012-08-05T20:01:19.126Z</time>
      </trkpt>
      <trkpt lat="47.43886" lon="-0.45551">
        <ele>16</ele>
        <time>2012-08-05T20:01:41.126Z</time>
      </trkpt>
      <trkpt lat="47.43884" lon="-0.45556">
        <ele>16</ele>
        <time>2012-08-05T20:02:48.126Z</time>
      </trkpt>
      <trkpt lat="47.43886" lon="-0.45563">
        <ele>16</ele>
        <time>2012-08-05T20:03:14.126Z</time>
      </trkpt>
      <trkpt lat="47.43868" lon="-0.45566">
        <ele>16</ele>
        <time>2012-08-05T20:06:30.126Z</time>
      </trkpt>
      <trkpt lat="47.43859" lon="-0.45566">
        <ele>16</ele>
        <time>2012-08-05T20:06:31.126Z</time>
      </trkpt>
      <trkpt lat="47.43859" lon="-0.45566">
        <ele>16</ele>
        <time>2012-08-05T20:06:31.126Z</time>
      </trkpt>
      <trkpt lat="47.43859" lon="-0.45566">
        <ele>16</ele>
        <time>2012-08-05T20:06:34.126Z</time>
      </trkpt>
      <trkpt lat="47.43848" lon="-0.45564">
        <ele>16</ele>
        <time>2012-08-05T20:06:35.126Z</time>
      </trkpt>
      <trkpt lat="47.43844" lon="-0.45561">
        <ele>16</ele>
        <time>2012-08-05T20:06:42.126Z</time>
      </trkpt>
      <trkpt lat="47.4384" lon="-0.45557">
        <ele>16</ele>
        <time>2012-08-05T20:06:47.126Z</time>
      </trkpt>
      <trkpt lat="47.43835" lon="-0.45554">
        <ele>16</ele>
        <time>2012-08-05T20:06:51.126Z</time>
      </trkpt>
      <trkpt lat="47.4383" lon="-0.45551">
        <ele>15</ele>
        <time>2012-08-05T20:06:55.126Z</time>
      </trkpt>
      <trkpt lat="47.43825" lon="-0.4555">
        <ele>15</ele>
        <time>2012-08-05T20:06:58.126Z</time>
      </trkpt>
      <trkpt lat="47.4382" lon="-0.45549">
        <ele>15</ele>
        <time>2012-08-05T20:07:01.126Z</time>
      </trkpt>
      <trkpt lat="47.43814" lon="-0.45548">
        <ele>15</ele>
        <time>2012-08-05T20:07:05.126Z</time>
      </trkpt>
      <trkpt lat="47.43808" lon="-0.45546">
        <ele>15</ele>
        <time>2012-08-05T20:07:09.126Z</time>
      </trkpt>
      <trkpt lat="47.43803" lon="-0.45545">
        <ele>15</ele>
        <time>2012-08-05T20:07:13.126Z</time>
      </trkpt>
      <trkpt lat="47.43798" lon="-0.45544">
        <ele>15</ele>
        <time>2012-08-05T20:07:17.126Z</time>
      </trkpt>
      <trkpt lat="47.43793" lon="-0.45544">
        <ele>15</ele>
        <time>2012-08-05T20:07:21.126Z</time>
      </trkpt>
      <trkpt lat="47.43788" lon="-0.45543">
        <ele>16</ele>
        <time>2012-08-05T20:07:25.126Z</time>
      </trkpt>
      <trkpt lat="47.43782" lon="-0.45542">
        <ele>16</ele>
        <time>2012-08-05T20:07:29.126Z</time>
      </trkpt>
      <trkpt lat="47.43777" lon="-0.45541">
        <ele>16</ele>
        <time>2012-08-05T20:07:33.126Z</time>
      </trkpt>
      <trkpt lat="47.43772" lon="-0.4554">
        <ele>16</ele>
        <time>2012-08-05T20:07:37.126Z</time>
      </trkpt>
      <trkpt lat="47.43767" lon="-0.45539">
        <ele>16</ele>
        <time>2012-08-05T20:07:41.126Z</time>
      </trkpt>
      <trkpt lat="47.43762" lon="-0.45538">
        <ele>16</ele>
        <time>2012-08-05T20:07:45.126Z</time>
      </trkpt>
      <trkpt lat="47.43757" lon="-0.45538">
        <ele>16</ele>
        <time>2012-08-05T20:07:49.126Z</time>
      </trkpt>
      <trkpt lat="47.43752" lon="-0.45538">
        <ele>16</ele>
        <time>2012-08-05T20:07:53.126Z</time>
      </trkpt>
      <trkpt lat="47.43746" lon="-0.45537">
        <ele>16</ele>
        <time>2012-08-05T20:07:57.126Z</time>
      </trkpt>
      <trkpt lat="47.43741" lon="-0.45536">
        <ele>16</ele>
        <time>2012-08-05T20:08:01.126Z</time>
      </trkpt>
      <trkpt lat="47.43736" lon="-0.45534">
        <ele>16</ele>
        <time>2012-08-05T20:08:05.126Z</time>
      </trkpt>
      <trkpt lat="47.4373" lon="-0.45533">
        <ele>16</ele>
        <time>2012-08-05T20:08:09.126Z</time>
      </trkpt>
      <trkpt lat="47.43725" lon="-0.45532">
        <ele>16</ele>
        <time>2012-08-05T20:08:13.126Z</time>
      </trkpt>
      <trkpt lat="47.4372" lon="-0.45533">
        <ele>16</ele>
        <time>2012-08-05T20:08:22.126Z</time>
      </trkpt>
      <trkpt lat="47.43715" lon="-0.45532">
        <ele>16</ele>
        <time>2012-08-05T20:08:26.126Z</time>
      </trkpt>
      <trkpt lat="47.4371" lon="-0.45532">
        <ele>16</ele>
        <time>2012-08-05T20:08:30.126Z</time>
      </trkpt>
      <trkpt lat="47.43705" lon="-0.45529">
        <ele>16</ele>
        <time>2012-08-05T20:08:34.126Z</time>
      </trkpt>
      <trkpt lat="47.437" lon="-0.45526">
        <ele>16</ele>
        <time>2012-08-05T20:08:38.126Z</time>
      </trkpt>
      <trkpt lat="47.43696" lon="-0.45522">
        <ele>16</ele>
        <time>2012-08-05T20:08:42.126Z</time>
      </trkpt>
      <trkpt lat="47.43692" lon="-0.45516">
        <ele>16</ele>
        <time>2012-08-05T20:08:46.126Z</time>
      </trkpt>
      <trkpt lat="47.4369" lon="-0.4551">
        <ele>16</ele>
        <time>2012-08-05T20:08:50.126Z</time>
      </trkpt>
      <trkpt lat="47.43687" lon="-0.45502">
        <ele>16</ele>
        <time>2012-08-05T20:08:54.126Z</time>
      </trkpt>
      <trkpt lat="47.43685" lon="-0.45495">
        <ele>16</ele>
        <time>2012-08-05T20:08:58.126Z</time>
      </trkpt>
      <trkpt lat="47.43684" lon="-0.45486">
        <ele>16</ele>
        <time>2012-08-05T20:09:02.126Z</time>
      </trkpt>
      <trkpt lat="47.43683" lon="-0.45479">
        <ele>16</ele>
        <time>2012-08-05T20:09:05.126Z</time>
      </trkpt>
      <trkpt lat="47.43683" lon="-0.45472">
        <ele>16</ele>
        <time>2012-08-05T20:09:08.126Z</time>
      </trkpt>
      <trkpt lat="47.43683" lon="-0.45465">
        <ele>16</ele>
        <time>2012-08-05T20:09:12.126Z</time>
      </trkpt>
      <trkpt lat="47.43684" lon="-0.45457">
        <ele>15</ele>
        <time>2012-08-05T20:09:16.126Z</time>
      </trkpt>
      <trkpt lat="47.43685" lon="-0.45449">
        <ele>15</ele>
        <time>2012-08-05T20:09:20.126Z</time>
      </trkpt>
      <trkpt lat="47.43685" lon="-0.45442">
        <ele>15</ele>
        <time>2012-08-05T20:09:23.126Z</time>
      </trkpt>
      <trkpt lat="47.43686" lon="-0.45435">
        <ele>15</ele>
        <time>2012-08-05T20:09:26.126Z</time>
      </trkpt>
      <trkpt lat="47.43686" lon="-0.45428">
        <ele>15</ele>
        <time>2012-08-05T20:09:29.126Z</time>
      </trkpt>
      <trkpt lat="47.43686" lon="-0.45421">
        <ele>15</ele>
        <time>2012-08-05T20:09:32.126Z</time>
      </trkpt>
      <trkpt lat="47.43687" lon="-0.45413">
        <ele>15</ele>
        <time>2012-08-05T20:09:36.126Z</time>
      </trkpt>
      <trkpt lat="47.4369" lon="-0.45406">
        <ele>15</ele>
        <time>2012-08-05T20:09:42.126Z</time>
      </trkpt>
      <trkpt lat="47.43691" lon="-0.45399">
        <ele>15</ele>
        <time>2012-08-05T20:09:47.126Z</time>
      </trkpt>
      <trkpt lat="47.43693" lon="-0.45392">
        <ele>15</ele>
        <time>2012-08-05T20:09:51.126Z</time>
      </trkpt>
      <trkpt lat="47.43694" lon="-0.45386">
        <ele>15</ele>
        <time>2012-08-05T20:09:54.126Z</time>
      </trkpt>
      <trkpt lat="47.43695" lon="-0.45379">
        <ele>15</ele>
        <time>2012-08-05T20:09:57.126Z</time>
      </trkpt>
      <trkpt lat="47.43696" lon="-0.45372">
        <ele>15</ele>
        <time>2012-08-05T20:10:01.126Z</time>
      </trkpt>
      <trkpt lat="47.43698" lon="-0.45365">
        <ele>15</ele>
        <time>2012-08-05T20:10:05.126Z</time>
      </trkpt>
      <trkpt lat="47.43698" lon="-0.45358">
        <ele>15</ele>
        <time>2012-08-05T20:10:09.126Z</time>
      </trkpt>
      <trkpt lat="47.43699" lon="-0.45351">
        <ele>15</ele>
        <time>2012-08-05T20:10:13.126Z</time>
      </trkpt>
      <trkpt lat="47.437" lon="-0.45343">
        <ele>15</ele>
        <time>2012-08-05T20:10:17.126Z</time>
      </trkpt>
      <trkpt lat="47.43701" lon="-0.45334">
        <ele>15</ele>
        <time>2012-08-05T20:10:21.126Z</time>
      </trkpt>
      <trkpt lat="47.43702" lon="-0.45326">
        <ele>15</ele>
        <time>2012-08-05T20:10:25.126Z</time>
      </trkpt>
      <trkpt lat="47.43703" lon="-0.45319">
        <ele>15</ele>
        <time>2012-08-05T20:10:28.126Z</time>
      </trkpt>
      <trkpt lat="47.43705" lon="-0.45312">
        <ele>15</ele>
        <time>2012-08-05T20:10:31.126Z</time>
      </trkpt>
      <trkpt lat="47.43706" lon="-0.45305">
        <ele>15</ele>
        <time>2012-08-05T20:10:34.126Z</time>
      </trkpt>
      <trkpt lat="47.43708" lon="-0.45299">
        <ele>15</ele>
        <time>2012-08-05T20:10:37.126Z</time>
      </trkpt>
      <trkpt lat="47.43709" lon="-0.45292">
        <ele>15</ele>
        <time>2012-08-05T20:10:40.126Z</time>
      </trkpt>
      <trkpt lat="47.4371" lon="-0.45286">
        <ele>15</ele>
        <time>2012-08-05T20:10:43.126Z</time>
      </trkpt>
      <trkpt lat="47.43712" lon="-0.45279">
        <ele>15</ele>
        <time>2012-08-05T20:10:46.126Z</time>
      </trkpt>
      <trkpt lat="47.43713" lon="-0.45271">
        <ele>15</ele>
        <time>2012-08-05T20:10:50.126Z</time>
      </trkpt>
      <trkpt lat="47.43715" lon="-0.45264">
        <ele>15</ele>
        <time>2012-08-05T20:10:54.126Z</time>
      </trkpt>
      <trkpt lat="47.43717" lon="-0.45256">
        <ele>15</ele>
        <time>2012-08-05T20:10:58.126Z</time>
      </trkpt>
      <trkpt lat="47.4372" lon="-0.45248">
        <ele>15</ele>
        <time>2012-08-05T20:11:02.126Z</time>
      </trkpt>
      <trkpt lat="47.43721" lon="-0.45241">
        <ele>15</ele>
        <time>2012-08-05T20:11:06.126Z</time>
      </trkpt>
      <trkpt lat="47.43723" lon="-0.45234">
        <ele>15</ele>
        <time>2012-08-05T20:11:10.126Z</time>
      </trkpt>
      <trkpt lat="47.43725" lon="-0.45226">
        <ele>15</ele>
        <time>2012-08-05T20:11:14.126Z</time>
      </trkpt>
      <trkpt lat="47.43726" lon="-0.45219">
        <ele>15</ele>
        <time>2012-08-05T20:11:18.126Z</time>
      </trkpt>
      <trkpt lat="47.43728" lon="-0.45211">
        <ele>15</ele>
        <time>2012-08-05T20:11:22.126Z</time>
      </trkpt>
      <trkpt lat="47.43728" lon="-0.45204">
        <ele>16</ele>
        <time>2012-08-05T20:11:25.126Z</time>
      </trkpt>
      <trkpt lat="47.43729" lon="-0.45196">
        <ele>16</ele>
        <time>2012-08-05T20:11:29.126Z</time>
      </trkpt>
      <trkpt lat="47.43731" lon="-0.45187">
        <ele>16</ele>
        <time>2012-08-05T20:11:33.126Z</time>
      </trkpt>
      <trkpt lat="47.43731" lon="-0.45179">
        <ele>16</ele>
        <time>2012-08-05T20:11:37.126Z</time>
      </trkpt>
      <trkpt lat="47.43731" lon="-0.45171">
        <ele>16</ele>
        <time>2012-08-05T20:11:41.126Z</time>
      </trkpt>
      <trkpt lat="47.43733" lon="-0.45164">
        <ele>16</ele>
        <time>2012-08-05T20:11:45.126Z</time>
      </trkpt>
      <trkpt lat="47.43734" lon="-0.45156">
        <ele>16</ele>
        <time>2012-08-05T20:11:49.126Z</time>
      </trkpt>
      <trkpt lat="47.43735" lon="-0.45148">
        <ele>16</ele>
        <time>2012-08-05T20:11:53.126Z</time>
      </trkpt>
      <trkpt lat="47.43736" lon="-0.4514">
        <ele>16</ele>
        <time>2012-08-05T20:11:57.126Z</time>
      </trkpt>
      <trkpt lat="47.43736" lon="-0.45132">
        <ele>15</ele>
        <time>2012-08-05T20:12:01.126Z</time>
      </trkpt>
      <trkpt lat="47.43737" lon="-0.45124">
        <ele>15</ele>
        <time>2012-08-05T20:12:05.126Z</time>
      </trkpt>
      <trkpt lat="47.43737" lon="-0.45116">
        <ele>15</ele>
        <time>2012-08-05T20:12:09.126Z</time>
      </trkpt>
      <trkpt lat="47.43737" lon="-0.45109">
        <ele>15</ele>
        <time>2012-08-05T20:12:13.126Z</time>
      </trkpt>
      <trkpt lat="47.43738" lon="-0.45102">
        <ele>15</ele>
        <time>2012-08-05T20:12:17.126Z</time>
      </trkpt>
      <trkpt lat="47.43739" lon="-0.45095">
        <ele>15</ele>
        <time>2012-08-05T20:12:21.126Z</time>
      </trkpt>
      <trkpt lat="47.43739" lon="-0.45087">
        <ele>15</ele>
        <time>2012-08-05T20:12:25.126Z</time>
      </trkpt>
      <trkpt lat="47.43739" lon="-0.4508">
        <ele>14</ele>
        <time>2012-08-05T20:12:29.126Z</time>
      </trkpt>
      <trkpt lat="47.43737" lon="-0.45073">
        <ele>15</ele>
        <time>2012-08-05T20:12:33.126Z</time>
      </trkpt>
      <trkpt lat="47.43736" lon="-0.45066">
        <ele>15</ele>
        <time>2012-08-05T20:12:37.126Z</time>
      </trkpt>
      <trkpt lat="47.43736" lon="-0.45059">
        <ele>15</ele>
        <time>2012-08-05T20:12:41.126Z</time>
      </trkpt>
      <trkpt lat="47.43736" lon="-0.45053">
        <ele>15</ele>
        <time>2012-08-05T20:12:45.126Z</time>
      </trkpt>
      <trkpt lat="47.43736" lon="-0.45046">
        <ele>15</ele>
        <time>2012-08-05T20:12:49.126Z</time>
      </trkpt>
      <trkpt lat="47.43737" lon="-0.45039">
        <ele>15</ele>
        <time>2012-08-05T20:12:53.126Z</time>
      </trkpt>
      <trkpt lat="47.43737" lon="-0.45032">
        <ele>15</ele>
        <time>2012-08-05T20:12:57.126Z</time>
      </trkpt>
      <trkpt lat="47.43737" lon="-0.45025">
        <ele>15</ele>
        <time>2012-08-05T20:13:01.126Z</time>
      </trkpt>
      <trkpt lat="47.43736" lon="-0.45018">
        <ele>15</ele>
        <time>2012-08-05T20:13:05.126Z</time>
      </trkpt>
      <trkpt lat="47.43736" lon="-0.45011">
        <ele>15</ele>
        <time>2012-08-05T20:13:09.126Z</time>
      </trkpt>
      <trkpt lat="47.43735" lon="-0.45004">
        <ele>15</ele>
        <time>2012-08-05T20:13:13.126Z</time>
      </trkpt>
      <trkpt lat="47.43735" lon="-0.44996">
        <ele>15</ele>
        <time>2012-08-05T20:13:18.126Z</time>
      </trkpt>
      <trkpt lat="47.43734" lon="-0.44989">
        <ele>15</ele>
        <time>2012-08-05T20:13:22.126Z</time>
      </trkpt>
      <trkpt lat="47.43734" lon="-0.44982">
        <ele>15</ele>
        <time>2012-08-05T20:13:26.126Z</time>
      </trkpt>
      <trkpt lat="47.43734" lon="-0.44974">
        <ele>15</ele>
        <time>2012-08-05T20:13:30.126Z</time>
      </trkpt>
      <trkpt lat="47.43734" lon="-0.44967">
        <ele>15</ele>
        <time>2012-08-05T20:13:34.126Z</time>
      </trkpt>
      <trkpt lat="47.43734" lon="-0.4496">
        <ele>15</ele>
        <time>2012-08-05T20:13:38.126Z</time>
      </trkpt>
      <trkpt lat="47.43733" lon="-0.44952">
        <ele>15</ele>
        <time>2012-08-05T20:13:42.126Z</time>
      </trkpt>
      <trkpt lat="47.43733" lon="-0.44945">
        <ele>15</ele>
        <time>2012-08-05T20:13:46.126Z</time>
      </trkpt>
      <trkpt lat="47.43732" lon="-0.44938">
        <ele>15</ele>
        <time>2012-08-05T20:13:50.126Z</time>
      </trkpt>
      <trkpt lat="47.43732" lon="-0.44931">
        <ele>16</ele>
        <time>2012-08-05T20:13:54.126Z</time>
      </trkpt>
      <trkpt lat="47.43731" lon="-0.44924">
        <ele>16</ele>
        <time>2012-08-05T20:13:58.126Z</time>
      </trkpt>
      <trkpt lat="47.4373" lon="-0.44917">
        <ele>16</ele>
        <time>2012-08-05T20:14:02.126Z</time>
      </trkpt>
      <trkpt lat="47.4373" lon="-0.44909">
        <ele>16</ele>
        <time>2012-08-05T20:14:06.126Z</time>
      </trkpt>
      <trkpt lat="47.4373" lon="-0.44901">
        <ele>16</ele>
        <time>2012-08-05T20:14:10.126Z</time>
      </trkpt>
      <trkpt lat="47.4373" lon="-0.44893">
        <ele>16</ele>
        <time>2012-08-05T20:14:14.126Z</time>
      </trkpt>
      <trkpt lat="47.43729" lon="-0.44885">
        <ele>16</ele>
        <time>2012-08-05T20:14:18.126Z</time>
      </trkpt>
      <trkpt lat="47.43729" lon="-0.44878">
        <ele>16</ele>
        <time>2012-08-05T20:14:22.126Z</time>
      </trkpt>
      <trkpt lat="47.43728" lon="-0.4487">
        <ele>16</ele>
        <time>2012-08-05T20:14:26.126Z</time>
      </trkpt>
      <trkpt lat="47.43728" lon="-0.44863">
        <ele>16</ele>
        <time>2012-08-05T20:14:30.126Z</time>
      </trkpt>
      <trkpt lat="47.43728" lon="-0.44855">
        <ele>16</ele>
        <time>2012-08-05T20:14:34.126Z</time>
      </trkpt>
      <trkpt lat="47.43727" lon="-0.44847">
        <ele>16</ele>
        <time>2012-08-05T20:14:38.126Z</time>
      </trkpt>
      <trkpt lat="47.43726" lon="-0.44839">
        <ele>16</ele>
        <time>2012-08-05T20:14:42.126Z</time>
      </trkpt>
      <trkpt lat="47.43726" lon="-0.44831">
        <ele>16</ele>
        <time>2012-08-05T20:14:46.126Z</time>
      </trkpt>
      <trkpt lat="47.43725" lon="-0.44822">
        <ele>16</ele>
        <time>2012-08-05T20:14:50.126Z</time>
      </trkpt>
      <trkpt lat="47.43725" lon="-0.44815">
        <ele>16</ele>
        <time>2012-08-05T20:14:54.126Z</time>
      </trkpt>
      <trkpt lat="47.43724" lon="-0.44807">
        <ele>16</ele>
        <time>2012-08-05T20:14:58.126Z</time>
      </trkpt>
      <trkpt lat="47.43723" lon="-0.44799">
        <ele>16</ele>
        <time>2012-08-05T20:15:02.126Z</time>
      </trkpt>
      <trkpt lat="47.43723" lon="-0.44792">
        <ele>16</ele>
        <time>2012-08-05T20:15:06.126Z</time>
      </trkpt>
      <trkpt lat="47.43723" lon="-0.44785">
        <ele>16</ele>
        <time>2012-08-05T20:15:10.126Z</time>
      </trkpt>
      <trkpt lat="47.43722" lon="-0.44778">
        <ele>16</ele>
        <time>2012-08-05T20:15:14.126Z</time>
      </trkpt>
      <trkpt lat="47.43722" lon="-0.4477">
        <ele>16</ele>
        <time>2012-08-05T20:15:18.126Z</time>
      </trkpt>
      <trkpt lat="47.43721" lon="-0.44762">
        <ele>16</ele>
        <time>2012-08-05T20:15:22.126Z</time>
      </trkpt>
      <trkpt lat="47.43721" lon="-0.44754">
        <ele>16</ele>
        <time>2012-08-05T20:15:26.126Z</time>
      </trkpt>
      <trkpt lat="47.43721" lon="-0.44747">
        <ele>16</ele>
        <time>2012-08-05T20:15:30.126Z</time>
      </trkpt>
      <trkpt lat="47.43721" lon="-0.44739">
        <ele>16</ele>
        <time>2012-08-05T20:15:34.126Z</time>
      </trkpt>
      <trkpt lat="47.43721" lon="-0.44732">
        <ele>16</ele>
        <time>2012-08-05T20:15:38.126Z</time>
      </trkpt>
      <trkpt lat="47.4372" lon="-0.44725">
        <ele>16</ele>
        <time>2012-08-05T20:15:42.126Z</time>
      </trkpt>
      <trkpt lat="47.4372" lon="-0.44718">
        <ele>16</ele>
        <time>2012-08-05T20:15:46.126Z</time>
      </trkpt>
      <trkpt lat="47.43719" lon="-0.44711">
        <ele>16</ele>
        <time>2012-08-05T20:15:50.126Z</time>
      </trkpt>
      <trkpt lat="47.43718" lon="-0.44704">
        <ele>16</ele>
        <time>2012-08-05T20:15:54.126Z</time>
      </trkpt>
      <trkpt lat="47.43719" lon="-0.44697">
        <ele>16</ele>
        <time>2012-08-05T20:15:58.126Z</time>
      </trkpt>
      <trkpt lat="47.4372" lon="-0.4469">
        <ele>16</ele>
        <time>2012-08-05T20:16:03.126Z</time>
      </trkpt>
      <trkpt lat="47.43721" lon="-0.44682">
        <ele>16</ele>
        <time>2012-08-05T20:16:08.126Z</time>
      </trkpt>
      <trkpt lat="47.43721" lon="-0.44675">
        <ele>16</ele>
        <time>2012-08-05T20:16:12.126Z</time>
      </trkpt>
      <trkpt lat="47.4372" lon="-0.44667">
        <ele>16</ele>
        <time>2012-08-05T20:16:17.126Z</time>
      </trkpt>
      <trkpt lat="47.43718" lon="-0.44661">
        <ele>15</ele>
        <time>2012-08-05T20:16:21.126Z</time>
      </trkpt>
      <trkpt lat="47.43717" lon="-0.44654">
        <ele>15</ele>
        <time>2012-08-05T20:16:25.126Z</time>
      </trkpt>
      <trkpt lat="47.43718" lon="-0.44646">
        <ele>15</ele>
        <time>2012-08-05T20:16:29.126Z</time>
      </trkpt>
      <trkpt lat="47.43719" lon="-0.44639">
        <ele>15</ele>
        <time>2012-08-05T20:16:33.126Z</time>
      </trkpt>
      <trkpt lat="47.43719" lon="-0.44632">
        <ele>15</ele>
        <time>2012-08-05T20:16:37.126Z</time>
      </trkpt>
      <trkpt lat="47.43719" lon="-0.44624">
        <ele>15</ele>
        <time>2012-08-05T20:16:41.126Z</time>
      </trkpt>
      <trkpt lat="47.43718" lon="-0.44617">
        <ele>15</ele>
        <time>2012-08-05T20:16:45.126Z</time>
      </trkpt>
      <trkpt lat="47.43718" lon="-0.4461">
        <ele>15</ele>
        <time>2012-08-05T20:16:49.126Z</time>
      </trkpt>
      <trkpt lat="47.43718" lon="-0.44603">
        <ele>15</ele>
        <time>2012-08-05T20:16:53.126Z</time>
      </trkpt>
      <trkpt lat="47.43718" lon="-0.44595">
        <ele>15</ele>
        <time>2012-08-05T20:16:57.126Z</time>
      </trkpt>
      <trkpt lat="47.43718" lon="-0.44588">
        <ele>15</ele>
        <time>2012-08-05T20:17:01.126Z</time>
      </trkpt>
      <trkpt lat="47.43718" lon="-0.44581">
        <ele>14</ele>
        <time>2012-08-05T20:17:05.126Z</time>
      </trkpt>
      <trkpt lat="47.43719" lon="-0.44573">
        <ele>14</ele>
        <time>2012-08-05T20:17:09.126Z</time>
      </trkpt>
      <trkpt lat="47.43719" lon="-0.44565">
        <ele>14</ele>
        <time>2012-08-05T20:17:13.126Z</time>
      </trkpt>
      <trkpt lat="47.43719" lon="-0.44558">
        <ele>14</ele>
        <time>2012-08-05T20:17:17.126Z</time>
      </trkpt>
      <trkpt lat="47.4372" lon="-0.44551">
        <ele>14</ele>
        <time>2012-08-05T20:17:21.126Z</time>
      </trkpt>
      <trkpt lat="47.4372" lon="-0.44543">
        <ele>14</ele>
        <time>2012-08-05T20:17:25.126Z</time>
      </trkpt>
      <trkpt lat="47.4372" lon="-0.44536">
        <ele>14</ele>
        <time>2012-08-05T20:17:29.126Z</time>
      </trkpt>
      <trkpt lat="47.4372" lon="-0.44529">
        <ele>14</ele>
        <time>2012-08-05T20:17:33.126Z</time>
      </trkpt>
      <trkpt lat="47.4372" lon="-0.44522">
        <ele>14</ele>
        <time>2012-08-05T20:17:37.126Z</time>
      </trkpt>
      <trkpt lat="47.43721" lon="-0.44515">
        <ele>14</ele>
        <time>2012-08-05T20:17:41.126Z</time>
      </trkpt>
      <trkpt lat="47.43721" lon="-0.44507">
        <ele>14</ele>
        <time>2012-08-05T20:17:45.126Z</time>
      </trkpt>
      <trkpt lat="47.4372" lon="-0.445">
        <ele>14</ele>
        <time>2012-08-05T20:17:49.126Z</time>
      </trkpt>
      <trkpt lat="47.4372" lon="-0.44493">
        <ele>15</ele>
        <time>2012-08-05T20:17:53.126Z</time>
      </trkpt>
      <trkpt lat="47.43719" lon="-0.44486">
        <ele>15</ele>
        <time>2012-08-05T20:17:57.126Z</time>
      </trkpt>
      <trkpt lat="47.43719" lon="-0.44478">
        <ele>15</ele>
        <time>2012-08-05T20:18:01.126Z</time>
      </trkpt>
      <trkpt lat="47.43719" lon="-0.44471">
        <ele>15</ele>
        <time>2012-08-05T20:18:05.126Z</time>
      </trkpt>
      <trkpt lat="47.43719" lon="-0.44463">
        <ele>15</ele>
        <time>2012-08-05T20:18:10.126Z</time>
      </trkpt>
      <trkpt lat="47.43719" lon="-0.44456">
        <ele>15</ele>
        <time>2012-08-05T20:18:14.126Z</time>
      </trkpt>
      <trkpt lat="47.43719" lon="-0.44449">
        <ele>15</ele>
        <time>2012-08-05T20:18:18.126Z</time>
      </trkpt>
      <trkpt lat="47.4372" lon="-0.44442">
        <ele>15</ele>
        <time>2012-08-05T20:18:22.126Z</time>
      </trkpt>
      <trkpt lat="47.4372" lon="-0.44434">
        <ele>15</ele>
        <time>2012-08-05T20:18:26.126Z</time>
      </trkpt>
      <trkpt lat="47.4372" lon="-0.44427">
        <ele>16</ele>
        <time>2012-08-05T20:18:30.126Z</time>
      </trkpt>
      <trkpt lat="47.4372" lon="-0.4442">
        <ele>16</ele>
        <time>2012-08-05T20:18:34.126Z</time>
      </trkpt>
      <trkpt lat="47.4372" lon="-0.44412">
        <ele>16</ele>
        <time>2012-08-05T20:18:38.126Z</time>
      </trkpt>
      <trkpt lat="47.43721" lon="-0.44405">
        <ele>16</ele>
        <time>2012-08-05T20:18:42.126Z</time>
      </trkpt>
      <trkpt lat="47.43721" lon="-0.44397">
        <ele>16</ele>
        <time>2012-08-05T20:18:47.126Z</time>
      </trkpt>
      <trkpt lat="47.43721" lon="-0.44389">
        <ele>16</ele>
        <time>2012-08-05T20:18:52.126Z</time>
      </trkpt>
      <trkpt lat="47.43717" lon="-0.44388">
        <ele>16</ele>
        <time>2012-08-05T20:19:03.126Z</time>
      </trkpt>
      <trkpt lat="47.43717" lon="-0.44381">
        <ele>16</ele>
        <time>2012-08-05T20:19:21.126Z</time>
      </trkpt>
      <trkpt lat="47.4372" lon="-0.44376">
        <ele>16</ele>
        <time>2012-08-05T20:19:30.126Z</time>
      </trkpt>
      <trkpt lat="47.43725" lon="-0.44374">
        <ele>16</ele>
        <time>2012-08-05T20:19:38.126Z</time>
      </trkpt>
      <trkpt lat="47.4373" lon="-0.44373">
        <ele>16</ele>
        <time>2012-08-05T20:19:44.126Z</time>
      </trkpt>
      <trkpt lat="47.43735" lon="-0.44372">
        <ele>16</ele>
        <time>2012-08-05T20:19:50.126Z</time>
      </trkpt>
      <trkpt lat="47.4374" lon="-0.44373">
        <ele>16</ele>
        <time>2012-08-05T20:19:54.126Z</time>
      </trkpt>
      <trkpt lat="47.43746" lon="-0.44374">
        <ele>16</ele>
        <time>2012-08-05T20:19:58.126Z</time>
      </trkpt>
      <trkpt lat="47.43752" lon="-0.44374">
        <ele>16</ele>
        <time>2012-08-05T20:20:02.126Z</time>
      </trkpt>
      <trkpt lat="47.43757" lon="-0.44374">
        <ele>16</ele>
        <time>2012-08-05T20:20:06.126Z</time>
      </trkpt>
      <trkpt lat="47.43762" lon="-0.44373">
        <ele>15</ele>
        <time>2012-08-05T20:20:10.126Z</time>
      </trkpt>
      <trkpt lat="47.43768" lon="-0.44372">
        <ele>15</ele>
        <time>2012-08-05T20:20:14.126Z</time>
      </trkpt>
      <trkpt lat="47.43773" lon="-0.4437">
        <ele>15</ele>
        <time>2012-08-05T20:20:18.126Z</time>
      </trkpt>
      <trkpt lat="47.43778" lon="-0.44368">
        <ele>15</ele>
        <time>2012-08-05T20:20:22.126Z</time>
      </trkpt>
      <trkpt lat="47.43783" lon="-0.44366">
        <ele>15</ele>
        <time>2012-08-05T20:20:26.126Z</time>
      </trkpt>
      <trkpt lat="47.43788" lon="-0.44364">
        <ele>15</ele>
        <time>2012-08-05T20:20:30.126Z</time>
      </trkpt>
      <trkpt lat="47.43793" lon="-0.44362">
        <ele>15</ele>
        <time>2012-08-05T20:20:34.126Z</time>
      </trkpt>
      <trkpt lat="47.43798" lon="-0.4436">
        <ele>15</ele>
        <time>2012-08-05T20:20:38.126Z</time>
      </trkpt>
      <trkpt lat="47.43803" lon="-0.4436">
        <ele>15</ele>
        <time>2012-08-05T20:20:42.126Z</time>
      </trkpt>
      <trkpt lat="47.43808" lon="-0.44359">
        <ele>15</ele>
        <time>2012-08-05T20:20:46.126Z</time>
      </trkpt>
      <trkpt lat="47.43813" lon="-0.44357">
        <ele>15</ele>
        <time>2012-08-05T20:20:50.126Z</time>
      </trkpt>
      <trkpt lat="47.43818" lon="-0.44355">
        <ele>15</ele>
        <time>2012-08-05T20:20:54.126Z</time>
      </trkpt>
      <trkpt lat="47.43824" lon="-0.44353">
        <ele>15</ele>
        <time>2012-08-05T20:20:58.126Z</time>
      </trkpt>
      <trkpt lat="47.43829" lon="-0.44352">
        <ele>15</ele>
        <time>2012-08-05T20:21:02.126Z</time>
      </trkpt>
      <trkpt lat="47.43834" lon="-0.4435">
        <ele>14</ele>
        <time>2012-08-05T20:21:06.126Z</time>
      </trkpt>
      <trkpt lat="47.43839" lon="-0.44348">
        <ele>14</ele>
        <time>2012-08-05T20:21:10.126Z</time>
      </trkpt>
      <trkpt lat="47.43845" lon="-0.44346">
        <ele>14</ele>
        <time>2012-08-05T20:21:14.126Z</time>
      </trkpt>
      <trkpt lat="47.4385" lon="-0.44345">
        <ele>14</ele>
        <time>2012-08-05T20:21:18.126Z</time>
      </trkpt>
      <trkpt lat="47.43855" lon="-0.44343">
        <ele>14</ele>
        <time>2012-08-05T20:21:27.126Z</time>
      </trkpt>
      <trkpt lat="47.4386" lon="-0.44341">
        <ele>14</ele>
        <time>2012-08-05T20:21:33.126Z</time>
      </trkpt>
      <trkpt lat="47.43864" lon="-0.44339">
        <ele>14</ele>
        <time>2012-08-05T20:21:38.126Z</time>
      </trkpt>
      <trkpt lat="47.43869" lon="-0.44337">
        <ele>14</ele>
        <time>2012-08-05T20:21:42.126Z</time>
      </trkpt>
      <trkpt lat="47.43874" lon="-0.44334">
        <ele>14</ele>
        <time>2012-08-05T20:21:46.126Z</time>
      </trkpt>
      <trkpt lat="47.43879" lon="-0.44332">
        <ele>14</ele>
        <time>2012-08-05T20:21:49.126Z</time>
      </trkpt>
      <trkpt lat="47.43883" lon="-0.4433">
        <ele>14</ele>
        <time>2012-08-05T20:21:52.126Z</time>
      </trkpt>
      <trkpt lat="47.43888" lon="-0.44328">
        <ele>14</ele>
        <time>2012-08-05T20:21:55.126Z</time>
      </trkpt>
      <trkpt lat="47.43893" lon="-0.44326">
        <ele>14</ele>
        <time>2012-08-05T20:21:59.126Z</time>
      </trkpt>
      <trkpt lat="47.43898" lon="-0.44324">
        <ele>14</ele>
        <time>2012-08-05T20:22:03.126Z</time>
      </trkpt>
      <trkpt lat="47.43904" lon="-0.44321">
        <ele>14</ele>
        <time>2012-08-05T20:22:07.126Z</time>
      </trkpt>
      <trkpt lat="47.43909" lon="-0.44319">
        <ele>14</ele>
        <time>2012-08-05T20:22:11.126Z</time>
      </trkpt>
      <trkpt lat="47.43915" lon="-0.44317">
        <ele>14</ele>
        <time>2012-08-05T20:22:15.126Z</time>
      </trkpt>
      <trkpt lat="47.4392" lon="-0.44315">
        <ele>14</ele>
        <time>2012-08-05T20:22:19.126Z</time>
      </trkpt>
      <trkpt lat="47.43925" lon="-0.44313">
        <ele>14</ele>
        <time>2012-08-05T20:22:22.126Z</time>
      </trkpt>
      <trkpt lat="47.4393" lon="-0.44311">
        <ele>14</ele>
        <time>2012-08-05T20:22:26.126Z</time>
      </trkpt>
      <trkpt lat="47.43934" lon="-0.44307">
        <ele>14</ele>
        <time>2012-08-05T20:22:29.126Z</time>
      </trkpt>
      <trkpt lat="47.43937" lon="-0.44302">
        <ele>15</ele>
        <time>2012-08-05T20:22:32.126Z</time>
      </trkpt>
      <trkpt lat="47.4394" lon="-0.44297">
        <ele>15</ele>
        <time>2012-08-05T20:22:35.126Z</time>
      </trkpt>
      <trkpt lat="47.43943" lon="-0.44289">
        <ele>15</ele>
        <time>2012-08-05T20:22:39.126Z</time>
      </trkpt>
      <trkpt lat="47.43945" lon="-0.44282">
        <ele>15</ele>
        <time>2012-08-05T20:22:43.126Z</time>
      </trkpt>
      <trkpt lat="47.43946" lon="-0.44275">
        <ele>15</ele>
        <time>2012-08-05T20:22:48.126Z</time>
      </trkpt>
      <trkpt lat="47.43946" lon="-0.44268">
        <ele>15</ele>
        <time>2012-08-05T20:22:53.126Z</time>
      </trkpt>
      <trkpt lat="47.43944" lon="-0.44261">
        <ele>15</ele>
        <time>2012-08-05T20:22:58.126Z</time>
      </trkpt>
      <trkpt lat="47.43942" lon="-0.44255">
        <ele>15</ele>
        <time>2012-08-05T20:23:03.126Z</time>
      </trkpt>
      <trkpt lat="47.4394" lon="-0.44248">
        <ele>15</ele>
        <time>2012-08-05T20:23:08.126Z</time>
      </trkpt>
      <trkpt lat="47.43938" lon="-0.44242">
        <ele>15</ele>
        <time>2012-08-05T20:23:12.126Z</time>
      </trkpt>
      <trkpt lat="47.43936" lon="-0.44236">
        <ele>15</ele>
        <time>2012-08-05T20:23:16.126Z</time>
      </trkpt>
      <trkpt lat="47.43935" lon="-0.44228">
        <ele>15</ele>
        <time>2012-08-05T20:23:20.126Z</time>
      </trkpt>
      <trkpt lat="47.43934" lon="-0.44222">
        <ele>15</ele>
        <time>2012-08-05T20:23:24.126Z</time>
      </trkpt>
      <trkpt lat="47.43932" lon="-0.44215">
        <ele>15</ele>
        <time>2012-08-05T20:23:28.126Z</time>
      </trkpt>
      <trkpt lat="47.43931" lon="-0.44208">
        <ele>15</ele>
        <time>2012-08-05T20:23:32.126Z</time>
      </trkpt>
      <trkpt lat="47.4393" lon="-0.44202">
        <ele>15</ele>
        <time>2012-08-05T20:23:36.126Z</time>
      </trkpt>
      <trkpt lat="47.43929" lon="-0.44195">
        <ele>15</ele>
        <time>2012-08-05T20:23:40.126Z</time>
      </trkpt>
      <trkpt lat="47.43928" lon="-0.44188">
        <ele>15</ele>
        <time>2012-08-05T20:23:44.126Z</time>
      </trkpt>
      <trkpt lat="47.43927" lon="-0.44182">
        <ele>15</ele>
        <time>2012-08-05T20:23:48.126Z</time>
      </trkpt>
      <trkpt lat="47.43926" lon="-0.44174">
        <ele>15</ele>
        <time>2012-08-05T20:23:53.126Z</time>
      </trkpt>
      <trkpt lat="47.43924" lon="-0.44166">
        <ele>15</ele>
        <time>2012-08-05T20:23:58.126Z</time>
      </trkpt>
      <trkpt lat="47.43922" lon="-0.44158">
        <ele>15</ele>
        <time>2012-08-05T20:24:03.125Z</time>
      </trkpt>
      <trkpt lat="47.43922" lon="-0.4415">
        <ele>15</ele>
        <time>2012-08-05T20:24:08.125Z</time>
      </trkpt>
      <trkpt lat="47.43921" lon="-0.44142">
        <ele>15</ele>
        <time>2012-08-05T20:24:13.125Z</time>
      </trkpt>
      <trkpt lat="47.4392" lon="-0.44135">
        <ele>16</ele>
        <time>2012-08-05T20:24:17.125Z</time>
      </trkpt>
      <trkpt lat="47.43918" lon="-0.44128">
        <ele>16</ele>
        <time>2012-08-05T20:24:22.125Z</time>
      </trkpt>
      <trkpt lat="47.43917" lon="-0.4412">
        <ele>16</ele>
        <time>2012-08-05T20:24:27.125Z</time>
      </trkpt>
      <trkpt lat="47.43916" lon="-0.44112">
        <ele>16</ele>
        <time>2012-08-05T20:24:32.125Z</time>
      </trkpt>
      <trkpt lat="47.43915" lon="-0.44105">
        <ele>16</ele>
        <time>2012-08-05T20:24:36.125Z</time>
      </trkpt>
      <trkpt lat="47.43914" lon="-0.44097">
        <ele>16</ele>
        <time>2012-08-05T20:24:40.125Z</time>
      </trkpt>
      <trkpt lat="47.43914" lon="-0.4409">
        <ele>16</ele>
        <time>2012-08-05T20:24:44.125Z</time>
      </trkpt>
      <trkpt lat="47.43913" lon="-0.44083">
        <ele>16</ele>
        <time>2012-08-05T20:24:48.125Z</time>
      </trkpt>
      <trkpt lat="47.43912" lon="-0.44076">
        <ele>16</ele>
        <time>2012-08-05T20:24:52.125Z</time>
      </trkpt>
      <trkpt lat="47.4391" lon="-0.44068">
        <ele>16</ele>
        <time>2012-08-05T20:24:56.125Z</time>
      </trkpt>
      <trkpt lat="47.43909" lon="-0.4406">
        <ele>16</ele>
        <time>2012-08-05T20:25:01.125Z</time>
      </trkpt>
      <trkpt lat="47.43908" lon="-0.44052">
        <ele>17</ele>
        <time>2012-08-05T20:25:06.125Z</time>
      </trkpt>
      <trkpt lat="47.43907" lon="-0.44045">
        <ele>17</ele>
        <time>2012-08-05T20:25:11.125Z</time>
      </trkpt>
      <trkpt lat="47.43908" lon="-0.44037">
        <ele>17</ele>
        <time>2012-08-05T20:25:16.125Z</time>
      </trkpt>
      <trkpt lat="47.43908" lon="-0.4403">
        <ele>17</ele>
        <time>2012-08-05T20:25:20.125Z</time>
      </trkpt>
      <trkpt lat="47.43908" lon="-0.44023">
        <ele>17</ele>
        <time>2012-08-05T20:25:24.125Z</time>
      </trkpt>
      <trkpt lat="47.43907" lon="-0.44016">
        <ele>17</ele>
        <time>2012-08-05T20:25:28.125Z</time>
      </trkpt>
      <trkpt lat="47.43906" lon="-0.44009">
        <ele>17</ele>
        <time>2012-08-05T20:25:32.125Z</time>
      </trkpt>
      <trkpt lat="47.43905" lon="-0.44001">
        <ele>17</ele>
        <time>2012-08-05T20:25:37.125Z</time>
      </trkpt>
      <trkpt lat="47.43904" lon="-0.43993">
        <ele>17</ele>
        <time>2012-08-05T20:25:42.125Z</time>
      </trkpt>
      <trkpt lat="47.43904" lon="-0.43986">
        <ele>17</ele>
        <time>2012-08-05T20:25:47.125Z</time>
      </trkpt>
      <trkpt lat="47.43902" lon="-0.43979">
        <ele>17</ele>
        <time>2012-08-05T20:25:52.125Z</time>
      </trkpt>
      <trkpt lat="47.43901" lon="-0.43971">
        <ele>17</ele>
        <time>2012-08-05T20:25:58.125Z</time>
      </trkpt>
      <trkpt lat="47.439" lon="-0.43964">
        <ele>17</ele>
        <time>2012-08-05T20:26:04.125Z</time>
      </trkpt>
      <trkpt lat="47.43898" lon="-0.43957">
        <ele>17</ele>
        <time>2012-08-05T20:26:10.125Z</time>
      </trkpt>
      <trkpt lat="47.43896" lon="-0.4395">
        <ele>17</ele>
        <time>2012-08-05T20:26:16.125Z</time>
      </trkpt>
      <trkpt lat="47.43894" lon="-0.43943">
        <ele>17</ele>
        <time>2012-08-05T20:26:21.125Z</time>
      </trkpt>
      <trkpt lat="47.43892" lon="-0.43936">
        <ele>17</ele>
        <time>2012-08-05T20:26:26.125Z</time>
      </trkpt>
      <trkpt lat="47.43891" lon="-0.43929">
        <ele>17</ele>
        <time>2012-08-05T20:26:31.125Z</time>
      </trkpt>
      <trkpt lat="47.43888" lon="-0.43922">
        <ele>17</ele>
        <time>2012-08-05T20:26:36.125Z</time>
      </trkpt>
      <trkpt lat="47.43886" lon="-0.43914">
        <ele>16</ele>
        <time>2012-08-05T20:26:41.125Z</time>
      </trkpt>
      <trkpt lat="47.43884" lon="-0.43908">
        <ele>16</ele>
        <time>2012-08-05T20:26:45.125Z</time>
      </trkpt>
      <trkpt lat="47.43883" lon="-0.43901">
        <ele>16</ele>
        <time>2012-08-05T20:26:49.125Z</time>
      </trkpt>
      <trkpt lat="47.43882" lon="-0.43893">
        <ele>16</ele>
        <time>2012-08-05T20:26:54.125Z</time>
      </trkpt>
      <trkpt lat="47.4388" lon="-0.43885">
        <ele>16</ele>
        <time>2012-08-05T20:26:59.125Z</time>
      </trkpt>
      <trkpt lat="47.4388" lon="-0.43878">
        <ele>16</ele>
        <time>2012-08-05T20:27:03.125Z</time>
      </trkpt>
      <trkpt lat="47.4388" lon="-0.43869">
        <ele>16</ele>
        <time>2012-08-05T20:27:07.125Z</time>
      </trkpt>
      <trkpt lat="47.43881" lon="-0.43861">
        <ele>16</ele>
        <time>2012-08-05T20:27:11.125Z</time>
      </trkpt>
      <trkpt lat="47.43881" lon="-0.43854">
        <ele>16</ele>
        <time>2012-08-05T20:27:15.125Z</time>
      </trkpt>
      <trkpt lat="47.4388" lon="-0.43846">
        <ele>16</ele>
        <time>2012-08-05T20:27:19.125Z</time>
      </trkpt>
      <trkpt lat="47.43879" lon="-0.43837">
        <ele>16</ele>
        <time>2012-08-05T20:27:23.125Z</time>
      </trkpt>
      <trkpt lat="47.43878" lon="-0.4383">
        <ele>16</ele>
        <time>2012-08-05T20:27:27.125Z</time>
      </trkpt>
      <trkpt lat="47.43876" lon="-0.43822">
        <ele>16</ele>
        <time>2012-08-05T20:27:31.125Z</time>
      </trkpt>
      <trkpt lat="47.43875" lon="-0.43815">
        <ele>16</ele>
        <time>2012-08-05T20:27:35.125Z</time>
      </trkpt>
      <trkpt lat="47.43874" lon="-0.43808">
        <ele>16</ele>
        <time>2012-08-05T20:27:39.125Z</time>
      </trkpt>
      <trkpt lat="47.43873" lon="-0.43801">
        <ele>16</ele>
        <time>2012-08-05T20:27:44.125Z</time>
      </trkpt>
      <trkpt lat="47.43872" lon="-0.43794">
        <ele>16</ele>
        <time>2012-08-05T20:27:49.125Z</time>
      </trkpt>
      <trkpt lat="47.4387" lon="-0.43787">
        <ele>16</ele>
        <time>2012-08-05T20:27:55.125Z</time>
      </trkpt>
      <trkpt lat="47.43869" lon="-0.4378">
        <ele>16</ele>
        <time>2012-08-05T20:28:01.125Z</time>
      </trkpt>
      <trkpt lat="47.43868" lon="-0.43773">
        <ele>16</ele>
        <time>2012-08-05T20:28:06.125Z</time>
      </trkpt>
      <trkpt lat="47.43868" lon="-0.43766">
        <ele>16</ele>
        <time>2012-08-05T20:28:10.125Z</time>
      </trkpt>
      <trkpt lat="47.43866" lon="-0.4376">
        <ele>16</ele>
        <time>2012-08-05T20:28:15.125Z</time>
      </trkpt>
      <trkpt lat="47.43864" lon="-0.43753">
        <ele>16</ele>
        <time>2012-08-05T20:28:20.125Z</time>
      </trkpt>
      <trkpt lat="47.43864" lon="-0.43746">
        <ele>16</ele>
        <time>2012-08-05T20:28:25.125Z</time>
      </trkpt>
      <trkpt lat="47.43864" lon="-0.43739">
        <ele>16</ele>
        <time>2012-08-05T20:28:30.125Z</time>
      </trkpt>
      <trkpt lat="47.43863" lon="-0.43731">
        <ele>16</ele>
        <time>2012-08-05T20:28:35.125Z</time>
      </trkpt>
      <trkpt lat="47.43863" lon="-0.43724">
        <ele>16</ele>
        <time>2012-08-05T20:28:39.125Z</time>
      </trkpt>
      <trkpt lat="47.43863" lon="-0.43716">
        <ele>16</ele>
        <time>2012-08-05T20:28:44.125Z</time>
      </trkpt>
      <trkpt lat="47.43863" lon="-0.43707">
        <ele>16</ele>
        <time>2012-08-05T20:28:49.125Z</time>
      </trkpt>
      <trkpt lat="47.43863" lon="-0.43699">
        <ele>16</ele>
        <time>2012-08-05T20:28:54.125Z</time>
      </trkpt>
      <trkpt lat="47.43863" lon="-0.43691">
        <ele>16</ele>
        <time>2012-08-05T20:28:59.125Z</time>
      </trkpt>
      <trkpt lat="47.43862" lon="-0.43682">
        <ele>16</ele>
        <time>2012-08-05T20:29:04.125Z</time>
      </trkpt>
      <trkpt lat="47.43862" lon="-0.43674">
        <ele>16</ele>
        <time>2012-08-05T20:29:09.125Z</time>
      </trkpt>
      <trkpt lat="47.43861" lon="-0.43666">
        <ele>16</ele>
        <time>2012-08-05T20:29:14.125Z</time>
      </trkpt>
      <trkpt lat="47.43861" lon="-0.43658">
        <ele>16</ele>
        <time>2012-08-05T20:29:19.125Z</time>
      </trkpt>
      <trkpt lat="47.43859" lon="-0.4365">
        <ele>16</ele>
        <time>2012-08-05T20:29:24.125Z</time>
      </trkpt>
      <trkpt lat="47.43858" lon="-0.43642">
        <ele>16</ele>
        <time>2012-08-05T20:29:29.125Z</time>
      </trkpt>
      <trkpt lat="47.43857" lon="-0.43634">
        <ele>16</ele>
        <time>2012-08-05T20:29:34.125Z</time>
      </trkpt>
      <trkpt lat="47.43856" lon="-0.43626">
        <ele>16</ele>
        <time>2012-08-05T20:29:39.125Z</time>
      </trkpt>
      <trkpt lat="47.43854" lon="-0.43618">
        <ele>16</ele>
        <time>2012-08-05T20:29:44.125Z</time>
      </trkpt>
      <trkpt lat="47.43852" lon="-0.43611">
        <ele>16</ele>
        <time>2012-08-05T20:29:49.125Z</time>
      </trkpt>
      <trkpt lat="47.4385" lon="-0.43604">
        <ele>16</ele>
        <time>2012-08-05T20:29:54.125Z</time>
      </trkpt>
      <trkpt lat="47.43848" lon="-0.43597">
        <ele>16</ele>
        <time>2012-08-05T20:29:58.125Z</time>
      </trkpt>
      <trkpt lat="47.43847" lon="-0.4359">
        <ele>16</ele>
        <time>2012-08-05T20:30:02.125Z</time>
      </trkpt>
      <trkpt lat="47.43846" lon="-0.43583">
        <ele>16</ele>
        <time>2012-08-05T20:30:07.125Z</time>
      </trkpt>
      <trkpt lat="47.43845" lon="-0.43575">
        <ele>16</ele>
        <time>2012-08-05T20:30:12.125Z</time>
      </trkpt>
      <trkpt lat="47.43844" lon="-0.43568">
        <ele>16</ele>
        <time>2012-08-05T20:30:17.125Z</time>
      </trkpt>
      <trkpt lat="47.43842" lon="-0.4356">
        <ele>16</ele>
        <time>2012-08-05T20:30:22.125Z</time>
      </trkpt>
      <trkpt lat="47.4384" lon="-0.43554">
        <ele>16</ele>
        <time>2012-08-05T20:30:26.125Z</time>
      </trkpt>
      <trkpt lat="47.43839" lon="-0.43547">
        <ele>16</ele>
        <time>2012-08-05T20:30:30.125Z</time>
      </trkpt>
      <trkpt lat="47.43837" lon="-0.4354">
        <ele>16</ele>
        <time>2012-08-05T20:30:35.125Z</time>
      </trkpt>
      <trkpt lat="47.43836" lon="-0.43532">
        <ele>16</ele>
        <time>2012-08-05T20:30:40.125Z</time>
      </trkpt>
      <trkpt lat="47.43835" lon="-0.43523">
        <ele>15</ele>
        <time>2012-08-05T20:30:45.125Z</time>
      </trkpt>
      <trkpt lat="47.43834" lon="-0.43516">
        <ele>15</ele>
        <time>2012-08-05T20:30:50.125Z</time>
      </trkpt>
      <trkpt lat="47.43833" lon="-0.43508">
        <ele>15</ele>
        <time>2012-08-05T20:30:55.125Z</time>
      </trkpt>
      <trkpt lat="47.43832" lon="-0.435">
        <ele>15</ele>
        <time>2012-08-05T20:31:00.125Z</time>
      </trkpt>
      <trkpt lat="47.4383" lon="-0.43492">
        <ele>15</ele>
        <time>2012-08-05T20:31:05.125Z</time>
      </trkpt>
      <trkpt lat="47.43829" lon="-0.43485">
        <ele>15</ele>
        <time>2012-08-05T20:31:09.125Z</time>
      </trkpt>
      <trkpt lat="47.43828" lon="-0.43479">
        <ele>16</ele>
        <time>2012-08-05T20:31:13.125Z</time>
      </trkpt>
      <trkpt lat="47.43827" lon="-0.43471">
        <ele>16</ele>
        <time>2012-08-05T20:31:18.125Z</time>
      </trkpt>
      <trkpt lat="47.43825" lon="-0.43463">
        <ele>16</ele>
        <time>2012-08-05T20:31:23.125Z</time>
      </trkpt>
      <trkpt lat="47.43823" lon="-0.43455">
        <ele>16</ele>
        <time>2012-08-05T20:31:28.125Z</time>
      </trkpt>
      <trkpt lat="47.43821" lon="-0.43448">
        <ele>16</ele>
        <time>2012-08-05T20:31:33.125Z</time>
      </trkpt>
      <trkpt lat="47.4382" lon="-0.43441">
        <ele>16</ele>
        <time>2012-08-05T20:31:37.125Z</time>
      </trkpt>
      <trkpt lat="47.43819" lon="-0.43434">
        <ele>16</ele>
        <time>2012-08-05T20:31:41.125Z</time>
      </trkpt>
      <trkpt lat="47.43818" lon="-0.43427">
        <ele>16</ele>
        <time>2012-08-05T20:31:45.125Z</time>
      </trkpt>
      <trkpt lat="47.43816" lon="-0.43421">
        <ele>16</ele>
        <time>2012-08-05T20:31:49.125Z</time>
      </trkpt>
      <trkpt lat="47.43815" lon="-0.43414">
        <ele>16</ele>
        <time>2012-08-05T20:31:53.125Z</time>
      </trkpt>
      <trkpt lat="47.43814" lon="-0.43407">
        <ele>16</ele>
        <time>2012-08-05T20:31:57.125Z</time>
      </trkpt>
      <trkpt lat="47.43812" lon="-0.434">
        <ele>16</ele>
        <time>2012-08-05T20:32:01.125Z</time>
      </trkpt>
      <trkpt lat="47.43811" lon="-0.43393">
        <ele>16</ele>
        <time>2012-08-05T20:32:05.125Z</time>
      </trkpt>
      <trkpt lat="47.4381" lon="-0.43386">
        <ele>16</ele>
        <time>2012-08-05T20:32:09.125Z</time>
      </trkpt>
      <trkpt lat="47.43807" lon="-0.43378">
        <ele>16</ele>
        <time>2012-08-05T20:32:13.125Z</time>
      </trkpt>
      <trkpt lat="47.43805" lon="-0.43371">
        <ele>16</ele>
        <time>2012-08-05T20:32:17.125Z</time>
      </trkpt>
      <trkpt lat="47.43804" lon="-0.43364">
        <ele>16</ele>
        <time>2012-08-05T20:32:21.125Z</time>
      </trkpt>
      <trkpt lat="47.43804" lon="-0.43358">
        <ele>16</ele>
        <time>2012-08-05T20:32:25.125Z</time>
      </trkpt>
      <trkpt lat="47.43804" lon="-0.43349">
        <ele>16</ele>
        <time>2012-08-05T20:32:30.125Z</time>
      </trkpt>
      <trkpt lat="47.43803" lon="-0.43342">
        <ele>15</ele>
        <time>2012-08-05T20:32:35.125Z</time>
      </trkpt>
      <trkpt lat="47.43802" lon="-0.43334">
        <ele>15</ele>
        <time>2012-08-05T20:32:40.125Z</time>
      </trkpt>
      <trkpt lat="47.43802" lon="-0.43327">
        <ele>15</ele>
        <time>2012-08-05T20:32:44.125Z</time>
      </trkpt>
      <trkpt lat="47.43802" lon="-0.43319">
        <ele>15</ele>
        <time>2012-08-05T20:32:48.125Z</time>
      </trkpt>
      <trkpt lat="47.43802" lon="-0.43312">
        <ele>15</ele>
        <time>2012-08-05T20:32:52.125Z</time>
      </trkpt>
      <trkpt lat="47.43801" lon="-0.43304">
        <ele>15</ele>
        <time>2012-08-05T20:32:57.125Z</time>
      </trkpt>
      <trkpt lat="47.438" lon="-0.43296">
        <ele>15</ele>
        <time>2012-08-05T20:33:02.125Z</time>
      </trkpt>
      <trkpt lat="47.43799" lon="-0.43289">
        <ele>15</ele>
        <time>2012-08-05T20:33:06.125Z</time>
      </trkpt>
      <trkpt lat="47.43797" lon="-0.43282">
        <ele>15</ele>
        <time>2012-08-05T20:33:10.125Z</time>
      </trkpt>
      <trkpt lat="47.43797" lon="-0.43275">
        <ele>15</ele>
        <time>2012-08-05T20:33:14.125Z</time>
      </trkpt>
      <trkpt lat="47.43797" lon="-0.43267">
        <ele>15</ele>
        <time>2012-08-05T20:33:18.125Z</time>
      </trkpt>
      <trkpt lat="47.43797" lon="-0.43259">
        <ele>15</ele>
        <time>2012-08-05T20:33:22.125Z</time>
      </trkpt>
      <trkpt lat="47.43798" lon="-0.43252">
        <ele>15</ele>
        <time>2012-08-05T20:33:26.125Z</time>
      </trkpt>
      <trkpt lat="47.43799" lon="-0.43246">
        <ele>15</ele>
        <time>2012-08-05T20:33:30.125Z</time>
      </trkpt>
      <trkpt lat="47.43799" lon="-0.43239">
        <ele>15</ele>
        <time>2012-08-05T20:33:34.125Z</time>
      </trkpt>
      <trkpt lat="47.43799" lon="-0.43232">
        <ele>16</ele>
        <time>2012-08-05T20:33:38.125Z</time>
      </trkpt>
      <trkpt lat="47.438" lon="-0.43225">
        <ele>16</ele>
        <time>2012-08-05T20:33:42.125Z</time>
      </trkpt>
      <trkpt lat="47.438" lon="-0.43218">
        <ele>16</ele>
        <time>2012-08-05T20:33:46.125Z</time>
      </trkpt>
      <trkpt lat="47.43801" lon="-0.43212">
        <ele>16</ele>
        <time>2012-08-05T20:33:50.125Z</time>
      </trkpt>
      <trkpt lat="47.43801" lon="-0.43205">
        <ele>16</ele>
        <time>2012-08-05T20:33:54.125Z</time>
      </trkpt>
      <trkpt lat="47.43802" lon="-0.43198">
        <ele>16</ele>
        <time>2012-08-05T20:33:58.125Z</time>
      </trkpt>
      <trkpt lat="47.43802" lon="-0.43191">
        <ele>16</ele>
        <time>2012-08-05T20:34:02.125Z</time>
      </trkpt>
      <trkpt lat="47.43802" lon="-0.43184">
        <ele>16</ele>
        <time>2012-08-05T20:34:06.125Z</time>
      </trkpt>
      <trkpt lat="47.43802" lon="-0.43177">
        <ele>16</ele>
        <time>2012-08-05T20:34:10.125Z</time>
      </trkpt>
      <trkpt lat="47.43803" lon="-0.4317">
        <ele>16</ele>
        <time>2012-08-05T20:34:14.125Z</time>
      </trkpt>
      <trkpt lat="47.43804" lon="-0.43163">
        <ele>16</ele>
        <time>2012-08-05T20:34:18.125Z</time>
      </trkpt>
      <trkpt lat="47.43805" lon="-0.43155">
        <ele>16</ele>
        <time>2012-08-05T20:34:22.125Z</time>
      </trkpt>
      <trkpt lat="47.43807" lon="-0.43148">
        <ele>16</ele>
        <time>2012-08-05T20:34:26.125Z</time>
      </trkpt>
      <trkpt lat="47.43808" lon="-0.43141">
        <ele>16</ele>
        <time>2012-08-05T20:34:30.125Z</time>
      </trkpt>
      <trkpt lat="47.43808" lon="-0.43134">
        <ele>16</ele>
        <time>2012-08-05T20:34:34.125Z</time>
      </trkpt>
      <trkpt lat="47.43809" lon="-0.43127">
        <ele>16</ele>
        <time>2012-08-05T20:34:38.125Z</time>
      </trkpt>
      <trkpt lat="47.4381" lon="-0.43119">
        <ele>16</ele>
        <time>2012-08-05T20:34:42.125Z</time>
      </trkpt>
      <trkpt lat="47.4381" lon="-0.4311">
        <ele>16</ele>
        <time>2012-08-05T20:34:46.125Z</time>
      </trkpt>
      <trkpt lat="47.43811" lon="-0.43102">
        <ele>16</ele>
        <time>2012-08-05T20:34:50.125Z</time>
      </trkpt>
      <trkpt lat="47.43812" lon="-0.43094">
        <ele>16</ele>
        <time>2012-08-05T20:34:54.125Z</time>
      </trkpt>
      <trkpt lat="47.43813" lon="-0.43087">
        <ele>16</ele>
        <time>2012-08-05T20:34:58.125Z</time>
      </trkpt>
      <trkpt lat="47.43814" lon="-0.43081">
        <ele>16</ele>
        <time>2012-08-05T20:35:02.125Z</time>
      </trkpt>
      <trkpt lat="47.43816" lon="-0.43074">
        <ele>16</ele>
        <time>2012-08-05T20:35:06.125Z</time>
      </trkpt>
      <trkpt lat="47.43816" lon="-0.43066">
        <ele>16</ele>
        <time>2012-08-05T20:35:10.125Z</time>
      </trkpt>
      <trkpt lat="47.43818" lon="-0.4306">
        <ele>16</ele>
        <time>2012-08-05T20:35:14.125Z</time>
      </trkpt>
      <trkpt lat="47.43819" lon="-0.43053">
        <ele>16</ele>
        <time>2012-08-05T20:35:18.125Z</time>
      </trkpt>
      <trkpt lat="47.4382" lon="-0.43046">
        <ele>16</ele>
        <time>2012-08-05T20:35:22.125Z</time>
      </trkpt>
      <trkpt lat="47.43821" lon="-0.43039">
        <ele>16</ele>
        <time>2012-08-05T20:35:26.125Z</time>
      </trkpt>
      <trkpt lat="47.43822" lon="-0.43032">
        <ele>16</ele>
        <time>2012-08-05T20:35:30.125Z</time>
      </trkpt>
      <trkpt lat="47.43822" lon="-0.43025">
        <ele>16</ele>
        <time>2012-08-05T20:35:34.125Z</time>
      </trkpt>
      <trkpt lat="47.43822" lon="-0.43018">
        <ele>16</ele>
        <time>2012-08-05T20:35:38.125Z</time>
      </trkpt>
      <trkpt lat="47.43823" lon="-0.43011">
        <ele>16</ele>
        <time>2012-08-05T20:35:42.125Z</time>
      </trkpt>
      <trkpt lat="47.43824" lon="-0.43004">
        <ele>16</ele>
        <time>2012-08-05T20:35:46.125Z</time>
      </trkpt>
      <trkpt lat="47.43824" lon="-0.42997">
        <ele>16</ele>
        <time>2012-08-05T20:35:50.125Z</time>
      </trkpt>
      <trkpt lat="47.43825" lon="-0.4299">
        <ele>16</ele>
        <time>2012-08-05T20:35:54.125Z</time>
      </trkpt>
      <trkpt lat="47.43826" lon="-0.42983">
        <ele>16</ele>
        <time>2012-08-05T20:35:58.125Z</time>
      </trkpt>
      <trkpt lat="47.43826" lon="-0.42976">
        <ele>16</ele>
        <time>2012-08-05T20:36:02.125Z</time>
      </trkpt>
      <trkpt lat="47.43827" lon="-0.42969">
        <ele>16</ele>
        <time>2012-08-05T20:36:06.125Z</time>
      </trkpt>
      <trkpt lat="47.43828" lon="-0.42962">
        <ele>16</ele>
        <time>2012-08-05T20:36:10.125Z</time>
      </trkpt>
      <trkpt lat="47.43829" lon="-0.42955">
        <ele>17</ele>
        <time>2012-08-05T20:36:14.125Z</time>
      </trkpt>
      <trkpt lat="47.43828" lon="-0.42947">
        <ele>17</ele>
        <time>2012-08-05T20:36:19.125Z</time>
      </trkpt>
      <trkpt lat="47.43829" lon="-0.42939">
        <ele>17</ele>
        <time>2012-08-05T20:36:24.125Z</time>
      </trkpt>
      <trkpt lat="47.43829" lon="-0.42931">
        <ele>17</ele>
        <time>2012-08-05T20:36:29.125Z</time>
      </trkpt>
      <trkpt lat="47.4383" lon="-0.42923">
        <ele>17</ele>
        <time>2012-08-05T20:36:34.125Z</time>
      </trkpt>
      <trkpt lat="47.43831" lon="-0.42915">
        <ele>17</ele>
        <time>2012-08-05T20:36:39.125Z</time>
      </trkpt>
      <trkpt lat="47.43832" lon="-0.42908">
        <ele>17</ele>
        <time>2012-08-05T20:36:44.125Z</time>
      </trkpt>
      <trkpt lat="47.43832" lon="-0.429">
        <ele>17</ele>
        <time>2012-08-05T20:36:51.125Z</time>
      </trkpt>
      <trkpt lat="47.43834" lon="-0.42907">
        <ele>17</ele>
        <time>2012-08-05T20:37:03.125Z</time>
      </trkpt>
      <trkpt lat="47.43833" lon="-0.42914">
        <ele>17</ele>
        <time>2012-08-05T20:37:09.125Z</time>
      </trkpt>
      <trkpt lat="47.43837" lon="-0.42919">
        <ele>17</ele>
        <time>2012-08-05T20:37:18.125Z</time>
      </trkpt>
      <trkpt lat="47.43841" lon="-0.4292">
        <ele>17</ele>
        <time>2012-08-05T20:37:23.125Z</time>
      </trkpt>
      <trkpt lat="47.43847" lon="-0.42921">
        <ele>17</ele>
        <time>2012-08-05T20:37:27.125Z</time>
      </trkpt>
      <trkpt lat="47.43852" lon="-0.42922">
        <ele>17</ele>
        <time>2012-08-05T20:37:30.125Z</time>
      </trkpt>
      <trkpt lat="47.43856" lon="-0.42923">
        <ele>17</ele>
        <time>2012-08-05T20:37:33.125Z</time>
      </trkpt>
      <trkpt lat="47.4386" lon="-0.42925">
        <ele>17</ele>
        <time>2012-08-05T20:37:36.125Z</time>
      </trkpt>
      <trkpt lat="47.43865" lon="-0.42929">
        <ele>17</ele>
        <time>2012-08-05T20:37:40.125Z</time>
      </trkpt>
      <trkpt lat="47.4387" lon="-0.42931">
        <ele>17</ele>
        <time>2012-08-05T20:37:44.125Z</time>
      </trkpt>
      <trkpt lat="47.43875" lon="-0.42934">
        <ele>17</ele>
        <time>2012-08-05T20:37:48.125Z</time>
      </trkpt>
      <trkpt lat="47.4388" lon="-0.42936">
        <ele>16</ele>
        <time>2012-08-05T20:37:52.125Z</time>
      </trkpt>
      <trkpt lat="47.43885" lon="-0.42937">
        <ele>16</ele>
        <time>2012-08-05T20:37:56.125Z</time>
      </trkpt>
      <trkpt lat="47.4389" lon="-0.42939">
        <ele>16</ele>
        <time>2012-08-05T20:38:00.125Z</time>
      </trkpt>
      <trkpt lat="47.43895" lon="-0.4294">
        <ele>16</ele>
        <time>2012-08-05T20:38:04.125Z</time>
      </trkpt>
      <trkpt lat="47.439" lon="-0.42942">
        <ele>16</ele>
        <time>2012-08-05T20:38:08.125Z</time>
      </trkpt>
      <trkpt lat="47.43905" lon="-0.42943">
        <ele>16</ele>
        <time>2012-08-05T20:38:12.125Z</time>
      </trkpt>
      <trkpt lat="47.4391" lon="-0.42945">
        <ele>16</ele>
        <time>2012-08-05T20:38:16.125Z</time>
      </trkpt>
      <trkpt lat="47.43915" lon="-0.42948">
        <ele>16</ele>
        <time>2012-08-05T20:38:20.125Z</time>
      </trkpt>
      <trkpt lat="47.43918" lon="-0.42956">
        <ele>17</ele>
        <time>2012-08-05T20:38:23.125Z</time>
      </trkpt>
      <trkpt lat="47.4392" lon="-0.42963">
        <ele>17</ele>
        <time>2012-08-05T20:38:25.125Z</time>
      </trkpt>
      <trkpt lat="47.43923" lon="-0.42968">
        <ele>17</ele>
        <time>2012-08-05T20:38:28.125Z</time>
      </trkpt>
      <trkpt lat="47.43927" lon="-0.42973">
        <ele>17</ele>
        <time>2012-08-05T20:38:32.125Z</time>
      </trkpt>
      <trkpt lat="47.43932" lon="-0.42976">
        <ele>17</ele>
        <time>2012-08-05T20:38:36.125Z</time>
      </trkpt>
      <trkpt lat="47.43936" lon="-0.42979">
        <ele>17</ele>
        <time>2012-08-05T20:38:40.125Z</time>
      </trkpt>
      <trkpt lat="47.4394" lon="-0.42981">
        <ele>17</ele>
        <time>2012-08-05T20:38:44.125Z</time>
      </trkpt>
      <trkpt lat="47.43945" lon="-0.42982">
        <ele>17</ele>
        <time>2012-08-05T20:38:48.125Z</time>
      </trkpt>
      <trkpt lat="47.4395" lon="-0.42983">
        <ele>17</ele>
        <time>2012-08-05T20:38:52.125Z</time>
      </trkpt>
      <trkpt lat="47.43955" lon="-0.42985">
        <ele>17</ele>
        <time>2012-08-05T20:38:56.125Z</time>
      </trkpt>
      <trkpt lat="47.4396" lon="-0.42986">
        <ele>17</ele>
        <time>2012-08-05T20:39:00.125Z</time>
      </trkpt>
      <trkpt lat="47.43965" lon="-0.42989">
        <ele>17</ele>
        <time>2012-08-05T20:39:04.125Z</time>
      </trkpt>
      <trkpt lat="47.43969" lon="-0.42991">
        <ele>17</ele>
        <time>2012-08-05T20:39:08.125Z</time>
      </trkpt>
      <trkpt lat="47.43974" lon="-0.42993">
        <ele>17</ele>
        <time>2012-08-05T20:39:12.125Z</time>
      </trkpt>
      <trkpt lat="47.43978" lon="-0.42994">
        <ele>17</ele>
        <time>2012-08-05T20:39:16.125Z</time>
      </trkpt>
      <trkpt lat="47.43983" lon="-0.42996">
        <ele>17</ele>
        <time>2012-08-05T20:39:20.125Z</time>
      </trkpt>
      <trkpt lat="47.43988" lon="-0.42997">
        <ele>17</ele>
        <time>2012-08-05T20:39:24.125Z</time>
      </trkpt>
      <trkpt lat="47.43992" lon="-0.42999">
        <ele>17</ele>
        <time>2012-08-05T20:39:28.125Z</time>
      </trkpt>
      <trkpt lat="47.43996" lon="-0.43001">
        <ele>17</ele>
        <time>2012-08-05T20:39:32.125Z</time>
      </trkpt>
      <trkpt lat="47.44002" lon="-0.43003">
        <ele>17</ele>
        <time>2012-08-05T20:39:37.125Z</time>
      </trkpt>
      <trkpt lat="47.44007" lon="-0.43004">
        <ele>17</ele>
        <time>2012-08-05T20:39:41.125Z</time>
      </trkpt>
      <trkpt lat="47.44012" lon="-0.43005">
        <ele>17</ele>
        <time>2012-08-05T20:39:45.125Z</time>
      </trkpt>
      <trkpt lat="47.44016" lon="-0.43006">
        <ele>17</ele>
        <time>2012-08-05T20:39:49.125Z</time>
      </trkpt>
      <trkpt lat="47.44021" lon="-0.4301">
        <ele>17</ele>
        <time>2012-08-05T20:39:53.125Z</time>
      </trkpt>
      <trkpt lat="47.44025" lon="-0.43013">
        <ele>17</ele>
        <time>2012-08-05T20:39:57.125Z</time>
      </trkpt>
      <trkpt lat="47.44029" lon="-0.43015">
        <ele>17</ele>
        <time>2012-08-05T20:40:01.125Z</time>
      </trkpt>
      <trkpt lat="47.44034" lon="-0.43018">
        <ele>17</ele>
        <time>2012-08-05T20:40:05.125Z</time>
      </trkpt>
      <trkpt lat="47.44038" lon="-0.4302">
        <ele>17</ele>
        <time>2012-08-05T20:40:09.125Z</time>
      </trkpt>
      <trkpt lat="47.44043" lon="-0.43022">
        <ele>17</ele>
        <time>2012-08-05T20:40:13.125Z</time>
      </trkpt>
      <trkpt lat="47.44048" lon="-0.43022">
        <ele>17</ele>
        <time>2012-08-05T20:40:17.125Z</time>
      </trkpt>
      <trkpt lat="47.44052" lon="-0.43024">
        <ele>17</ele>
        <time>2012-08-05T20:40:21.125Z</time>
      </trkpt>
      <trkpt lat="47.44057" lon="-0.43026">
        <ele>17</ele>
        <time>2012-08-05T20:40:25.125Z</time>
      </trkpt>
      <trkpt lat="47.44061" lon="-0.43028">
        <ele>17</ele>
        <time>2012-08-05T20:40:29.125Z</time>
      </trkpt>
      <trkpt lat="47.44066" lon="-0.4303">
        <ele>17</ele>
        <time>2012-08-05T20:40:33.125Z</time>
      </trkpt>
      <trkpt lat="47.44071" lon="-0.43032">
        <ele>17</ele>
        <time>2012-08-05T20:40:38.125Z</time>
      </trkpt>
      <trkpt lat="47.44076" lon="-0.43034">
        <ele>17</ele>
        <time>2012-08-05T20:40:43.125Z</time>
      </trkpt>
      <trkpt lat="47.4408" lon="-0.43036">
        <ele>17</ele>
        <time>2012-08-05T20:40:48.125Z</time>
      </trkpt>
      <trkpt lat="47.44085" lon="-0.43039">
        <ele>18</ele>
        <time>2012-08-05T20:40:53.125Z</time>
      </trkpt>
      <trkpt lat="47.44089" lon="-0.43042">
        <ele>17</ele>
        <time>2012-08-05T20:40:57.125Z</time>
      </trkpt>
      <trkpt lat="47.44093" lon="-0.43046">
        <ele>17</ele>
        <time>2012-08-05T20:41:01.125Z</time>
      </trkpt>
      <trkpt lat="47.44098" lon="-0.4305">
        <ele>17</ele>
        <time>2012-08-05T20:41:06.125Z</time>
      </trkpt>
      <trkpt lat="47.44102" lon="-0.43055">
        <ele>17</ele>
        <time>2012-08-05T20:41:11.125Z</time>
      </trkpt>
      <trkpt lat="47.44105" lon="-0.4306">
        <ele>17</ele>
        <time>2012-08-05T20:41:15.125Z</time>
      </trkpt>
      <trkpt lat="47.44108" lon="-0.43065">
        <ele>17</ele>
        <time>2012-08-05T20:41:19.125Z</time>
      </trkpt>
      <trkpt lat="47.44111" lon="-0.43071">
        <ele>17</ele>
        <time>2012-08-05T20:41:23.125Z</time>
      </trkpt>
      <trkpt lat="47.44114" lon="-0.43077">
        <ele>17</ele>
        <time>2012-08-05T20:41:27.125Z</time>
      </trkpt>
      <trkpt lat="47.44118" lon="-0.43084">
        <ele>17</ele>
        <time>2012-08-05T20:41:31.125Z</time>
      </trkpt>
      <trkpt lat="47.4412" lon="-0.4309">
        <ele>17</ele>
        <time>2012-08-05T20:41:34.125Z</time>
      </trkpt>
      <trkpt lat="47.44123" lon="-0.43097">
        <ele>17</ele>
        <time>2012-08-05T20:41:38.125Z</time>
      </trkpt>
      <trkpt lat="47.44126" lon="-0.43105">
        <ele>17</ele>
        <time>2012-08-05T20:41:42.125Z</time>
      </trkpt>
      <trkpt lat="47.44128" lon="-0.43112">
        <ele>17</ele>
        <time>2012-08-05T20:41:46.125Z</time>
      </trkpt>
      <trkpt lat="47.44132" lon="-0.43118">
        <ele>17</ele>
        <time>2012-08-05T20:41:50.125Z</time>
      </trkpt>
      <trkpt lat="47.44135" lon="-0.43124">
        <ele>17</ele>
        <time>2012-08-05T20:41:54.125Z</time>
      </trkpt>
      <trkpt lat="47.44138" lon="-0.43129">
        <ele>17</ele>
        <time>2012-08-05T20:41:58.125Z</time>
      </trkpt>
      <trkpt lat="47.44143" lon="-0.43133">
        <ele>17</ele>
        <time>2012-08-05T20:42:02.125Z</time>
      </trkpt>
      <trkpt lat="47.44147" lon="-0.43137">
        <ele>17</ele>
        <time>2012-08-05T20:42:06.125Z</time>
      </trkpt>
      <trkpt lat="47.44152" lon="-0.43142">
        <ele>17</ele>
        <time>2012-08-05T20:42:10.125Z</time>
      </trkpt>
      <trkpt lat="47.44156" lon="-0.43144">
        <ele>17</ele>
        <time>2012-08-05T20:42:13.125Z</time>
      </trkpt>
      <trkpt lat="47.4416" lon="-0.43147">
        <ele>17</ele>
        <time>2012-08-05T20:42:16.125Z</time>
      </trkpt>
      <trkpt lat="47.44164" lon="-0.4315">
        <ele>17</ele>
        <time>2012-08-05T20:42:19.125Z</time>
      </trkpt>
      <trkpt lat="47.44169" lon="-0.43154">
        <ele>18</ele>
        <time>2012-08-05T20:42:23.125Z</time>
      </trkpt>
      <trkpt lat="47.44173" lon="-0.43158">
        <ele>18</ele>
        <time>2012-08-05T20:42:27.125Z</time>
      </trkpt>
      <trkpt lat="47.44177" lon="-0.43162">
        <ele>18</ele>
        <time>2012-08-05T20:42:31.125Z</time>
      </trkpt>
      <trkpt lat="47.44182" lon="-0.43166">
        <ele>18</ele>
        <time>2012-08-05T20:42:35.125Z</time>
      </trkpt>
      <trkpt lat="47.44186" lon="-0.4317">
        <ele>18</ele>
        <time>2012-08-05T20:42:39.125Z</time>
      </trkpt>
      <trkpt lat="47.44191" lon="-0.43173">
        <ele>18</ele>
        <time>2012-08-05T20:42:43.125Z</time>
      </trkpt>
      <trkpt lat="47.44196" lon="-0.43176">
        <ele>18</ele>
        <time>2012-08-05T20:42:47.125Z</time>
      </trkpt>
      <trkpt lat="47.442" lon="-0.43178">
        <ele>19</ele>
        <time>2012-08-05T20:42:51.125Z</time>
      </trkpt>
      <trkpt lat="47.44205" lon="-0.4318">
        <ele>19</ele>
        <time>2012-08-05T20:42:56.125Z</time>
      </trkpt>
      <trkpt lat="47.4421" lon="-0.43182">
        <ele>19</ele>
        <time>2012-08-05T20:43:00.125Z</time>
      </trkpt>
      <trkpt lat="47.44215" lon="-0.43185">
        <ele>19</ele>
        <time>2012-08-05T20:43:05.125Z</time>
      </trkpt>
      <trkpt lat="47.4422" lon="-0.43186">
        <ele>19</ele>
        <time>2012-08-05T20:43:09.125Z</time>
      </trkpt>
      <trkpt lat="47.44225" lon="-0.43188">
        <ele>19</ele>
        <time>2012-08-05T20:43:14.125Z</time>
      </trkpt>
      <trkpt lat="47.44229" lon="-0.4319">
        <ele>19</ele>
        <time>2012-08-05T20:43:18.125Z</time>
      </trkpt>
      <trkpt lat="47.44233" lon="-0.43186">
        <ele>20</ele>
        <time>2012-08-05T20:43:33.125Z</time>
      </trkpt>
      <trkpt lat="47.44235" lon="-0.43178">
        <ele>20</ele>
        <time>2012-08-05T20:43:36.125Z</time>
      </trkpt>
      <trkpt lat="47.44236" lon="-0.4317">
        <ele>20</ele>
        <time>2012-08-05T20:43:39.125Z</time>
      </trkpt>
      <trkpt lat="47.44235" lon="-0.43162">
        <ele>20</ele>
        <time>2012-08-05T20:43:43.125Z</time>
      </trkpt>
      <trkpt lat="47.44234" lon="-0.43156">
        <ele>20</ele>
        <time>2012-08-05T20:43:47.125Z</time>
      </trkpt>
      <trkpt lat="47.44233" lon="-0.43148">
        <ele>20</ele>
        <time>2012-08-05T20:43:52.125Z</time>
      </trkpt>
      <trkpt lat="47.44231" lon="-0.43141">
        <ele>20</ele>
        <time>2012-08-05T20:43:56.125Z</time>
      </trkpt>
      <trkpt lat="47.44228" lon="-0.43135">
        <ele>20</ele>
        <time>2012-08-05T20:44:00.125Z</time>
      </trkpt>
      <trkpt lat="47.44225" lon="-0.4313">
        <ele>20</ele>
        <time>2012-08-05T20:44:04.125Z</time>
      </trkpt>
      <trkpt lat="47.44222" lon="-0.43124">
        <ele>20</ele>
        <time>2012-08-05T20:44:08.125Z</time>
      </trkpt>
      <trkpt lat="47.44219" lon="-0.43118">
        <ele>19</ele>
        <time>2012-08-05T20:44:12.125Z</time>
      </trkpt>
      <trkpt lat="47.4422" lon="-0.42626">
        <ele>22</ele>
        <time>2012-08-05T20:49:51.372Z</time>
      </trkpt>
      <trkpt lat="47.4422" lon="-0.42626">
        <ele>22</ele>
        <time>2012-08-05T20:49:51.372Z</time>
      </trkpt>
      <trkpt lat="47.4422" lon="-0.42626">
        <ele>22</ele>
        <time>2012-08-05T20:50:04.000Z</time>
      </trkpt>
      <trkpt lat="47.44228" lon="-0.42617">
        <ele>22</ele>
        <time>2012-08-05T20:50:05.000Z</time>
      </trkpt>
      <trkpt lat="47.44228" lon="-0.42617">
        <ele>22</ele>
        <time>2012-08-05T20:50:05.000Z</time>
      </trkpt>
      <trkpt lat="47.44228" lon="-0.42617">
        <ele>22</ele>
        <time>2012-08-05T20:50:14.000Z</time>
      </trkpt>
      <trkpt lat="47.44228" lon="-0.42603">
        <ele>22</ele>
        <time>2012-08-05T20:50:15.000Z</time>
      </trkpt>
      <trkpt lat="47.44227" lon="-0.42595">
        <ele>22</ele>
        <time>2012-08-05T20:50:18.000Z</time>
      </trkpt>
      <trkpt lat="47.44227" lon="-0.42587">
        <ele>22</ele>
        <time>2012-08-05T20:50:21.000Z</time>
      </trkpt>
      <trkpt lat="47.44227" lon="-0.42579">
        <ele>22</ele>
        <time>2012-08-05T20:50:24.000Z</time>
      </trkpt>
      <trkpt lat="47.44227" lon="-0.42572">
        <ele>22</ele>
        <time>2012-08-05T20:50:27.000Z</time>
      </trkpt>
      <trkpt lat="47.44227" lon="-0.42563">
        <ele>22</ele>
        <time>2012-08-05T20:50:31.000Z</time>
      </trkpt>
      <trkpt lat="47.44227" lon="-0.42555">
        <ele>22</ele>
        <time>2012-08-05T20:50:35.000Z</time>
      </trkpt>
      <trkpt lat="47.44227" lon="-0.42546">
        <ele>22</ele>
        <time>2012-08-05T20:50:39.000Z</time>
      </trkpt>
      <trkpt lat="47.44227" lon="-0.42538">
        <ele>22</ele>
        <time>2012-08-05T20:50:43.000Z</time>
      </trkpt>
      <trkpt lat="47.44227" lon="-0.42532">
        <ele>22</ele>
        <time>2012-08-05T20:50:47.000Z</time>
      </trkpt>
      <trkpt lat="47.44227" lon="-0.42524">
        <ele>22</ele>
        <time>2012-08-05T20:50:52.000Z</time>
      </trkpt>
      <trkpt lat="47.44228" lon="-0.42516">
        <ele>23</ele>
        <time>2012-08-05T20:50:57.000Z</time>
      </trkpt>
      <trkpt lat="47.44229" lon="-0.42508">
        <ele>23</ele>
        <time>2012-08-05T20:51:02.000Z</time>
      </trkpt>
      <trkpt lat="47.44229" lon="-0.42501">
        <ele>23</ele>
        <time>2012-08-05T20:51:07.000Z</time>
      </trkpt>
      <trkpt lat="47.44229" lon="-0.42493">
        <ele>22</ele>
        <time>2012-08-05T20:51:12.000Z</time>
      </trkpt>
      <trkpt lat="47.4423" lon="-0.42484">
        <ele>22</ele>
        <time>2012-08-05T20:51:17.000Z</time>
      </trkpt>
      <trkpt lat="47.4423" lon="-0.42478">
        <ele>22</ele>
        <time>2012-08-05T20:51:21.000Z</time>
      </trkpt>
      <trkpt lat="47.44231" lon="-0.42471">
        <ele>22</ele>
        <time>2012-08-05T20:51:25.000Z</time>
      </trkpt>
      <trkpt lat="47.44231" lon="-0.42464">
        <ele>22</ele>
        <time>2012-08-05T20:51:29.000Z</time>
      </trkpt>
      <trkpt lat="47.44232" lon="-0.42457">
        <ele>22</ele>
        <time>2012-08-05T20:51:33.000Z</time>
      </trkpt>
      <trkpt lat="47.44232" lon="-0.4245">
        <ele>22</ele>
        <time>2012-08-05T20:51:37.000Z</time>
      </trkpt>
      <trkpt lat="47.44231" lon="-0.42443">
        <ele>22</ele>
        <time>2012-08-05T20:51:41.000Z</time>
      </trkpt>
      <trkpt lat="47.4423" lon="-0.42436">
        <ele>22</ele>
        <time>2012-08-05T20:51:45.000Z</time>
      </trkpt>
      <trkpt lat="47.44231" lon="-0.42428">
        <ele>22</ele>
        <time>2012-08-05T20:51:49.000Z</time>
      </trkpt>
      <trkpt lat="47.44231" lon="-0.42422">
        <ele>22</ele>
        <time>2012-08-05T20:51:53.000Z</time>
      </trkpt>
      <trkpt lat="47.44231" lon="-0.42414">
        <ele>21</ele>
        <time>2012-08-05T20:51:58.000Z</time>
      </trkpt>
      <trkpt lat="47.44231" lon="-0.42407">
        <ele>21</ele>
        <time>2012-08-05T20:52:03.000Z</time>
      </trkpt>
      <trkpt lat="47.44231" lon="-0.424">
        <ele>21</ele>
        <time>2012-08-05T20:52:09.000Z</time>
      </trkpt>
      <trkpt lat="47.4423" lon="-0.42392">
        <ele>21</ele>
        <time>2012-08-05T20:52:15.000Z</time>
      </trkpt>
      <trkpt lat="47.44229" lon="-0.42385">
        <ele>21</ele>
        <time>2012-08-05T20:52:21.000Z</time>
      </trkpt>
      <trkpt lat="47.44228" lon="-0.42377">
        <ele>21</ele>
        <time>2012-08-05T20:52:26.000Z</time>
      </trkpt>
      <trkpt lat="47.44226" lon="-0.4237">
        <ele>21</ele>
        <time>2012-08-05T20:52:30.000Z</time>
      </trkpt>
      <trkpt lat="47.44225" lon="-0.42362">
        <ele>21</ele>
        <time>2012-08-05T20:52:34.000Z</time>
      </trkpt>
      <trkpt lat="47.44223" lon="-0.42355">
        <ele>21</ele>
        <time>2012-08-05T20:52:38.000Z</time>
      </trkpt>
      <trkpt lat="47.44222" lon="-0.42348">
        <ele>21</ele>
        <time>2012-08-05T20:52:42.000Z</time>
      </trkpt>
      <trkpt lat="47.44222" lon="-0.4234">
        <ele>21</ele>
        <time>2012-08-05T20:52:46.000Z</time>
      </trkpt>
      <trkpt lat="47.44219" lon="-0.42334">
        <ele>20</ele>
        <time>2012-08-05T20:52:50.000Z</time>
      </trkpt>
      <trkpt lat="47.44217" lon="-0.42326">
        <ele>20</ele>
        <time>2012-08-05T20:52:54.000Z</time>
      </trkpt>
      <trkpt lat="47.44215" lon="-0.42318">
        <ele>20</ele>
        <time>2012-08-05T20:52:58.000Z</time>
      </trkpt>
      <trkpt lat="47.44214" lon="-0.4231">
        <ele>19</ele>
        <time>2012-08-05T20:53:02.000Z</time>
      </trkpt>
      <trkpt lat="47.44213" lon="-0.42303">
        <ele>19</ele>
        <time>2012-08-05T20:53:06.000Z</time>
      </trkpt>
      <trkpt lat="47.44213" lon="-0.42295">
        <ele>19</ele>
        <time>2012-08-05T20:53:10.000Z</time>
      </trkpt>
      <trkpt lat="47.44213" lon="-0.42287">
        <ele>19</ele>
        <time>2012-08-05T20:53:14.000Z</time>
      </trkpt>
      <trkpt lat="47.44213" lon="-0.4228">
        <ele>19</ele>
        <time>2012-08-05T20:53:18.000Z</time>
      </trkpt>
      <trkpt lat="47.44214" lon="-0.42273">
        <ele>19</ele>
        <time>2012-08-05T20:53:22.000Z</time>
      </trkpt>
      <trkpt lat="47.44214" lon="-0.42266">
        <ele>19</ele>
        <time>2012-08-05T20:53:26.000Z</time>
      </trkpt>
      <trkpt lat="47.44215" lon="-0.42258">
        <ele>19</ele>
        <time>2012-08-05T20:53:30.000Z</time>
      </trkpt>
      <trkpt lat="47.44215" lon="-0.42251">
        <ele>19</ele>
        <time>2012-08-05T20:53:34.000Z</time>
      </trkpt>
      <trkpt lat="47.44216" lon="-0.42243">
        <ele>19</ele>
        <time>2012-08-05T20:53:38.000Z</time>
      </trkpt>
      <trkpt lat="47.44216" lon="-0.42236">
        <ele>19</ele>
        <time>2012-08-05T20:53:42.000Z</time>
      </trkpt>
      <trkpt lat="47.44216" lon="-0.42228">
        <ele>19</ele>
        <time>2012-08-05T20:53:46.000Z</time>
      </trkpt>
      <trkpt lat="47.44217" lon="-0.4222">
        <ele>19</ele>
        <time>2012-08-05T20:53:50.000Z</time>
      </trkpt>
      <trkpt lat="47.44217" lon="-0.42213">
        <ele>19</ele>
        <time>2012-08-05T20:53:54.000Z</time>
      </trkpt>
      <trkpt lat="47.44217" lon="-0.42204">
        <ele>19</ele>
        <time>2012-08-05T20:53:58.000Z</time>
      </trkpt>
      <trkpt lat="47.44216" lon="-0.42196">
        <ele>19</ele>
        <time>2012-08-05T20:54:02.000Z</time>
      </trkpt>
      <trkpt lat="47.44216" lon="-0.42188">
        <ele>19</ele>
        <time>2012-08-05T20:54:06.000Z</time>
      </trkpt>
      <trkpt lat="47.44216" lon="-0.4218">
        <ele>19</ele>
        <time>2012-08-05T20:54:10.000Z</time>
      </trkpt>
      <trkpt lat="47.44216" lon="-0.42172">
        <ele>19</ele>
        <time>2012-08-05T20:54:14.000Z</time>
      </trkpt>
      <trkpt lat="47.44216" lon="-0.42164">
        <ele>19</ele>
        <time>2012-08-05T20:54:18.000Z</time>
      </trkpt>
      <trkpt lat="47.44216" lon="-0.42156">
        <ele>19</ele>
        <time>2012-08-05T20:54:22.000Z</time>
      </trkpt>
      <trkpt lat="47.44216" lon="-0.42149">
        <ele>19</ele>
        <time>2012-08-05T20:54:26.000Z</time>
      </trkpt>
      <trkpt lat="47.44216" lon="-0.42141">
        <ele>19</ele>
        <time>2012-08-05T20:54:30.000Z</time>
      </trkpt>
      <trkpt lat="47.44216" lon="-0.42133">
        <ele>19</ele>
        <time>2012-08-05T20:54:34.000Z</time>
      </trkpt>
      <trkpt lat="47.44216" lon="-0.42126">
        <ele>19</ele>
        <time>2012-08-05T20:54:38.000Z</time>
      </trkpt>
      <trkpt lat="47.44216" lon="-0.42118">
        <ele>19</ele>
        <time>2012-08-05T20:54:42.000Z</time>
      </trkpt>
      <trkpt lat="47.44216" lon="-0.42111">
        <ele>19</ele>
        <time>2012-08-05T20:54:46.000Z</time>
      </trkpt>
      <trkpt lat="47.44217" lon="-0.42104">
        <ele>19</ele>
        <time>2012-08-05T20:54:50.000Z</time>
      </trkpt>
      <trkpt lat="47.44219" lon="-0.42096">
        <ele>19</ele>
        <time>2012-08-05T20:54:54.000Z</time>
      </trkpt>
      <trkpt lat="47.4422" lon="-0.42088">
        <ele>19</ele>
        <time>2012-08-05T20:54:58.000Z</time>
      </trkpt>
      <trkpt lat="47.4422" lon="-0.42079">
        <ele>19</ele>
        <time>2012-08-05T20:55:02.000Z</time>
      </trkpt>
      <trkpt lat="47.44221" lon="-0.42072">
        <ele>19</ele>
        <time>2012-08-05T20:55:05.000Z</time>
      </trkpt>
      <trkpt lat="47.44222" lon="-0.42064">
        <ele>19</ele>
        <time>2012-08-05T20:55:09.000Z</time>
      </trkpt>
      <trkpt lat="47.44224" lon="-0.42055">
        <ele>19</ele>
        <time>2012-08-05T20:55:13.000Z</time>
      </trkpt>
      <trkpt lat="47.44226" lon="-0.42049">
        <ele>19</ele>
        <time>2012-08-05T20:55:16.000Z</time>
      </trkpt>
      <trkpt lat="47.44228" lon="-0.42041">
        <ele>19</ele>
        <time>2012-08-05T20:55:20.000Z</time>
      </trkpt>
      <trkpt lat="47.44229" lon="-0.42033">
        <ele>19</ele>
        <time>2012-08-05T20:55:24.000Z</time>
      </trkpt>
      <trkpt lat="47.4423" lon="-0.42025">
        <ele>19</ele>
        <time>2012-08-05T20:55:28.000Z</time>
      </trkpt>
      <trkpt lat="47.4423" lon="-0.42017">
        <ele>19</ele>
        <time>2012-08-05T20:55:32.000Z</time>
      </trkpt>
      <trkpt lat="47.4423" lon="-0.42008">
        <ele>19</ele>
        <time>2012-08-05T20:55:36.000Z</time>
      </trkpt>
      <trkpt lat="47.4423" lon="-0.42">
        <ele>19</ele>
        <time>2012-08-05T20:55:40.000Z</time>
      </trkpt>
      <trkpt lat="47.44229" lon="-0.41993">
        <ele>19</ele>
        <time>2012-08-05T20:55:44.000Z</time>
      </trkpt>
      <trkpt lat="47.44228" lon="-0.41985">
        <ele>19</ele>
        <time>2012-08-05T20:55:48.000Z</time>
      </trkpt>
      <trkpt lat="47.44228" lon="-0.41978">
        <ele>19</ele>
        <time>2012-08-05T20:55:52.000Z</time>
      </trkpt>
      <trkpt lat="47.44228" lon="-0.4197">
        <ele>19</ele>
        <time>2012-08-05T20:55:56.000Z</time>
      </trkpt>
      <trkpt lat="47.44229" lon="-0.41963">
        <ele>19</ele>
        <time>2012-08-05T20:56:00.000Z</time>
      </trkpt>
      <trkpt lat="47.4423" lon="-0.41956">
        <ele>19</ele>
        <time>2012-08-05T20:56:04.000Z</time>
      </trkpt>
      <trkpt lat="47.4423" lon="-0.41948">
        <ele>19</ele>
        <time>2012-08-05T20:56:08.000Z</time>
      </trkpt>
      <trkpt lat="47.44229" lon="-0.4194">
        <ele>19</ele>
        <time>2012-08-05T20:56:12.000Z</time>
      </trkpt>
      <trkpt lat="47.44228" lon="-0.41932">
        <ele>19</ele>
        <time>2012-08-05T20:56:16.000Z</time>
      </trkpt>
      <trkpt lat="47.44226" lon="-0.41925">
        <ele>19</ele>
        <time>2012-08-05T20:56:21.000Z</time>
      </trkpt>
      <trkpt lat="47.44224" lon="-0.41919">
        <ele>19</ele>
        <time>2012-08-05T20:56:28.000Z</time>
      </trkpt>
      <trkpt lat="47.44224" lon="-0.41912">
        <ele>19</ele>
        <time>2012-08-05T20:56:32.000Z</time>
      </trkpt>
      <trkpt lat="47.44223" lon="-0.41903">
        <ele>19</ele>
        <time>2012-08-05T20:56:36.000Z</time>
      </trkpt>
      <trkpt lat="47.44223" lon="-0.41896">
        <ele>19</ele>
        <time>2012-08-05T20:56:39.000Z</time>
      </trkpt>
      <trkpt lat="47.44223" lon="-0.41888">
        <ele>19</ele>
        <time>2012-08-05T20:56:43.000Z</time>
      </trkpt>
      <trkpt lat="47.44223" lon="-0.4188">
        <ele>19</ele>
        <time>2012-08-05T20:56:47.000Z</time>
      </trkpt>
      <trkpt lat="47.44223" lon="-0.41871">
        <ele>19</ele>
        <time>2012-08-05T20:56:51.000Z</time>
      </trkpt>
      <trkpt lat="47.44223" lon="-0.41863">
        <ele>20</ele>
        <time>2012-08-05T20:56:55.000Z</time>
      </trkpt>
      <trkpt lat="47.44224" lon="-0.41856">
        <ele>20</ele>
        <time>2012-08-05T20:56:59.000Z</time>
      </trkpt>
      <trkpt lat="47.44224" lon="-0.41848">
        <ele>20</ele>
        <time>2012-08-05T20:57:04.000Z</time>
      </trkpt>
      <trkpt lat="47.44224" lon="-0.4184">
        <ele>20</ele>
        <time>2012-08-05T20:57:09.000Z</time>
      </trkpt>
      <trkpt lat="47.44224" lon="-0.41833">
        <ele>20</ele>
        <time>2012-08-05T20:57:13.000Z</time>
      </trkpt>
      <trkpt lat="47.44225" lon="-0.41824">
        <ele>20</ele>
        <time>2012-08-05T20:57:17.000Z</time>
      </trkpt>
      <trkpt lat="47.44226" lon="-0.41816">
        <ele>20</ele>
        <time>2012-08-05T20:57:21.000Z</time>
      </trkpt>
      <trkpt lat="47.44226" lon="-0.41807">
        <ele>20</ele>
        <time>2012-08-05T20:57:25.000Z</time>
      </trkpt>
      <trkpt lat="47.44227" lon="-0.41799">
        <ele>20</ele>
        <time>2012-08-05T20:57:29.000Z</time>
      </trkpt>
      <trkpt lat="47.44228" lon="-0.41791">
        <ele>20</ele>
        <time>2012-08-05T20:57:33.000Z</time>
      </trkpt>
      <trkpt lat="47.44229" lon="-0.41783">
        <ele>20</ele>
        <time>2012-08-05T20:57:37.000Z</time>
      </trkpt>
      <trkpt lat="47.44229" lon="-0.41775">
        <ele>20</ele>
        <time>2012-08-05T20:57:41.000Z</time>
      </trkpt>
      <trkpt lat="47.4423" lon="-0.41766">
        <ele>20</ele>
        <time>2012-08-05T20:57:45.000Z</time>
      </trkpt>
      <trkpt lat="47.44231" lon="-0.41758">
        <ele>20</ele>
        <time>2012-08-05T20:57:49.000Z</time>
      </trkpt>
      <trkpt lat="47.44232" lon="-0.41749">
        <ele>20</ele>
        <time>2012-08-05T20:57:53.000Z</time>
      </trkpt>
      <trkpt lat="47.44232" lon="-0.41741">
        <ele>20</ele>
        <time>2012-08-05T20:57:57.000Z</time>
      </trkpt>
      <trkpt lat="47.44232" lon="-0.41732">
        <ele>20</ele>
        <time>2012-08-05T20:58:01.000Z</time>
      </trkpt>
      <trkpt lat="47.44233" lon="-0.41723">
        <ele>19</ele>
        <time>2012-08-05T20:58:05.000Z</time>
      </trkpt>
      <trkpt lat="47.44233" lon="-0.41714">
        <ele>19</ele>
        <time>2012-08-05T20:58:09.000Z</time>
      </trkpt>
      <trkpt lat="47.44234" lon="-0.41706">
        <ele>19</ele>
        <time>2012-08-05T20:58:13.000Z</time>
      </trkpt>
      <trkpt lat="47.44234" lon="-0.41697">
        <ele>19</ele>
        <time>2012-08-05T20:58:17.000Z</time>
      </trkpt>
      <trkpt lat="47.44234" lon="-0.41689">
        <ele>19</ele>
        <time>2012-08-05T20:58:21.000Z</time>
      </trkpt>
      <trkpt lat="47.44233" lon="-0.41681">
        <ele>20</ele>
        <time>2012-08-05T20:58:25.000Z</time>
      </trkpt>
      <trkpt lat="47.44233" lon="-0.41672">
        <ele>20</ele>
        <time>2012-08-05T20:58:29.000Z</time>
      </trkpt>
      <trkpt lat="47.44233" lon="-0.41663">
        <ele>19</ele>
        <time>2012-08-05T20:58:33.000Z</time>
      </trkpt>
      <trkpt lat="47.44232" lon="-0.41654">
        <ele>19</ele>
        <time>2012-08-05T20:58:37.000Z</time>
      </trkpt>
      <trkpt lat="47.44232" lon="-0.41648">
        <ele>19</ele>
        <time>2012-08-05T20:58:40.000Z</time>
      </trkpt>
      <trkpt lat="47.44232" lon="-0.41641">
        <ele>19</ele>
        <time>2012-08-05T20:58:43.000Z</time>
      </trkpt>
      <trkpt lat="47.44232" lon="-0.41632">
        <ele>19</ele>
        <time>2012-08-05T20:58:47.000Z</time>
      </trkpt>
      <trkpt lat="47.44232" lon="-0.41623">
        <ele>19</ele>
        <time>2012-08-05T20:58:51.000Z</time>
      </trkpt>
      <trkpt lat="47.44233" lon="-0.41616">
        <ele>19</ele>
        <time>2012-08-05T20:58:54.000Z</time>
      </trkpt>
      <trkpt lat="47.44234" lon="-0.4161">
        <ele>19</ele>
        <time>2012-08-05T20:58:57.000Z</time>
      </trkpt>
      <trkpt lat="47.44235" lon="-0.41601">
        <ele>19</ele>
        <time>2012-08-05T20:59:01.000Z</time>
      </trkpt>
      <trkpt lat="47.44236" lon="-0.41592">
        <ele>19</ele>
        <time>2012-08-05T20:59:05.000Z</time>
      </trkpt>
      <trkpt lat="47.44236" lon="-0.41584">
        <ele>19</ele>
        <time>2012-08-05T20:59:09.000Z</time>
      </trkpt>
      <trkpt lat="47.44236" lon="-0.41577">
        <ele>19</ele>
        <time>2012-08-05T20:59:12.000Z</time>
      </trkpt>
      <trkpt lat="47.44237" lon="-0.4157">
        <ele>19</ele>
        <time>2012-08-05T20:59:15.000Z</time>
      </trkpt>
      <trkpt lat="47.44238" lon="-0.41562">
        <ele>19</ele>
        <time>2012-08-05T20:59:19.000Z</time>
      </trkpt>
      <trkpt lat="47.4424" lon="-0.41554">
        <ele>19</ele>
        <time>2012-08-05T20:59:23.000Z</time>
      </trkpt>
      <trkpt lat="47.44242" lon="-0.41546">
        <ele>19</ele>
        <time>2012-08-05T20:59:27.000Z</time>
      </trkpt>
      <trkpt lat="47.44243" lon="-0.41537">
        <ele>19</ele>
        <time>2012-08-05T20:59:31.000Z</time>
      </trkpt>
      <trkpt lat="47.44245" lon="-0.41529">
        <ele>20</ele>
        <time>2012-08-05T20:59:35.000Z</time>
      </trkpt>
      <trkpt lat="47.44246" lon="-0.41521">
        <ele>20</ele>
        <time>2012-08-05T20:59:39.000Z</time>
      </trkpt>
      <trkpt lat="47.44247" lon="-0.41513">
        <ele>20</ele>
        <time>2012-08-05T20:59:43.000Z</time>
      </trkpt>
      <trkpt lat="47.44249" lon="-0.41505">
        <ele>21</ele>
        <time>2012-08-05T20:59:47.000Z</time>
      </trkpt>
      <trkpt lat="47.4425" lon="-0.41497">
        <ele>21</ele>
        <time>2012-08-05T20:59:51.000Z</time>
      </trkpt>
      <trkpt lat="47.44252" lon="-0.41489">
        <ele>21</ele>
        <time>2012-08-05T20:59:55.000Z</time>
      </trkpt>
      <trkpt lat="47.44254" lon="-0.41481">
        <ele>22</ele>
        <time>2012-08-05T20:59:59.000Z</time>
      </trkpt>
      <trkpt lat="47.44255" lon="-0.41473">
        <ele>22</ele>
        <time>2012-08-05T21:00:03.000Z</time>
      </trkpt>
      <trkpt lat="47.44256" lon="-0.41465">
        <ele>22</ele>
        <time>2012-08-05T21:00:07.000Z</time>
      </trkpt>
      <trkpt lat="47.44257" lon="-0.41458">
        <ele>22</ele>
        <time>2012-08-05T21:00:11.000Z</time>
      </trkpt>
      <trkpt lat="47.44259" lon="-0.4145">
        <ele>22</ele>
        <time>2012-08-05T21:00:15.000Z</time>
      </trkpt>
      <trkpt lat="47.4426" lon="-0.41443">
        <ele>22</ele>
        <time>2012-08-05T21:00:19.000Z</time>
      </trkpt>
      <trkpt lat="47.44261" lon="-0.41435">
        <ele>22</ele>
        <time>2012-08-05T21:00:23.000Z</time>
      </trkpt>
      <trkpt lat="47.44262" lon="-0.41427">
        <ele>22</ele>
        <time>2012-08-05T21:00:27.000Z</time>
      </trkpt>
      <trkpt lat="47.44263" lon="-0.41419">
        <ele>22</ele>
        <time>2012-08-05T21:00:31.000Z</time>
      </trkpt>
      <trkpt lat="47.44263" lon="-0.41411">
        <ele>22</ele>
        <time>2012-08-05T21:00:35.000Z</time>
      </trkpt>
      <trkpt lat="47.44264" lon="-0.41403">
        <ele>22</ele>
        <time>2012-08-05T21:00:39.000Z</time>
      </trkpt>
      <trkpt lat="47.44265" lon="-0.41395">
        <ele>22</ele>
        <time>2012-08-05T21:00:43.000Z</time>
      </trkpt>
      <trkpt lat="47.44266" lon="-0.41387">
        <ele>22</ele>
        <time>2012-08-05T21:00:47.000Z</time>
      </trkpt>
      <trkpt lat="47.44267" lon="-0.41378">
        <ele>22</ele>
        <time>2012-08-05T21:00:51.000Z</time>
      </trkpt>
      <trkpt lat="47.44267" lon="-0.41371">
        <ele>22</ele>
        <time>2012-08-05T21:00:55.000Z</time>
      </trkpt>
      <trkpt lat="47.44268" lon="-0.41363">
        <ele>21</ele>
        <time>2012-08-05T21:00:59.000Z</time>
      </trkpt>
      <trkpt lat="47.44269" lon="-0.41355">
        <ele>21</ele>
        <time>2012-08-05T21:01:03.000Z</time>
      </trkpt>
      <trkpt lat="47.4427" lon="-0.41348">
        <ele>21</ele>
        <time>2012-08-05T21:01:07.000Z</time>
      </trkpt>
      <trkpt lat="47.44271" lon="-0.4134">
        <ele>21</ele>
        <time>2012-08-05T21:01:11.000Z</time>
      </trkpt>
      <trkpt lat="47.44272" lon="-0.41333">
        <ele>21</ele>
        <time>2012-08-05T21:01:15.000Z</time>
      </trkpt>
      <trkpt lat="47.44273" lon="-0.41325">
        <ele>21</ele>
        <time>2012-08-05T21:01:19.000Z</time>
      </trkpt>
      <trkpt lat="47.44274" lon="-0.41317">
        <ele>21</ele>
        <time>2012-08-05T21:01:23.000Z</time>
      </trkpt>
      <trkpt lat="47.44275" lon="-0.41309">
        <ele>21</ele>
        <time>2012-08-05T21:01:27.000Z</time>
      </trkpt>
      <trkpt lat="47.44276" lon="-0.41302">
        <ele>21</ele>
        <time>2012-08-05T21:01:31.000Z</time>
      </trkpt>
      <trkpt lat="47.44277" lon="-0.41294">
        <ele>21</ele>
        <time>2012-08-05T21:01:35.000Z</time>
      </trkpt>
      <trkpt lat="47.44278" lon="-0.41287">
        <ele>21</ele>
        <time>2012-08-05T21:01:39.000Z</time>
      </trkpt>
      <trkpt lat="47.4428" lon="-0.4128">
        <ele>21</ele>
        <time>2012-08-05T21:01:43.000Z</time>
      </trkpt>
      <trkpt lat="47.44283" lon="-0.41272">
        <ele>21</ele>
        <time>2012-08-05T21:01:47.000Z</time>
      </trkpt>
      <trkpt lat="47.44286" lon="-0.41265">
        <ele>21</ele>
        <time>2012-08-05T21:01:51.000Z</time>
      </trkpt>
      <trkpt lat="47.44289" lon="-0.41258">
        <ele>21</ele>
        <time>2012-08-05T21:01:55.000Z</time>
      </trkpt>
      <trkpt lat="47.44291" lon="-0.4125">
        <ele>20</ele>
        <time>2012-08-05T21:01:59.000Z</time>
      </trkpt>
      <trkpt lat="47.44293" lon="-0.41243">
        <ele>21</ele>
        <time>2012-08-05T21:02:02.000Z</time>
      </trkpt>
      <trkpt lat="47.44294" lon="-0.41236">
        <ele>21</ele>
        <time>2012-08-05T21:02:05.000Z</time>
      </trkpt>
      <trkpt lat="47.44296" lon="-0.4123">
        <ele>21</ele>
        <time>2012-08-05T21:02:08.000Z</time>
      </trkpt>
      <trkpt lat="47.44298" lon="-0.41222">
        <ele>21</ele>
        <time>2012-08-05T21:02:12.000Z</time>
      </trkpt>
      <trkpt lat="47.443" lon="-0.41215">
        <ele>21</ele>
        <time>2012-08-05T21:02:16.000Z</time>
      </trkpt>
      <trkpt lat="47.44303" lon="-0.41208">
        <ele>21</ele>
        <time>2012-08-05T21:02:20.000Z</time>
      </trkpt>
      <trkpt lat="47.44305" lon="-0.41202">
        <ele>21</ele>
        <time>2012-08-05T21:02:24.000Z</time>
      </trkpt>
      <trkpt lat="47.44308" lon="-0.41195">
        <ele>21</ele>
        <time>2012-08-05T21:02:28.000Z</time>
      </trkpt>
      <trkpt lat="47.4431" lon="-0.41188">
        <ele>21</ele>
        <time>2012-08-05T21:02:32.000Z</time>
      </trkpt>
      <trkpt lat="47.44313" lon="-0.41181">
        <ele>21</ele>
        <time>2012-08-05T21:02:36.000Z</time>
      </trkpt>
      <trkpt lat="47.44315" lon="-0.41174">
        <ele>21</ele>
        <time>2012-08-05T21:02:40.000Z</time>
      </trkpt>
      <trkpt lat="47.44318" lon="-0.41167">
        <ele>21</ele>
        <time>2012-08-05T21:02:44.000Z</time>
      </trkpt>
      <trkpt lat="47.44321" lon="-0.4116">
        <ele>21</ele>
        <time>2012-08-05T21:02:48.000Z</time>
      </trkpt>
      <trkpt lat="47.44325" lon="-0.41154">
        <ele>21</ele>
        <time>2012-08-05T21:02:52.000Z</time>
      </trkpt>
      <trkpt lat="47.44328" lon="-0.41148">
        <ele>21</ele>
        <time>2012-08-05T21:02:56.000Z</time>
      </trkpt>
      <trkpt lat="47.44332" lon="-0.41141">
        <ele>21</ele>
        <time>2012-08-05T21:03:00.000Z</time>
      </trkpt>
      <trkpt lat="47.44335" lon="-0.41135">
        <ele>21</ele>
        <time>2012-08-05T21:03:04.000Z</time>
      </trkpt>
      <trkpt lat="47.44339" lon="-0.41129">
        <ele>21</ele>
        <time>2012-08-05T21:03:08.000Z</time>
      </trkpt>
      <trkpt lat="47.44343" lon="-0.41123">
        <ele>21</ele>
        <time>2012-08-05T21:03:12.000Z</time>
      </trkpt>
      <trkpt lat="47.44347" lon="-0.41117">
        <ele>21</ele>
        <time>2012-08-05T21:03:16.000Z</time>
      </trkpt>
      <trkpt lat="47.44351" lon="-0.41112">
        <ele>21</ele>
        <time>2012-08-05T21:03:19.000Z</time>
      </trkpt>
      <trkpt lat="47.44354" lon="-0.41108">
        <ele>21</ele>
        <time>2012-08-05T21:03:22.000Z</time>
      </trkpt>
      <trkpt lat="47.44358" lon="-0.41104">
        <ele>21</ele>
        <time>2012-08-05T21:03:25.000Z</time>
      </trkpt>
      <trkpt lat="47.44363" lon="-0.41102">
        <ele>21</ele>
        <time>2012-08-05T21:03:28.000Z</time>
      </trkpt>
      <trkpt lat="47.44368" lon="-0.411">
        <ele>21</ele>
        <time>2012-08-05T21:03:31.000Z</time>
      </trkpt>
      <trkpt lat="47.44374" lon="-0.41097">
        <ele>21</ele>
        <time>2012-08-05T21:03:34.000Z</time>
      </trkpt>
      <trkpt lat="47.4438" lon="-0.41095">
        <ele>21</ele>
        <time>2012-08-05T21:03:37.000Z</time>
      </trkpt>
      <trkpt lat="47.44386" lon="-0.41094">
        <ele>21</ele>
        <time>2012-08-05T21:03:39.000Z</time>
      </trkpt>
      <trkpt lat="47.44392" lon="-0.41092">
        <ele>21</ele>
        <time>2012-08-05T21:03:42.000Z</time>
      </trkpt>
      <trkpt lat="47.44397" lon="-0.4109">
        <ele>21</ele>
        <time>2012-08-05T21:03:45.000Z</time>
      </trkpt>
      <trkpt lat="47.44401" lon="-0.41087">
        <ele>21</ele>
        <time>2012-08-05T21:03:48.000Z</time>
      </trkpt>
      <trkpt lat="47.44406" lon="-0.41085">
        <ele>21</ele>
        <time>2012-08-05T21:03:51.000Z</time>
      </trkpt>
      <trkpt lat="47.4441" lon="-0.41082">
        <ele>21</ele>
        <time>2012-08-05T21:03:54.000Z</time>
      </trkpt>
      <trkpt lat="47.44415" lon="-0.41078">
        <ele>21</ele>
        <time>2012-08-05T21:03:58.000Z</time>
      </trkpt>
      <trkpt lat="47.4442" lon="-0.41073">
        <ele>21</ele>
        <time>2012-08-05T21:04:02.000Z</time>
      </trkpt>
      <trkpt lat="47.44424" lon="-0.41068">
        <ele>21</ele>
        <time>2012-08-05T21:04:06.000Z</time>
      </trkpt>
      <trkpt lat="47.44429" lon="-0.41064">
        <ele>21</ele>
        <time>2012-08-05T21:04:10.000Z</time>
      </trkpt>
      <trkpt lat="47.44433" lon="-0.4106">
        <ele>21</ele>
        <time>2012-08-05T21:04:14.000Z</time>
      </trkpt>
      <trkpt lat="47.44438" lon="-0.41056">
        <ele>21</ele>
        <time>2012-08-05T21:04:18.000Z</time>
      </trkpt>
      <trkpt lat="47.44442" lon="-0.41053">
        <ele>21</ele>
        <time>2012-08-05T21:04:22.000Z</time>
      </trkpt>
      <trkpt lat="47.44447" lon="-0.41048">
        <ele>21</ele>
        <time>2012-08-05T21:04:26.000Z</time>
      </trkpt>
      <trkpt lat="47.4445" lon="-0.41043">
        <ele>21</ele>
        <time>2012-08-05T21:04:31.000Z</time>
      </trkpt>
      <trkpt lat="47.44446" lon="-0.41038">
        <ele>21</ele>
        <time>2012-08-05T21:04:37.000Z</time>
      </trkpt>
      <trkpt lat="47.44442" lon="-0.41033">
        <ele>21</ele>
        <time>2012-08-05T21:04:42.000Z</time>
      </trkpt>
      <trkpt lat="47.44437" lon="-0.4103">
        <ele>21</ele>
        <time>2012-08-05T21:04:46.000Z</time>
      </trkpt>
      <trkpt lat="47.44432" lon="-0.41026">
        <ele>21</ele>
        <time>2012-08-05T21:04:50.000Z</time>
      </trkpt>
      <trkpt lat="47.44427" lon="-0.41024">
        <ele>21</ele>
        <time>2012-08-05T21:04:53.000Z</time>
      </trkpt>
      <trkpt lat="47.44423" lon="-0.4102">
        <ele>20</ele>
        <time>2012-08-05T21:04:56.000Z</time>
      </trkpt>
      <trkpt lat="47.44419" lon="-0.41016">
        <ele>20</ele>
        <time>2012-08-05T21:04:59.000Z</time>
      </trkpt>
      <trkpt lat="47.44415" lon="-0.41012">
        <ele>19</ele>
        <time>2012-08-05T21:05:02.000Z</time>
      </trkpt>
      <trkpt lat="47.44411" lon="-0.41008">
        <ele>19</ele>
        <time>2012-08-05T21:05:05.000Z</time>
      </trkpt>
      <trkpt lat="47.44406" lon="-0.41003">
        <ele>19</ele>
        <time>2012-08-05T21:05:08.000Z</time>
      </trkpt>
      <trkpt lat="47.44402" lon="-0.40999">
        <ele>19</ele>
        <time>2012-08-05T21:05:11.000Z</time>
      </trkpt>
      <trkpt lat="47.44398" lon="-0.40994">
        <ele>19</ele>
        <time>2012-08-05T21:05:14.000Z</time>
      </trkpt>
      <trkpt lat="47.44394" lon="-0.4099">
        <ele>19</ele>
        <time>2012-08-05T21:05:17.000Z</time>
      </trkpt>
      <trkpt lat="47.44391" lon="-0.40985">
        <ele>19</ele>
        <time>2012-08-05T21:05:20.000Z</time>
      </trkpt>
      <trkpt lat="47.44387" lon="-0.4098">
        <ele>19</ele>
        <time>2012-08-05T21:05:23.000Z</time>
      </trkpt>
      <trkpt lat="47.44383" lon="-0.40976">
        <ele>19</ele>
        <time>2012-08-05T21:05:26.000Z</time>
      </trkpt>
      <trkpt lat="47.44379" lon="-0.40972">
        <ele>19</ele>
        <time>2012-08-05T21:05:29.000Z</time>
      </trkpt>
      <trkpt lat="47.44375" lon="-0.40968">
        <ele>19</ele>
        <time>2012-08-05T21:05:32.000Z</time>
      </trkpt>
      <trkpt lat="47.44371" lon="-0.40964">
        <ele>19</ele>
        <time>2012-08-05T21:05:35.000Z</time>
      </trkpt>
      <trkpt lat="47.44367" lon="-0.40961">
        <ele>19</ele>
        <time>2012-08-05T21:05:42.000Z</time>
      </trkpt>
      <trkpt lat="47.44363" lon="-0.40956">
        <ele>18</ele>
        <time>2012-08-05T21:05:47.000Z</time>
      </trkpt>
      <trkpt lat="47.44359" lon="-0.40952">
        <ele>18</ele>
        <time>2012-08-05T21:05:51.000Z</time>
      </trkpt>
      <trkpt lat="47.44356" lon="-0.40948">
        <ele>18</ele>
        <time>2012-08-05T21:05:55.000Z</time>
      </trkpt>
      <trkpt lat="47.44352" lon="-0.40944">
        <ele>18</ele>
        <time>2012-08-05T21:05:59.000Z</time>
      </trkpt>
      <trkpt lat="47.44348" lon="-0.40939">
        <ele>18</ele>
        <time>2012-08-05T21:06:03.000Z</time>
      </trkpt>
      <trkpt lat="47.44343" lon="-0.40935">
        <ele>18</ele>
        <time>2012-08-05T21:06:07.000Z</time>
      </trkpt>
      <trkpt lat="47.44339" lon="-0.40929">
        <ele>18</ele>
        <time>2012-08-05T21:06:11.000Z</time>
      </trkpt>
      <trkpt lat="47.44335" lon="-0.40923">
        <ele>17</ele>
        <time>2012-08-05T21:06:15.000Z</time>
      </trkpt>
      <trkpt lat="47.44332" lon="-0.40917">
        <ele>17</ele>
        <time>2012-08-05T21:06:20.000Z</time>
      </trkpt>
      <trkpt lat="47.4433" lon="-0.4091">
        <ele>17</ele>
        <time>2012-08-05T21:06:24.000Z</time>
      </trkpt>
      <trkpt lat="47.44329" lon="-0.40902">
        <ele>18</ele>
        <time>2012-08-05T21:06:28.000Z</time>
      </trkpt>
    </trkseg>
  </trk>
</gpx>